[[{"header":{"parameterUnit":"m.s-1","parameterCategory":1,"la1":30.6,"la2":29.2853,"lo1":-89.7004,"lo2":-87.6739,"dy":0.0162,"dx":0.0183,"nx":112,"ny":82,"refTime":"2025-07-31T00:00:00:Z","depth":0,"parameterNumber":2,"parameterNumberName":"U-component_of_WINDS"},"data":[0.0,0.0,0.0,0.0,0.0,0.0,0.0,0.0,0.0,0.0,0.0,0.0,0.0,0.0,0.0,0.0,0.0,0.0,0.0,0.0,0.0,0.0,0.0,0.0,0.0,0.0,0.0,0.0,0.0,0.0,0.0,0.0,0.0,0.0,0.0,0.0,0.0,0.0,0.0,0.0,0.0,0.0,0.0,0.0,0.0,0.0,0.0,0.0,0.0,0.0,0.0,0.0,0.0,0.0,0.0,0.0,0.0,0.0,0.0,0.0,0.0,0.0,0.0,0.0,0.0,0.0,0.0,0.0,0.0,0.0,0.0,0.0,0.0,0.0,0.0,0.0,0.0,0.0,0.0,0.0,0.0,0.0,0.0,0.0,0.0,0.0,0.0,0.0,0.0,0.0,0.0,0.0345,0.0154,-0.0,-0.0,-0.0,-0.0,-0.0,0.0,0.0,0.0,0.0,0.0,0.0,0.0,0.0,0.0,0.0,0.0,0.0,0.0,0.0,0.0,0.0,0.0,0.0,0.0,0.0,0.0,0.0,0.0,0.0,0.0,0.0,0.0,0.0,0.0,0.0,0.0,0.0,0.0,0.0,0.0,0.0,0.0,0.0,0.0,0.0,0.0,0.0,0.0,0.0,0.0,0.0,0.0,0.0,0.0,0.0,0.0,0.0,0.0,0.0,0.0,0.0,0.0,0.0,0.0,0.0,0.0,0.0,0.0,0.0,0.0,0.0,0.0,0.0,0.0,0.0,0.0,0.0,0.0,0.0,0.0,0.0,0.0,0.0,0.0,0.0,0.0,0.0,0.0,0.0,0.0,0.0,0.0,0.0,0.0,0.0,0.0,0.0,0.0,0.0,0.0,0.0,0.0,0.0,0.0,0.0,0.0,0.0,0.0,0.0,0.02,0.005,-0.0,-0.0,-0.0,-0.0,-0.0,-0.0,0.0,0.0,0.0,0.0,0.0,0.0,0.0,0.0,0.0,0.0,0.0,0.0,0.0,0.0,0.0,0.0,0.0,0.0,0.0,0.0,0.0,0.0,0.0,0.0,0.0,0.0,0.0,0.0,0.0,0.0,0.0,0.0,0.0,0.0,0.0,0.0,0.0,0.0,0.0,0.0,0.0,0.0,0.0,0.0,0.0,0.0,0.0,0.0,0.0,0.0,0.0,0.0,0.0,0.0,0.0,0.0,0.0,0.0,0.0,0.0,0.0,0.0,0.0,0.0,0.0,0.0,0.0,0.0,0.0,0.0,0.0,0.0,0.0,0.0,0.0,0.0,0.0,0.0,0.0,0.0,0.0,0.0,0.0,0.0,0.0,0.0,0.0,0.0,0.0,0.0,0.0,0.0,0.0,0.0,0.0,0.0,0.0,0.0,0.0,0.0,0.0,0.0,0.0,0.0228,0.0086,-0.0,-0.0,-0.0,-0.0,-0.0,-0.0,-0.0,-0.0,0.0,0.0,0.0,0.0,0.0,0.0,0.0,0.0,0.0,0.0,0.0,0.0,0.0,0.0,0.0,0.0,0.0,0.0,0.0,0.0,0.0,0.0,0.0,0.0,0.0,0.0,0.0,0.0,0.0,0.0,0.0,0.0,0.0,0.0,0.0,0.0,0.0,0.0,0.0,0.0,0.0,0.0,0.0,0.0,0.0,0.0,0.0,0.0,0.0,0.0,0.0,0.0,0.0,0.0,0.0,0.0,0.0,0.0,0.0,0.0,0.0,0.0,0.0,0.0,0.0,0.0,0.0,0.0,0.0,0.0,0.0,0.0,0.0,0.0,0.0,0.0,0.0,0.0,0.0,0.0,0.0,0.0,0.0,0.0,0.0,0.0,0.0,0.0,0.0,0.0,0.0,0.0,0.0,0.0,0.0,0.0,0.0,0.0,0.0,0.0,0.0,0.0,0.0215,0.014,0.0213,0.0166,0.0056,-0.0,-0.0,-0.0,-0.0,-0.0,0.0,0.0,0.0,0.0,0.0,0.0,0.0,0.0,0.0,0.0,0.0,0.0,0.0,0.0,0.0,0.0,0.0,0.0,0.0,0.0,0.0,0.0,0.0,0.0,0.0,0.0,0.0,0.0,0.0,0.0,0.0,0.0,0.0,0.0,0.0,0.0,0.0,0.0,0.0,0.0,0.0,0.0,0.0,0.0,0.0,0.0,0.0,0.0,0.0,0.0,0.0,0.0,0.0,0.0,0.0,0.0,0.0,0.0,0.0,0.0,0.0,0.0,0.0,0.0,0.0,0.0,0.0,0.0,0.0,0.0,0.0,0.0,0.0,0.0,0.0,0.0,0.0,0.0,0.0,0.0,0.0,0.0,0.0,0.0,0.0,0.0,0.0,0.0,0.0,0.0,0.0,0.0,0.0,0.0,0.0,0.0,0.0,0.0,0.0,0.0,0.0,0.0,0.0364,0.0514,0.0777,0.056,0.028,-0.0,-0.0,-0.0,-0.0,-0.0,0.0,0.0,0.0,0.0,0.0,0.0,0.0,0.0,0.0,0.0,0.0,0.0,0.0,0.0,0.0,0.0,0.0,0.0,0.0,0.0,0.0,0.0,0.0,0.0,0.0,0.0,0.0,0.0,0.0,0.0,0.0,0.0,0.0,0.0,0.0,0.0,0.0,0.0,0.0,0.0,0.0,0.0,0.0,0.0,0.0,0.0,0.0,0.0,0.0,0.0,0.0,0.0,0.0,0.0,0.0,0.0,0.0,0.0,0.0,0.0,0.0,0.0,0.0,0.0,0.0,0.0,0.0,0.0,0.0,0.0,0.0,0.0,0.0,0.0,0.0,0.0,0.0,0.0,0.0,0.0,0.0,0.0,0.0,0.0,0.0,0.0,0.0,0.0,0.0,0.0,0.0,0.0,0.0,0.0,0.0,0.0,0.0,0.0,0.0,0.0,0.0,0.0,0.0394,0.0444,0.0,0.0785,0.0673,0.0561,0.0205,0.0092,0.0244,0.0,0.0,0.0,0.0,0.0,0.0,0.0,0.0,0.0,0.0,0.0,0.0,0.0,0.0,0.0,0.0,0.0,0.0,0.0,0.0,0.0,0.0,0.0,0.0,0.0,0.0,0.0,0.0,0.0,0.0,0.0,0.0,0.0,0.0,0.0,0.0,0.0,0.0,0.0,0.0,0.0,0.0,0.0,0.0,0.0,0.0,0.0,0.0,0.0,0.0,0.0,0.0,0.0,0.0,0.0,0.0,0.0,0.0,0.0,0.0,0.0,0.0,0.0,0.0,0.0,0.0,0.0,0.0,0.0,0.0,0.0,0.0,0.0,0.0,0.0,0.0,0.0,0.0,0.0,0.0,0.0,0.0,0.0,0.0,0.0,0.0,0.0,0.0,0.0,0.0,0.0,0.0,0.0,0.0,0.0,0.0,0.0,0.0,0.0,0.0,0.0,0.0,0.0692,0.0393,0.0295,0.0,0.0561,0.0505,0.0617,0.0309,0.023,0.0317,0.0,0.0,0.0,0.0,0.0,0.0,0.0,0.0,0.0,0.0,0.0,0.0,0.0,0.0,0.0,0.0,0.0,0.0,0.0,0.0,0.0,0.0,0.0,0.0,0.0,0.0,0.0,0.0,0.0,0.0,0.0,0.0,0.0,0.0,0.0,0.0,0.0,0.0,0.0,0.0,0.0,0.0,0.0,0.0,0.0,0.0,0.0,0.0,0.0,0.0,0.0,0.0,0.0,0.0,0.0,0.0,0.0,0.0,0.0,0.0,0.0,0.0,0.0,0.0,0.0,0.0,0.0,0.0,0.0,0.0,0.0,0.0,0.0,0.0,0.0,0.0,0.0,0.0,0.0,0.0,0.0,0.0,0.0,0.0,0.0,0.0,0.0,0.0,0.0,0.0,0.0,0.0,0.0,0.0,0.0,0.0,0.0,0.0,0.0,0.0,0.0,0.0,0.0699,0.0366,0.0052,-0.0,-0.0224,-0.028,-0.0056,0.0296,0.039,0.0,0.0,0.0,0.0,0.0,0.0,0.0,0.0,0.0,0.0,0.0,0.0,0.0,0.0,0.0,0.0,0.0,0.0,0.0,0.0,0.0,0.0,0.0,0.0,0.0,0.0,0.0,0.0,0.0,0.0,0.0,0.0,0.0,0.0,0.0,0.0,0.0,0.0,0.0,0.0,0.0,0.0,0.0,0.0,0.0,0.0,0.0,0.0,0.0,0.0,0.0,0.0,0.0,0.0,0.0,0.0,0.0,0.0,0.0,0.0,0.0,0.0,0.0,0.0,0.0,0.0,0.0,0.0,0.0,0.0,0.0,0.0,0.0,0.0,0.0,0.0,0.0,0.0,0.0,0.0,0.0,0.0,0.0,0.0,0.0,0.0,0.0,0.0,0.0,0.0,0.0,0.0,0.0,0.0,0.0,0.0,0.0,0.0,0.0,0.0,0.0,0.0,0.0,0.0621,0.0229,-0.0207,-0.0612,-0.0729,-0.0898,-0.1234,-0.0722,-0.0327,-0.0166,0.0,0.0,0.0,0.0,0.0,0.0,0.0,0.0,0.0,0.0,0.0,0.0,0.0,0.0,0.0,0.0,0.0,0.0,0.0,0.0,0.0,0.0,0.0,0.0,0.0,0.0,0.0,0.0,0.0,0.0,0.0,0.0,0.0,0.0,0.0,0.0,0.0,0.0,0.0,0.0,0.0,0.0,0.0,0.0,0.0,0.0,0.0,0.0,0.0,0.0,0.0,0.0,0.0,0.0,0.0,0.0,0.0,0.0,0.0,0.0,0.0,0.0,0.0,0.0,0.0,0.0,0.0,0.0,0.0,0.0,0.0,0.0,0.0,0.0,0.0,0.0,0.0,0.0,0.0,0.0,0.0,0.0,0.0,0.0,0.0,0.0,0.0,0.0,0.0,0.0,0.0,0.0,0.0,0.0,0.0,0.0,0.0,0.0,0.0,0.0,0.0,0.0,0.0388,-0.0,-0.0467,-0.0947,-0.1122,-0.1403,-0.1797,-0.128,-0.0885,-0.0653,0.0,0.0,0.0,0.0,0.0,0.0,0.0,0.0,0.0,0.0,0.0,0.0,0.0,0.0,0.0,0.0,0.0,0.0,0.0,0.0,0.0,0.0,0.0,0.0,0.0,0.0,0.0,0.0,0.0,0.0,0.0,0.0,0.0,0.0,0.0,0.0,0.0,0.0,0.0,0.0,0.0,0.0,0.0,0.0,0.0,0.0,0.0,0.0,0.0,0.0,0.0,0.0,0.0,0.0,0.0,0.0,0.0,0.0,0.0,0.0,0.0,0.0,0.0,0.0,0.0,0.0,0.0,0.0,0.0,0.0,0.0,0.0,0.0,0.0,0.0,0.0,0.0,0.0,0.0,0.0,0.0,0.0,0.0,0.0,0.0,0.0,0.0,0.0,0.0,0.0,0.0,0.0,0.0,0.0,0.0,0.0,0.0,0.0,0.0,0.0,0.0,0.0,0.0039,-0.0322,-0.0677,-0.1059,-0.1515,-0.1797,-0.1797,-0.1468,-0.1224,-0.1187,0.0,0.0,0.0,0.0,0.0,0.0,0.0,0.0,0.0,0.0,0.0,0.0,0.0,0.0,0.0,0.0,0.0,0.0,0.0,0.0,0.0,0.0,0.0,0.0,0.0,0.0,0.0,0.0,0.0,0.0,0.0,0.0,0.0,0.0,0.0,0.0,0.0,0.0,0.0,0.0,0.0,0.0,0.0,0.0,0.0,0.0,0.0,0.0,0.0,0.0,0.0,0.0,0.0,0.0,0.0,0.0,0.0,0.0,0.0,0.0,0.7198,0.0,0.0,0.0,0.0,0.0,0.0,0.0,0.0,0.0,0.0,0.0,0.0,0.0,0.0,0.0,0.0,0.0,0.0,0.0,0.0,0.0,0.0,0.0,0.0,0.0,0.0,0.0,0.0,0.0,0.0,0.0,0.0,0.0,0.0,0.0,0.0,0.0,0.0,0.0,0.0,0.0,-0.0,-0.0624,-0.1071,-0.1117,-0.1515,-0.1797,-0.1797,-0.1687,-0.1459,-0.1235,-0.1009,0.0,0.0,0.0,0.0,0.0,0.0,0.0,0.0,0.0,0.0,0.0,0.0,0.0,0.0,0.0,0.0,0.0,0.0,0.0,0.0,0.0,0.0,0.0,0.0,0.0,0.0,0.0,0.0,0.0,0.0,0.0,0.0,0.0,0.0,0.0,0.0,0.0,0.0,0.0,0.0,0.0,0.0,0.0,0.0,0.0,0.0,0.0,0.0,0.0,0.0,0.0,0.0,0.0,0.0,0.0,0.0,0.0,0.0,0.0,0.0,0.7712,0.0,0.0,0.0,0.0,0.0,0.0,0.0,0.0,0.0,0.0,0.0,0.0,0.0,0.0,0.0,0.0,0.0,0.0,0.0,0.0,0.0,0.0,0.0,0.0,0.0,0.0,0.0,0.0,0.0,0.0,0.0,0.0,0.0,0.0,0.0,0.0,0.0,0.0,0.0,0.0,-0.0257,-0.0836,-0.1242,-0.1398,-0.1629,-0.1797,-0.1797,-0.1767,-0.167,-0.1455,-0.1277,0.0,0.0,0.0,0.0,0.0,0.0,0.0,0.0,0.0,0.0,0.0,0.0,0.0,0.0,0.0,0.0,0.0,0.0,0.0,0.0,0.0,0.0,0.0,0.0,0.0,0.0,0.0,0.0,0.0,0.0,0.0,0.0,0.0,0.0,0.0,0.0,0.0,0.0,0.0,0.0,0.0,0.0,0.0,0.0,0.0,0.0,0.0,0.0,0.0,0.0,0.0,0.0,0.0,1.0008,1.0275,1.1039,1.0552,1.0303,1.0285,0.9469,0.8738,0.8016,0.7878,0.0,0.0,0.0,0.0,0.0,0.0,0.0,0.0,0.0,0.0,0.0,0.0,0.0,0.0,0.0,0.0,0.0,0.0,0.0,0.0,0.0,0.0,0.0,0.0,0.1261,0.0927,0.0,0.0,0.0,0.0,0.0,0.0,0.0,0.0,0.0,0.0,0.0,0.0,-0.0675,-0.1059,-0.1414,-0.1792,-0.1797,-0.1797,-0.1797,-0.1797,-0.1775,-0.1725,-0.1516,-0.1337,0.0,0.0,0.0,0.0,0.0,0.0,0.0,0.0,0.0,0.0,0.0,0.0,0.0,0.0,0.0,0.0,0.0,0.0,0.0,0.0,0.0,0.0,0.0,0.0,0.0,0.0,0.0,0.0,0.0,0.0,0.0,0.0,0.8993,0.9941,0.0,0.0,0.0,0.0,0.0,0.0,0.0,0.0,0.0,0.0,0.0,0.0,0.0,1.1006,1.1584,1.121,1.115,1.1396,1.1233,1.1014,1.0763,1.1025,1.0645,0.9723,0.9658,0.0,0.8505,0.7192,0.0,0.0,0.0,0.0,0.0,0.0,0.0,0.0,0.0,0.0,0.0,0.0,0.0,0.0,0.0,0.0,0.0,0.0,0.0,0.0,0.0,0.0,0.1025,0.1085,0.1031,0.097,0.0,0.0869,0.0741,0.0663,0.0357,0.0,0.0,0.0,0.0,0.0,0.0,0.0,-0.1081,-0.1492,-0.1732,-0.1797,-0.1797,-0.1797,-0.1797,-0.1797,-0.1793,-0.1786,-0.1721,-0.1604,-0.1544,-0.1422,0.0,0.0,0.0,0.0,0.0,0.0,0.0,0.0,0.0,0.0,0.0,0.0,0.0,0.0,0.0,0.0,0.0,0.0,0.0,0.0,0.0,0.0,0.0,0.0,0.0,0.0,0.0,0.0,0.0,0.9085,1.0441,1.1114,1.1465,1.1577,0.0,0.0,0.0,0.0,0.0,0.0,0.0,0.0,0.0,1.1218,1.1686,1.2073,1.2221,1.2023,1.202,1.2263,1.2188,1.1892,1.1347,1.1274,1.0682,0.9684,0.8996,0.8522,0.8213,0.7423,0.688,0.6465,0.0,0.0,0.0,0.0,0.5098,0.4565,0.4145,0.3671,0.0,0.2589,0.0,0.0,0.0,0.0,0.0,0.0,0.0,0.0,0.0,0.0,0.1059,0.1042,0.0854,0.0592,0.0573,0.0237,0.0055,0.0,0.0242,0.0137,0.0202,0.0,0.0,0.0,0.0,-0.105,-0.1185,-0.1524,-0.1797,-0.1797,-0.1797,-0.1797,-0.1797,-0.1797,-0.1797,-0.1797,-0.1773,-0.1745,-0.1719,-0.1601,-0.1484,0.0,0.0,0.0,0.0,0.0,0.0,0.0,0.0,0.0,0.0,0.0,0.0,0.0,0.0,0.0,0.0,0.0,0.0,0.0,0.0,0.0,0.0,0.0,0.0,0.0,0.0,0.0,0.0,1.0453,1.1633,1.2479,1.3057,1.3313,0.0,0.0,0.0,0.0,0.0,0.0,1.1046,1.2325,1.2857,1.2435,1.2721,1.2829,1.2713,1.2606,1.2645,1.2866,1.2866,1.2427,1.1668,1.1399,1.061,0.9311,0.8455,0.7871,0.762,0.7483,0.7095,0.6606,0.6556,0.6363,0.6097,0.5694,0.5087,0.4515,0.3966,0.3369,0.2836,0.2542,0.2455,0.2476,0.2237,0.0,0.0,0.0,0.0,0.1186,0.1303,0.1229,0.1056,0.0897,0.0558,0.021,-0.0,-0.0331,-0.0513,0.0,-0.0113,-0.0214,-0.0237,0.0,0.0,0.0,0.0,-0.1344,-0.1375,-0.1644,-0.1835,-0.182,-0.1819,-0.1812,-0.1798,-0.1797,-0.1797,-0.1797,-0.1797,-0.1797,-0.1797,-0.171,-0.1625,-0.1549,0.0,0.0,0.0,0.0,0.0,0.0,0.0,0.0,0.0,0.0,0.0,0.0,0.0,0.0,0.0,0.0,0.0,0.0,0.0,0.0,0.0,0.0,0.0,0.0,0.0,0.0,0.0,0.0,0.0,1.4511,1.457,0.0,0.0,0.0,0.0,1.2708,1.2771,1.2555,1.1887,1.2869,1.314,1.2396,1.2949,1.3279,1.3198,1.3153,1.3173,1.3186,1.3186,1.2539,1.1255,1.1489,1.035,0.8191,0.836,0.7906,0.6892,0.6651,0.6503,0.6266,0.6115,0.5961,0.5701,0.4958,0.4633,0.4425,0.2934,0.2381,0.2267,0.1624,0.1732,0.2082,0.2021,0.1967,0.0,0.0,0.1565,0.1112,0.1116,0.114,0.1018,0.0363,0.0218,0.0073,-0.0507,-0.0639,-0.0613,0.0,-0.0918,-0.1089,-0.0759,0.0,-0.1278,-0.122,-0.1282,-0.1477,-0.189,-0.1962,-0.1941,-0.1883,-0.1877,-0.1856,-0.1801,-0.1797,-0.1797,-0.1797,-0.1797,-0.1797,-0.1797,-0.1792,-0.1732,-0.1613,-0.1439,0.0,0.0,0.0,0.0,0.0,0.0,0.0,0.0,0.0,0.0,0.0,0.0,0.0,0.0,0.0,0.0,0.0,0.0,0.0,0.0,0.0,0.0,0.0,0.0,0.0,0.0,0.0,0.0,1.5334,1.565,0.0,1.6085,1.5112,1.437,1.427,1.4078,1.3805,1.3455,1.4042,1.4084,1.3313,1.3733,1.3773,1.3487,1.3681,1.352,1.2843,1.2843,1.1908,1.0129,1.0118,0.9221,0.7683,0.7647,0.7372,0.7054,0.6946,0.6759,0.6539,0.6485,0.6023,0.5424,0.5146,0.4279,0.3236,0.2696,0.2122,0.1621,0.1369,0.143,0.1555,0.1492,0.1464,0.1454,0.1454,0.1317,0.1184,0.1203,0.0912,0.0534,0.03,-0.0299,-0.0967,-0.117,-0.1447,-0.1711,-0.1663,-0.1451,-0.1256,-0.1158,-0.1456,-0.1628,-0.136,-0.1558,-0.1827,-0.1969,-0.1971,-0.1963,-0.1941,-0.194,-0.1916,-0.1856,-0.1852,-0.1835,-0.18,-0.1797,-0.1797,-0.1797,-0.1797,-0.1777,-0.1733,-0.1613,-0.148,0.0,0.0,0.0,0.0,0.0,0.0,0.0,0.0,0.0,0.0,0.0,0.0,0.0,0.0,0.0,0.0,0.0,0.0,0.0,0.0,0.0,0.0,0.0,0.0,0.0,0.0,1.4378,1.5822,1.6202,1.6431,1.6524,1.5811,1.5247,1.5,1.4815,1.4636,1.437,1.4713,1.461,1.3971,1.4272,1.4241,1.3941,1.4135,1.3754,1.2964,1.2964,1.1811,0.978,0.9602,0.8808,0.7663,0.7476,0.7385,0.7205,0.6837,0.6637,0.6464,0.6373,0.582,0.4964,0.4623,0.377,0.2658,0.2298,0.1785,0.1357,0.1327,0.1318,0.131,0.127,0.1258,0.1258,0.1258,0.1258,0.1181,0.1032,0.0636,0.0237,-0.0231,-0.0919,-0.1602,-0.1801,-0.2081,-0.2364,-0.2364,-0.1969,-0.1667,-0.1684,-0.1871,-0.198,-0.1675,-0.1884,-0.2098,-0.2098,-0.2098,-0.2088,-0.2005,-0.2003,-0.1978,-0.1917,-0.1892,-0.1865,-0.1828,-0.1808,-0.1797,-0.1797,-0.1797,-0.1797,-0.1797,-0.1677,-0.1663,-0.1783,0.0,0.0,0.0,0.0,0.0,0.0,0.0,0.0,0.0,0.0,0.0,0.0,0.0,0.0,0.0,0.0,0.0,0.0,0.0,0.0,0.0,0.0,0.0,1.3422,1.466,1.5636,1.602,1.6208,1.5987,1.5272,1.5313,1.5248,1.4784,1.499,1.4971,1.4558,1.4794,1.4712,1.4314,1.4601,1.4647,1.4442,1.4442,1.4039,1.3296,1.3296,1.2193,1.0084,1.0084,0.9258,0.7969,0.7969,0.7879,0.7506,0.6452,0.5976,0.5954,0.5729,0.5102,0.4115,0.3226,0.2868,0.268,0.1752,0.1391,0.1386,0.1359,0.1267,0.1266,0.1265,0.1265,0.1265,0.1264,0.1263,0.1173,0.0574,0.0326,-0.0,-0.1263,-0.1648,-0.1804,-0.2354,-0.2465,-0.2422,-0.2422,-0.2377,-0.2248,-0.2188,-0.2177,-0.2228,-0.2237,-0.2225,0.0,-0.2224,-0.2223,-0.2199,-0.2137,-0.213,-0.2105,-0.198,-0.1921,-0.1886,-0.1882,-0.183,-0.18,-0.18,-0.18,-0.18,-0.1856,-0.1736,-0.199,-0.2626,0.0,0.0,0.0,0.0,0.0,0.0,0.0,0.0,0.0,0.0,0.0,0.0,0.0,0.0,0.0,0.0,0.0,0.0,0.0,0.0,0.0,0.0,1.4066,1.3888,1.4619,1.5245,1.56,1.5955,1.6049,1.573,1.5761,1.5605,1.5273,1.5083,1.4976,1.4981,1.4993,1.4985,1.4709,1.4792,1.4442,1.3733,1.3733,1.2869,1.1293,1.1293,1.0556,0.9076,0.8889,0.8524,0.7969,0.7785,0.7691,0.7506,0.6452,0.5598,0.4935,0.4786,0.417,0.3296,0.3023,0.2451,0.1792,0.1514,0.1423,0.1422,0.1414,0.1411,0.1407,0.1385,0.1378,0.1374,0.1354,0.0926,0.0504,0.0334,-0.0416,-0.1242,-0.1618,-0.2011,-0.2323,-0.2442,-0.2497,-0.2485,-0.2485,-0.2473,-0.2429,-0.2327,-0.2239,-0.2305,-0.2288,-0.2248,0.0,-0.2219,-0.2181,-0.2214,-0.2197,-0.2195,-0.2171,-0.2107,-0.2085,-0.1976,-0.1887,-0.1867,-0.1858,-0.1858,-0.1858,-0.209,-0.2494,-0.3069,-0.3335,0.0,0.0,0.0,0.0,0.0,0.0,0.0,0.0,0.0,0.0,0.0,0.0,0.0,0.0,0.0,0.0,0.0,0.0,0.0,0.0,0.0,0.0,1.3623,1.4639,1.4352,1.4995,1.5504,1.5411,1.5617,1.5696,1.5541,1.5528,1.5433,1.524,1.5065,1.5036,1.5268,1.5198,1.4905,1.4418,1.4425,1.3931,1.2905,1.2905,1.2221,1.082,1.082,1.0156,0.9024,0.8833,0.8545,0.8257,0.7584,0.7199,0.7006,0.5446,0.4477,0.0,0.0,0.0,0.0,0.0,0.1953,0.1473,0.1473,0.1465,0.1454,0.1454,0.1446,0.1432,0.1414,0.1232,0.0966,0.0955,0.0432,-0.0172,-0.0427,-0.1108,-0.178,-0.2072,-0.2373,-0.2591,-0.2556,-0.2529,-0.2511,-0.2511,-0.2511,0.0,-0.2421,-0.2387,-0.2362,-0.2339,-0.2233,-0.2211,-0.2211,-0.2252,-0.223,-0.223,-0.223,-0.2206,-0.2144,-0.2116,0.0,0.0,0.0,-0.2038,-0.2337,-0.2337,0.0,0.0,0.0,0.0,0.0,0.0,0.0,0.0,-0.4574,-0.4426,0.0,0.0,0.0,0.0,0.0,0.0,0.0,0.0,0.0,0.0,0.0,0.0,0.0,0.0,0.0,0.0,1.4085,1.4866,1.4797,1.5549,1.5816,1.5275,1.5316,1.5237,1.501,1.4961,1.4932,1.4961,1.5065,1.5191,1.5324,0.0,0.0,0.0,0.0,1.3095,1.2131,1.2136,1.1758,1.0979,1.0979,1.0498,0.9628,0.9331,0.9031,0.8627,0.7329,0.6631,0.6137,0.4026,0.3123,0.3013,0.2909,0.2295,0.153,0.1528,0.1526,0.1526,0.1526,0.0,0.0,0.1486,0.1468,0.1354,0.1352,0.09,0.036,0.0269,-0.0269,-0.0982,-0.1577,-0.1744,-0.1996,-0.2546,-0.2661,-0.262,-0.2613,-0.257,-0.2529,-0.2522,-0.252,-0.2519,-0.2512,-0.2466,-0.2413,-0.2362,-0.2349,-0.2345,-0.2345,-0.2339,-0.2335,-0.2335,0.0,0.0,-0.2188,-0.2206,-0.2214,-0.2283,-0.2285,-0.2563,-0.3186,-0.3257,-0.3631,-0.4232,-0.4553,-0.5,-0.5641,-0.587,-0.6252,-0.6761,-0.5179,-0.4951,0.0,0.0,0.0,0.0,0.0,0.0,0.0,0.0,0.0,0.0,0.0,0.0,0.0,0.0,0.0,1.3224,1.4404,1.5085,1.4587,1.4958,1.5052,1.47,1.4849,1.5011,1.4918,1.5138,1.5354,1.5354,1.5426,1.4977,1.4104,1.4027,1.3519,1.2582,1.2587,1.2231,1.14,1.1405,1.0942,0.9916,0.0,0.0,0.9628,0.9331,0.8836,0.8137,0.7232,0.6431,0.5634,0.3927,0.2722,0.1914,0.1872,0.1757,0.156,0.1535,0.1526,0.1526,0.1526,0.1522,0.1517,0.1517,0.1513,0.141,0.0739,0.046,0.0,-0.036,-0.0987,-0.1613,-0.1785,-0.2231,-0.2663,-0.2781,-0.2756,-0.2734,-0.2685,-0.2666,-0.2643,-0.2594,-0.2583,-0.2568,-0.2519,-0.25,-0.2489,-0.2478,-0.2435,-0.2403,-0.2403,-0.2364,-0.2335,-0.2335,-0.2335,-0.2331,-0.2247,-0.2307,-0.2556,-0.3172,-0.3827,-0.4222,-0.4357,-0.5011,-0.5362,-0.5309,-0.6076,-0.646,-0.6487,-0.667,-0.6977,-0.7317,-0.6714,-0.6575,0.0,0.0,0.0,0.0,0.0,0.0,0.0,0.0,0.0,0.0,0.0,1.1403,1.2041,0.0,1.3578,1.3889,1.4617,1.4981,1.4569,1.4472,1.4532,1.4699,1.4822,1.5006,1.5167,1.5307,1.5298,1.4822,1.4623,1.4206,1.3199,1.3032,1.2587,1.1778,1.1788,1.1264,1.04,1.04,1.0109,0.9628,0.9628,0.9628,0.9628,0.9331,0.8737,0.7939,0.6631,0.5529,0.4628,0.3024,0.212,0.1615,0.16,0.1594,0.1592,0.1577,0.1571,0.1571,0.1571,0.1562,0.1549,0.1549,0.1538,0.1428,0.1036,0.0376,-0.0281,-0.0642,-0.1548,-0.2363,-0.234,-0.2604,-0.2867,-0.2835,-0.2805,-0.2775,-0.2744,-0.2714,-0.2683,-0.2653,-0.2647,-0.2636,-0.2606,-0.2576,-0.2545,-0.2515,-0.2485,-0.2465,-0.2465,-0.244,-0.2422,-0.2422,-0.2422,-0.241,-0.238,-0.2352,-0.2466,-0.286,-0.3282,-0.3845,-0.4621,-0.5039,-0.5545,-0.6253,-0.6849,-0.7086,-0.7078,-0.7269,-0.7492,-0.7744,-0.7565,-0.7484,0.0,0.0,0.0,0.0,0.0,0.0,0.0,0.0,1.0946,1.1547,1.219,1.2783,1.3355,1.3986,1.4514,1.4501,1.4635,1.4687,1.4395,1.4006,1.3858,1.4451,1.4614,1.4803,1.5061,1.5106,1.469,1.3755,1.3579,1.3118,1.2336,1.2162,1.1672,1.0877,1.0886,1.0498,0.9628,0.9628,0.9628,0.9628,0.9628,0.9628,0.9628,0.9335,0.8737,0.7739,0.5732,0.4329,0.3423,0.2119,0.1617,0.1617,0.1617,0.1617,0.1617,0.1617,0.1617,0.1617,0.1617,0.16,0.158,0.158,0.1564,0.1446,0.1152,0.0192,-0.0859,-0.1123,-0.204,-0.2947,-0.2902,-0.2883,-0.2875,-0.2875,-0.2837,-0.2801,-0.2801,-0.2762,-0.2725,-0.2713,-0.271,-0.2706,-0.2695,-0.2651,-0.2598,-0.2537,-0.2518,-0.2511,-0.2511,-0.2511,-0.2511,-0.2511,-0.2511,-0.2491,-0.2441,-0.2543,-0.2589,-0.2589,-0.2898,-0.3643,-0.4891,-0.5135,-0.5889,-0.7159,-0.7301,-0.7447,-0.7586,-0.7736,-0.7898,-0.8065,-0.8065,-0.8065,1.0934,1.0718,0.0,1.1824,1.1911,1.2277,0.0,0.0,1.3489,1.4002,1.4212,1.4198,1.3977,1.397,1.414,1.4432,1.4266,1.3973,1.3973,1.3304,1.2886,1.2971,1.3659,1.4099,1.3873,1.3879,1.3447,1.2598,1.2662,1.2341,1.1419,1.1332,1.0863,0.9821,0.9821,0.9723,0.9628,0.9628,0.9628,0.9628,0.9628,0.9628,0.9628,0.9529,0.8733,0.7138,0.4533,0.2826,0.1818,0.1718,0.1617,0.1617,0.1617,0.1617,0.1617,0.1617,0.1617,0.1617,0.1617,0.1615,0.1611,0.1611,0.1609,0.1301,-0.0,-0.0586,-0.0973,-0.2386,-0.2906,-0.2956,-0.2951,-0.2912,-0.2875,-0.2875,-0.2869,-0.2864,-0.2864,-0.2858,-0.2838,-0.2783,-0.2773,-0.2756,-0.2702,-0.2687,-0.2661,-0.2601,-0.2545,-0.2511,-0.2511,-0.2511,-0.2511,-0.2511,-0.2511,-0.2507,-0.25,-0.3189,-0.3647,-0.3647,-0.514,-0.608,-0.6317,-0.7163,-0.7728,-0.7894,-0.7914,-0.7935,-0.7955,-0.7975,-0.8081,-0.826,-0.826,-0.826,1.2481,0.0,0.0,0.0,1.3107,1.3493,1.4212,1.4227,1.414,1.4225,1.4366,1.4531,1.4558,1.4538,1.4489,0.0,1.4289,1.3951,1.3272,1.2614,1.2116,1.2116,1.2076,1.2254,1.2674,1.2791,1.2541,1.1548,1.1706,1.1371,1.0301,1.0306,1.0015,0.9628,0.9628,0.9628,0.9628,0.9628,0.9628,0.9628,0.9628,0.9628,0.9628,0.913,0.773,0.5432,0.3528,0.2322,0.1617,0.1617,0.1617,0.1617,0.1617,0.1617,0.1617,0.1617,0.1617,0.1617,0.1617,0.1617,0.1617,0.1617,0.1313,0.0807,0.01,-0.0698,-0.1588,-0.2239,-0.2697,-0.3056,-0.3021,-0.2993,-0.2967,-0.2932,-0.2924,-0.2914,-0.2882,-0.2875,-0.2867,-0.2841,-0.2837,-0.2828,-0.2803,-0.2768,-0.2736,-0.2711,-0.2655,-0.2616,-0.2616,-0.2616,-0.2616,-0.2616,-0.2616,-0.2616,-0.2616,-0.3426,-0.3993,-0.3993,-0.5173,-0.6188,-0.6678,-0.7065,-0.7514,-0.8012,-0.8012,-0.8065,-0.8174,-0.8174,-0.8268,-0.8455,-0.8552,-0.8597,1.2928,0.0,0.0,1.3343,1.3934,1.4385,1.4148,1.4294,1.4426,1.4388,1.4501,1.459,1.4655,1.4626,1.442,1.4054,1.3761,1.3277,1.2498,1.158,1.1,1.1063,1.0444,1.0289,1.0966,1.1504,1.14,1.0362,1.06,1.0342,0.9624,0.9628,0.9628,0.9628,0.9628,0.9628,0.9628,0.9628,0.9628,0.9628,0.9628,0.9529,0.9229,0.8028,0.6326,0.4126,0.2923,0.2221,0.1818,0.1818,0.1818,0.1818,0.1818,0.1717,0.1617,0.1617,0.1617,0.1617,0.1617,0.1617,0.1617,0.1617,0.101,0.0404,0.0101,-0.0908,-0.2011,-0.2182,-0.266,-0.3129,-0.3086,-0.3061,-0.3133,-0.2993,-0.297,-0.2947,-0.2906,-0.2886,-0.2875,-0.2875,-0.2875,-0.2875,-0.2875,-0.2838,-0.2808,-0.2808,-0.2771,-0.273,-0.2696,-0.2692,-0.2692,-0.2692,-0.2943,-0.3109,-0.3109,-0.3942,-0.4525,-0.4525,-0.5388,-0.6161,-0.6833,-0.7126,-0.7575,-0.8166,-0.8166,-0.8231,-0.8365,-0.8414,-0.8503,-0.8641,-0.8816,-0.8897,0.0,0.0,1.395,1.3802,1.4363,1.4901,1.4887,1.4889,1.4992,1.5313,1.5145,1.4684,1.4116,1.3794,1.3539,1.3085,1.2129,1.1467,1.1724,1.0381,0.9345,0.9336,0.8911,0.8656,0.0,0.9696,0.9981,0.9173,0.9354,0.9538,0.9616,0.9628,0.9628,0.9628,0.9628,0.9628,0.9628,0.9628,0.9628,0.9628,0.9628,0.9229,0.8333,0.6229,0.4726,0.3621,0.2722,0.2422,0.2422,0.2422,0.2422,0.2422,0.2422,0.2019,0.1617,0.1617,0.1617,0.1617,0.1617,0.1617,0.1617,0.1617,0.101,0.0303,-0.0504,-0.131,-0.2118,-0.2925,-0.3086,-0.3139,-0.3138,-0.3093,-0.3143,-0.3141,-0.3001,-0.2958,-0.2956,-0.2913,-0.2875,-0.2875,-0.2875,-0.2875,-0.2875,-0.2873,-0.2871,-0.2871,-0.2869,-0.2826,-0.2707,-0.2692,-0.2692,-0.2692,-0.3526,-0.4026,-0.4026,-0.4941,-0.5441,-0.5441,-0.6401,-0.6991,-0.6994,-0.8016,-0.8552,-0.8552,-0.8552,-0.8552,-0.856,-0.8723,-0.8808,-0.8816,-0.9003,-0.9088,0.0,0.0,1.4198,1.4015,1.4436,1.4959,1.5167,1.527,1.5233,1.5131,1.4853,1.4395,1.362,1.3347,1.2908,1.1825,1.1577,1.1139,1.0197,0.9835,0.9405,0.8681,0.8787,0.0,0.0,0.0,0.0,0.9084,0.9259,0.9433,0.9616,0.9628,0.9628,0.9628,0.9628,0.9628,0.9628,0.9628,0.9628,0.9628,0.9031,0.8432,0.7537,0.5932,0.4728,0.3828,0.3228,0.2927,0.2927,0.2522,0.2422,0.2321,0.2019,0.1717,0.1617,0.1617,0.1617,0.1617,0.1617,0.1617,0.1617,0.1617,0.0707,-0.0403,-0.0706,-0.1714,-0.2826,-0.313,-0.3215,-0.32,-0.32,-0.3184,-0.3159,-0.3119,-0.3094,-0.3068,-0.3027,-0.2971,-0.2931,-0.2931,-0.2901,-0.2875,-0.2875,-0.2875,-0.2875,-0.2875,-0.2875,-0.286,-0.2818,-0.3337,-0.3773,-0.3773,-0.4642,-0.5162,-0.5162,-0.6031,-0.6554,-0.6554,-0.7476,-0.8036,-0.8036,-0.8444,-0.8621,-0.8735,-0.8735,-0.8796,-0.8917,-0.8974,-0.9003,-0.9007,-0.9185,-0.9271,0.0,1.3368,1.3948,1.4145,1.4545,1.5003,1.5213,1.5253,1.5042,1.4446,1.393,1.3269,1.2184,1.1735,1.1267,1.0673,1.0686,1.0473,0.9763,0.9726,0.9513,0.8709,0.8885,0.9007,0.0,0.0,0.0,0.9177,0.9291,0.9433,0.9616,0.9628,0.9628,0.9628,0.9628,0.9628,0.9628,0.9628,0.9426,0.913,0.8333,0.7434,0.6434,0.5331,0.4431,0.3732,0.3331,0.323,0.313,0.2826,0.2623,0.2321,0.2019,0.1818,0.1617,0.1617,0.1617,0.1617,0.1617,0.1617,0.1617,0.1617,0.0504,-0.0806,-0.0806,-0.1916,-0.323,-0.323,-0.323,-0.323,-0.323,-0.323,-0.3221,-0.3181,-0.3155,-0.3129,-0.309,-0.3034,-0.2991,-0.2991,-0.2962,-0.2936,-0.2936,-0.2918,-0.2905,-0.2905,-0.2887,-0.3053,-0.332,-0.3942,-0.4387,-0.4743,-0.563,-0.6163,-0.6163,-0.7054,-0.7676,-0.7676,-0.8267,-0.8658,-0.8658,-0.8723,-0.8808,-0.8917,-0.8917,-0.8978,-0.9096,-0.9161,-0.919,-0.9194,-0.9372,-0.9449,1.2059,1.2735,1.3481,1.4072,1.4606,1.4908,1.4985,1.4803,1.446,1.3432,1.2497,1.1388,0.0,0.0,0.8807,0.9659,0.9421,0.9327,1.0065,0.9998,0.9664,0.0,0.0,0.0,0.0,0.0,0.0,0.9356,0.0,0.9433,0.9616,0.9628,0.9628,0.9628,0.9628,0.9628,0.9628,0.9529,0.913,0.8432,0.7534,0.6434,0.5229,0.4433,0.3732,0.3331,0.3331,0.323,0.323,0.323,0.2927,0.2422,0.2321,0.2019,0.1617,0.1617,0.1617,0.1617,0.1516,0.1516,0.1516,0.1516,0.0404,-0.0907,-0.0907,-0.1917,-0.323,-0.323,-0.323,-0.323,-0.323,-0.323,-0.323,-0.323,-0.3187,-0.3144,-0.3144,-0.3097,-0.3055,-0.3055,-0.3146,-0.3144,-0.3144,-0.3001,-0.2963,-0.2963,-0.3008,-0.3328,-0.4212,-0.4297,-0.4743,-0.563,-0.6615,-0.7153,-0.7153,-0.8051,-0.8597,-0.8597,-0.8743,-0.8836,-0.8836,-0.9003,-0.91,-0.9112,-0.9112,-0.9116,-0.9125,-0.9287,-0.9368,-0.9372,-0.9547,-0.9628,1.2934,1.3194,1.3328,1.3304,1.3049,1.2796,1.3016,1.2753,1.2318,1.2051,1.1162,1.0116,0.0,0.0,0.0,0.8398,0.87,0.0,0.9114,0.9368,0.0,0.0,0.0,0.9441,0.9303,0.9413,0.0,0.0,0.9433,0.9433,0.9616,0.9628,0.9628,0.9628,0.9628,0.9628,0.9628,0.9031,0.863,0.8432,0.6939,0.6139,0.5739,0.4935,0.4533,0.4433,0.4433,0.4133,0.3732,0.3331,0.2927,0.2321,0.1918,0.1717,0.1617,0.1617,0.1617,0.1516,0.0909,0.0707,0.0606,-0.0,-0.0907,-0.1714,-0.1714,-0.2422,-0.323,-0.323,-0.323,-0.323,-0.323,-0.323,-0.323,-0.323,-0.3218,-0.3207,-0.3207,-0.3159,-0.3116,-0.3116,-0.3079,-0.3144,-0.3144,-0.3132,-0.312,-0.312,-0.3668,-0.4171,-0.4316,-0.4921,-0.5719,-0.6609,-0.7688,-0.8391,-0.8391,-0.8699,-0.8962,-0.8962,-0.9003,-0.9027,-0.9027,-0.9072,-0.9157,-0.9287,-0.9287,-0.9356,-0.949,-0.9539,-0.9559,-0.9559,-0.9608,-0.9628,1.2942,1.2965,1.2948,1.2425,1.1997,1.1735,1.1699,1.1444,1.104,1.0141,0.9385,0.0,0.0,0.0,0.0,0.0,0.0,0.0,0.9089,0.9499,0.9631,0.0,0.9506,0.0,0.9486,0.9567,0.9628,0.0,0.9535,0.9518,0.962,0.9628,0.9628,0.9628,0.9628,0.943,0.9031,0.863,0.8035,0.7338,0.6439,0.5842,0.5438,0.5035,0.4834,0.4834,0.0,0.4332,0.3632,0.3331,0.2726,0.2019,0.1718,0.1617,0.1617,0.1818,0.1919,0.1817,0.0606,0.0202,0.0101,-0.0605,-0.131,-0.2017,-0.2017,-0.2522,-0.323,-0.323,-0.323,-0.323,-0.323,-0.323,-0.323,-0.323,-0.323,-0.323,-0.323,-0.3204,-0.318,-0.318,-0.3153,-0.3128,-0.3128,-0.3106,-0.3281,-0.3759,-0.4304,-0.4902,-0.571,-0.6241,-0.6969,-0.7884,-0.8516,-0.8942,-0.8942,-0.9039,-0.9096,-0.9096,-0.9169,-0.921,-0.921,-0.9287,-0.9376,-0.9474,-0.9474,-0.9527,-0.9628,-0.9628,-0.9628,-0.9628,-0.9628,-0.9628,1.2294,1.2277,1.21,1.1322,1.1032,1.0871,1.055,1.0438,0.9873,0.8188,0.0,0.0,0.5893,0.0,0.5785,0.72,0.0,0.848,0.9305,0.9731,0.9844,0.96,0.9628,0.9628,0.9628,0.9628,0.9628,0.9628,0.9628,0.9628,0.9628,0.9628,0.9628,0.9628,0.9628,0.9229,0.8432,0.8333,0.7537,0.6042,0.5942,0.5438,0.4834,0.4734,0.4734,0.4734,0.4634,0.4033,0.313,0.313,0.2625,0.1718,0.1819,0.1819,0.1919,0.2321,0.2422,0.2219,0.0605,-0.0,-0.0202,-0.0907,-0.1613,-0.2118,-0.2118,-0.2623,-0.323,-0.323,-0.323,-0.323,-0.323,-0.323,-0.323,-0.323,-0.323,-0.323,-0.323,-0.323,-0.323,-0.323,-0.323,-0.323,-0.323,-0.3286,-0.3641,-0.4618,-0.4936,-0.5739,-0.7547,-0.7705,-0.8056,-0.9003,-0.912,-0.9133,-0.9133,-0.9153,-0.9169,-0.9169,-0.9307,-0.9388,-0.9388,-0.9543,-0.9628,-0.9628,-0.9628,-0.9628,-0.9628,-0.9628,-0.9628,-0.9628,-0.9628,-0.9628,1.1453,1.095,1.0376,1.0202,0.9573,0.8941,0.8622,0.8178,0.0,0.0,0.0,0.5617,0.5609,0.5597,0.0,0.6776,0.0,0.0,0.0,0.0,0.9181,0.0,0.0,0.0,0.0,0.0,0.0,0.0,0.0,0.9628,0.9628,0.9628,0.9628,0.9628,0.9628,0.9229,0.8432,0.7736,0.6939,0.6042,0.5338,0.4935,0.4834,0.4334,0.4133,0.4133,0.3632,0.0,0.2623,0.3027,0.2826,0.2321,0.2726,0.2928,0.2928,0.3029,0.2826,0.2219,0.0605,-0.0302,-0.0907,-0.232,-0.2927,-0.3027,-0.3027,-0.313,-0.323,-0.323,-0.323,-0.323,-0.323,-0.323,-0.323,-0.323,-0.323,-0.323,-0.323,-0.323,-0.323,-0.323,-0.323,-0.323,-0.323,-0.3922,-0.4612,-0.4712,-0.6281,-0.755,-0.7946,-0.7832,-0.8056,-0.9003,-0.9226,-0.9311,-0.9311,-0.9449,-0.9535,-0.9535,-0.9563,-0.9579,-0.9579,-0.9612,-0.9628,-0.9628,-0.9628,-0.9628,-0.9628,-0.9628,-0.9628,-0.9628,-0.9628,-0.9727,1.1147,1.0627,1.0102,1.0102,0.9285,0.8354,0.793,0.0,0.0,0.0,0.0,0.5069,0.4963,0.0,0.0,0.0,0.0,0.0,0.0,0.0,0.0,0.0,0.0,0.0,0.0,0.0,0.0,0.0,0.0,0.8531,0.8931,0.8928,0.8928,0.8928,0.8928,0.863,0.7733,0.6939,0.6139,0.5338,0.4935,0.4634,0.4332,0.4133,0.3833,0.3632,0.3632,0.333,0.2826,0.343,0.333,0.2826,0.313,0.3029,0.2826,0.313,0.2826,0.2219,0.0605,-0.0202,-0.0706,-0.2623,-0.323,-0.323,-0.323,-0.323,-0.323,-0.323,-0.323,-0.323,-0.323,-0.323,-0.323,-0.323,-0.323,-0.323,-0.323,-0.323,-0.323,-0.323,-0.323,-0.3331,-0.3932,-0.4433,-0.5133,-0.6329,-0.7325,-0.8223,-0.8722,-0.8788,-0.8887,-0.9276,-0.9449,-0.9498,-0.9498,-0.9575,-0.9628,-0.9628,-0.9628,-0.9628,-0.9628,-0.9628,-0.9628,-0.9628,-0.9628,-0.9628,-0.9628,-0.9723,-0.9826,-0.9826,-0.992,-1.0117,1.0624,1.0416,1.0182,1.0182,0.9432,0.8444,0.7812,0.7168,0.0,0.0,0.0,0.4733,0.4398,0.0,0.0,0.0,0.0,0.0,0.0,0.0,0.0,0.0,0.0,0.0,0.0,0.0,0.0,0.0,0.0,0.0,0.8134,0.8134,0.8134,0.8134,0.8134,0.7736,0.6939,0.6342,0.5639,0.4834,0.4734,0.4433,0.4133,0.3932,0.3632,0.3432,0.3732,0.0,0.323,0.3732,0.3732,0.3331,0.3331,0.3128,0.2825,0.3128,0.2826,0.2219,0.0706,0.0101,-0.0504,-0.232,-0.3029,-0.323,-0.323,-0.323,-0.323,-0.323,-0.323,-0.323,-0.323,-0.323,-0.323,-0.323,-0.323,-0.323,-0.323,-0.323,-0.323,-0.323,-0.323,-0.3531,-0.4634,-0.5033,-0.5832,-0.7723,-0.8223,-0.8623,-0.9525,-0.9628,-0.9628,-0.9628,-0.9628,-0.9628,-0.9628,-0.9628,-0.9628,-0.9628,-0.9628,-0.9628,-0.9727,-0.9727,-0.9727,-0.9727,-0.9727,-0.9723,-0.9727,-0.9924,-0.992,-0.992,-1.0117,-1.0314,0.9555,0.9838,0.9979,1.0067,0.9611,0.8869,0.7897,0.0,0.0,0.0,0.4582,0.439,0.4449,0.0,0.0,0.0,0.0,0.0,0.0,0.0,0.0,0.0,0.0,0.0,0.0,0.0,0.0,0.0,0.0,0.0,0.7238,0.7338,0.7338,0.7338,0.7338,0.6939,0.6142,0.6042,0.5639,0.4834,0.4334,0.4334,0.4734,0.3732,0.3531,0.3932,0.3432,0.0,0.0,0.3732,0.3932,0.3932,0.3932,0.3932,0.3831,0.3331,0.2826,0.232,0.1412,0.0302,-0.0907,-0.1815,-0.2623,-0.323,-0.323,-0.323,-0.323,-0.323,-0.323,-0.323,-0.323,-0.323,-0.323,-0.323,-0.323,-0.323,-0.323,-0.323,-0.323,-0.323,-0.323,-0.3531,-0.4634,-0.5629,-0.6623,-0.7822,-0.8825,-0.9525,-0.9628,-0.9628,-0.9628,-0.9628,-0.9628,-0.9628,-0.9628,-0.9628,-0.9628,-0.9628,-0.9628,-0.9727,-0.992,-0.992,-1.0117,-1.0314,-1.0314,-1.0216,-0.992,-1.0019,-0.992,-0.9628,-0.9628,-0.992,0.9766,1.0062,1.0229,1.0848,1.0171,0.9128,0.8279,0.0,0.0,0.5027,0.452,0.4296,0.4369,0.4429,0.0,0.0,0.0,0.0,0.0,0.0,0.0,0.0,0.0,0.0,0.0,0.0,0.0,0.0,0.0,0.0,0.5734,0.6237,0.6439,0.6439,0.6439,0.6342,0.6042,0.5539,0.5135,0.4834,0.4533,0.4435,0.4334,0.3833,0.3632,0.3531,0.3632,0.0,0.0,0.3732,0.3831,0.3531,0.3531,0.333,0.3025,0.2825,0.2423,0.1817,0.1009,0.0101,-0.0907,-0.1714,-0.2522,-0.323,-0.323,-0.323,-0.323,-0.323,-0.323,-0.323,-0.323,-0.323,-0.323,-0.323,-0.323,-0.323,-0.323,-0.323,-0.323,-0.323,-0.323,-0.3731,-0.5429,-0.6124,-0.7021,-0.8722,-0.9327,-0.9628,-0.9628,-0.9628,-0.9628,-0.9628,-0.9628,-0.9628,-0.9628,-0.9723,-0.9821,-0.9821,-1.0019,-1.0117,-1.0216,-1.0216,-1.0314,-1.0413,-1.0413,-1.0314,-1.0216,-1.0413,-1.0413,-1.0314,-1.0511,-1.0703,0.9597,1.0085,1.0433,1.1192,1.034,0.912,0.0,0.0,0.5905,0.4902,0.4487,0.4316,0.4316,0.4378,0.454,0.0,0.0,0.0,0.0,0.0,0.0,0.0,0.0,0.0,0.0,0.0,0.0,0.0,0.0,0.0,0.4834,0.5338,0.5639,0.5639,0.5639,0.5639,0.5639,0.5037,0.4834,0.4834,0.4634,0.4433,0.4234,0.4033,0.3833,0.3432,0.3831,0.0,0.0,0.3632,0.3531,0.323,0.3029,0.2725,0.2422,0.222,0.1919,0.1516,0.0909,0.0101,-0.0907,-0.1412,-0.232,-0.323,-0.323,-0.323,-0.323,-0.323,-0.323,-0.323,-0.323,-0.323,-0.323,-0.323,-0.323,-0.323,-0.323,-0.323,-0.323,-0.323,-0.3432,-0.4232,-0.6124,-0.6623,-0.7521,-0.9324,-0.9628,-0.9628,-0.9628,-0.9628,-0.9628,-0.9628,-0.9628,-0.9628,-0.9628,-0.9826,-0.992,-0.992,-1.0216,-1.0413,-1.0413,-1.0511,-1.0609,-1.0609,-1.0609,-1.0609,-1.0511,-1.0703,-1.0801,-1.0708,-1.09,-1.1194,0.8872,0.9711,1.0363,1.0589,0.9711,0.8623,0.0,0.6609,0.5395,0.4669,0.4402,0.4316,0.4316,0.432,0.4394,0.4747,0.0,0.0,0.0,0.0,0.0,0.0,0.0,0.0,0.0,0.0,0.0,0.0,0.0,0.0,0.4834,0.4834,0.4834,0.4834,0.4834,0.4834,0.4834,0.4834,0.4834,0.4834,0.4234,0.4332,0.4734,0.4234,0.4033,0.4033,0.0,0.3732,0.0,0.323,0.323,0.313,0.2623,0.2422,0.2321,0.1818,0.1617,0.1617,0.1617,0.0505,-0.0806,-0.0806,-0.1916,-0.323,-0.323,-0.323,-0.323,-0.323,-0.323,-0.323,-0.323,-0.323,-0.323,-0.323,-0.323,-0.323,-0.323,-0.323,-0.323,-0.323,-0.4033,-0.5133,-0.6224,-0.7322,-0.8322,-0.9426,-0.9628,-0.9628,-0.9628,-0.9628,-0.9628,-0.9628,-0.9628,-0.9628,-0.9628,-0.9826,-0.992,-0.9628,-1.0117,-1.0413,-1.0413,-1.0609,-1.09,-1.1194,-1.1194,-1.1096,-1.0801,-1.0801,-1.0703,-1.0413,-1.0413,-1.1086,0.7797,0.8333,0.8796,0.8931,0.843,0.7728,0.7174,0.6304,0.5387,0.4669,0.4402,0.4316,0.4316,0.4316,0.4471,0.5028,0.5177,0.0,0.0,0.0,0.0,0.0,0.0,0.0,0.0,0.0,0.0,0.0,0.0,0.0,0.4834,0.4834,0.4834,0.4834,0.4834,0.4834,0.4834,0.4834,0.4834,0.4834,0.4234,0.4133,0.4234,0.3732,0.3432,0.0,0.0,0.3128,0.2724,0.3029,0.3027,0.2623,0.2826,0.2927,0.2927,0.2726,0.2423,0.2018,0.1513,0.0403,-0.0907,-0.1412,-0.232,-0.323,-0.323,-0.323,-0.323,-0.323,-0.323,-0.323,-0.323,-0.323,-0.323,-0.323,-0.323,-0.323,-0.323,-0.323,-0.343,-0.4133,-0.4533,-0.5334,-0.7223,-0.7822,-0.8322,-0.9426,-0.9628,-0.9628,-0.9628,-0.9628,-0.9628,-0.9628,-0.9628,-0.9628,-0.9628,-0.9826,-1.0019,-1.0117,-1.0511,-1.0801,-1.0904,-1.0998,-1.1096,-1.1194,-1.1194,-1.1194,-1.1096,-1.1096,-1.1385,-1.1955,-1.1955,-1.2721,0.0,0.7291,0.7736,0.7754,0.7384,0.6886,0.6439,0.572,0.5046,0.455,0.4353,0.4316,0.4316,0.4316,0.4463,0.5,0.5092,0.0,0.0,0.0,0.0,0.0,0.0,0.0,0.0,0.0,0.0,0.0,0.0,0.0,0.4834,0.4834,0.4834,0.4834,0.4834,0.4834,0.4834,0.4834,0.4834,0.4834,0.4234,0.4033,0.3932,0.343,0.313,0.0,0.0,0.2725,0.0,0.2725,0.2724,0.2422,0.2725,0.2726,0.2625,0.2625,0.2424,0.2019,0.1211,0.0202,-0.0907,-0.1714,-0.2522,-0.323,-0.323,-0.323,-0.323,-0.323,-0.323,-0.323,-0.323,-0.323,-0.323,-0.323,-0.323,-0.323,-0.323,-0.3531,-0.4033,-0.4634,-0.5434,-0.6429,-0.7723,-0.8322,-0.8825,-0.9525,-0.9628,-0.9628,-0.9628,-0.9628,-0.9628,-0.9723,-0.9723,-0.9821,-0.9924,-1.0019,-1.0216,-1.0413,-1.0703,-1.0998,-1.1096,-1.1194,-1.1194,-1.1194,-1.1194,-1.1194,-1.1194,-1.1663,-1.2475,-1.3447,-1.3641,-1.4359,0.0,0.6401,0.6885,0.6934,0.6575,0.613,0.5742,0.5073,0.0,0.4353,0.4316,0.4324,0.4349,0.4344,0.4422,0.4816,0.4889,0.0,0.0,0.0,0.0,0.0,0.0,0.0,0.0,0.0,0.0,0.0,0.0,0.0,0.4834,0.4834,0.4834,0.4834,0.4834,0.4834,0.4834,0.4834,0.4734,0.4734,0.4234,0.3932,0.3831,0.333,0.2826,0.0,0.2422,0.2422,0.2422,0.2422,0.2422,0.2422,0.2422,0.212,0.1718,0.1718,0.1718,0.1515,0.0707,-0.0101,-0.0907,-0.1815,-0.2623,-0.323,-0.323,-0.323,-0.323,-0.323,-0.323,-0.323,-0.323,-0.323,-0.323,-0.323,-0.323,-0.323,-0.3331,-0.4133,-0.4834,-0.5035,-0.6628,-0.8024,-0.8124,-0.8924,-0.9628,-0.9628,-0.9628,-0.9628,-0.9628,-0.9628,-0.9727,-1.0019,-1.0019,-1.0117,-1.0413,-1.0413,-1.0413,-1.0413,-1.0904,-1.1096,-1.0801,-1.1096,-1.1194,-1.1194,-1.1292,-1.1296,-1.1315,-1.2683,-1.3888,-1.4998,-1.5251,-1.5884,0.4482,0.0,0.5023,0.5385,0.5358,0.5259,0.0,0.5199,0.0,0.0,0.0,0.0,0.0,0.0,0.0,0.0,0.0,0.0,0.0,0.0,0.0,0.0,0.0,0.0,0.0,0.0,0.0,0.0,0.0,0.4834,0.4834,0.4834,0.4834,0.4834,0.4834,0.4834,0.4834,0.4834,0.4634,0.4133,0.3632,0.3128,0.2724,0.2623,0.2522,0.2422,0.2422,0.2623,0.3027,0.2522,0.2623,0.3027,0.3027,0.2928,0.2827,0.2827,0.2523,0.2018,0.0605,-0.0302,-0.1008,-0.2422,-0.3029,-0.323,-0.323,-0.323,-0.323,-0.323,-0.323,-0.323,-0.323,-0.323,-0.323,-0.323,-0.323,-0.343,-0.4234,-0.4634,-0.5334,-0.6927,-0.7624,-0.8223,-0.9126,-0.9426,-0.9628,-0.9628,-0.9628,-0.9628,-0.992,-0.992,-1.0019,-1.0314,-1.0314,-1.0413,-1.0703,-1.0511,-1.0511,-1.0708,-1.0801,-1.0998,-1.1096,-1.1194,-1.1194,-1.1194,-1.1965,-1.2433,-1.2709,-1.3848,-1.5066,-1.6281,-1.6347,-1.7109,0.4045,0.4464,0.4865,0.5077,0.5281,0.5397,0.5494,0.0,0.0,0.0,0.0,0.0,0.0,0.0,0.0,0.0,0.0,0.0,0.0,0.0,0.0,0.0,0.0,0.0,0.0,0.0,0.0,0.0,0.0,0.4834,0.4834,0.4834,0.4834,0.4834,0.4834,0.4834,0.4834,0.4533,0.4435,0.4334,0.3531,0.3128,0.3127,0.2623,0.2422,0.2422,0.212,0.2322,0.2826,0.2522,0.2522,0.2826,0.2826,0.2725,0.2424,0.2424,0.2323,0.1817,0.0202,-0.1008,-0.2017,-0.2927,-0.323,-0.323,-0.323,-0.323,-0.323,-0.323,-0.323,-0.323,-0.323,-0.323,-0.323,-0.323,-0.323,-0.3531,-0.4533,-0.5233,-0.6029,-0.7723,-0.8421,-0.8924,-0.9525,-0.9628,-0.9628,-0.9628,-0.9628,-0.9628,-0.9821,-0.9826,-0.992,-1.0314,-1.0413,-1.0609,-1.0998,-1.0806,-1.0801,-1.0998,-1.0998,-1.1096,-1.1194,-1.1194,-1.1389,-1.1868,-1.2546,-1.3445,-1.466,-1.5513,-1.6526,-1.7708,-1.7855,-1.8323,0.4079,0.4804,0.5455,0.5348,0.5649,0.5983,0.0,0.0,0.0,0.0,0.0,0.0,0.0,0.0,0.0,0.0,0.0,0.0,0.0,0.0,0.0,0.0,0.0,0.0,0.0,0.0,0.0,0.0,0.0,0.4834,0.4834,0.4834,0.4834,0.4834,0.4834,0.4834,0.4834,0.4334,0.4334,0.4634,0.3732,0.343,0.3731,0.2925,0.2522,0.2422,0.0,0.0,0.2522,0.2321,0.2422,0.2522,0.2422,0.2221,0.1818,0.1717,0.1616,0.1313,-0.0403,-0.1917,-0.323,-0.323,-0.323,-0.323,-0.323,-0.323,-0.323,-0.323,-0.323,-0.323,-0.323,-0.323,-0.323,-0.323,-0.3331,-0.3732,-0.4834,-0.5927,-0.6921,-0.8024,-0.9023,-0.9628,-0.9628,-0.9628,-0.9628,-0.9628,-0.9628,-0.9628,-0.9628,-0.9727,-0.992,-1.0413,-1.0511,-1.0703,-1.1194,-1.1194,-1.1194,-1.1194,-1.1194,-1.1292,-1.1389,-1.1385,-1.1883,-1.2975,-1.3473,-1.4604,-1.6478,-1.7191,-1.7981,-1.8869,-1.9147,-1.9279,0.4635,0.5402,0.5893,0.5397,0.5662,0.6038,0.0,0.0,0.0,0.0,0.0,0.0,0.0,0.0,0.0,0.0,0.0,0.0,0.0,0.0,0.0,0.0,0.0,0.0,0.0,0.0,0.0,0.0,0.0,0.4834,0.4834,0.4834,0.4834,0.4834,0.4834,0.4834,0.4834,0.4734,0.4533,0.4133,0.3934,0.3429,0.2622,0.2927,0.2826,0.2422,0.0,0.2624,0.3027,0.2121,0.2222,0.3029,0.2623,0.2624,0.2928,0.2423,0.1816,0.1008,-0.1109,-0.2422,-0.323,-0.323,-0.323,-0.323,-0.323,-0.323,-0.323,-0.323,-0.323,-0.323,-0.323,-0.323,-0.323,-0.323,-0.3932,-0.4832,-0.5927,-0.7024,-0.8021,-0.9126,-0.9525,-0.9628,-0.9628,-0.9628,-0.9628,-0.9628,-0.9628,-0.9727,-0.992,-1.0117,-1.0413,-1.0703,-1.09,-1.1096,-1.1194,-1.1194,-1.1194,-1.1194,-1.1194,-1.158,-1.2441,-1.2441,-1.3116,-1.4404,-1.5335,-1.6289,-1.7198,-1.8115,-1.8826,-1.9199,-1.925,-1.9279,0.4517,0.5236,0.5858,0.5695,0.6197,0.6773,0.0,0.0,0.0,0.0,0.0,0.0,0.0,0.0,0.0,0.0,0.0,0.0,0.0,0.0,0.0,0.0,0.0,0.0,0.0,0.0,0.0,0.0,0.0,0.0,0.4834,0.4834,0.4834,0.4834,0.4834,0.4834,0.4834,0.4834,0.4634,0.4435,0.3833,0.343,0.3228,0.2925,0.2623,0.2422,0.0,0.212,0.2323,0.212,0.2121,0.2323,0.2422,0.2119,0.1615,0.0907,0.0202,-0.0706,-0.1613,-0.2522,-0.323,-0.323,-0.323,-0.323,-0.323,-0.323,-0.323,-0.323,-0.323,-0.323,-0.323,-0.323,-0.3331,-0.3932,-0.4433,-0.5233,-0.6924,-0.7621,-0.8322,-0.9426,-0.9628,-0.9628,-0.9628,-0.9628,-0.9628,-0.9628,-0.9628,-0.9727,-0.992,-1.0117,-1.0314,-1.0801,-1.09,-1.0998,-1.1194,-1.1194,-1.1194,-1.1194,-1.1673,-1.2309,-1.2915,-1.3509,-1.4508,-1.5873,-1.6534,-1.7264,-1.8062,-1.8752,-1.9133,-1.9279,-1.9279,-1.9279,0.4497,0.5115,0.576,0.0,0.0,0.0,0.0,0.0,0.0,0.0,0.0,0.0,0.0,0.0,0.0,0.0,0.0,0.0,0.0,0.0,0.0,0.0,0.0,0.0,0.0,0.0,0.0,0.0,0.0,0.0,0.4834,0.4834,0.4834,0.4834,0.4834,0.4834,0.4834,0.4834,0.4734,0.4634,0.3732,0.343,0.363,0.2825,0.2422,0.2321,0.1818,0.1718,0.1818,0.212,0.1918,0.1515,0.1917,0.1412,0.0202,-0.0605,-0.1411,-0.2017,-0.2219,-0.2724,-0.323,-0.323,-0.323,-0.323,-0.323,-0.323,-0.323,-0.323,-0.323,-0.323,-0.323,-0.323,-0.3432,-0.4533,-0.5033,-0.5732,-0.7624,-0.8223,-0.8623,-0.9426,-0.9628,-0.9628,-0.9628,-0.9628,-0.9628,-0.9628,-0.9628,-0.9727,-0.992,-1.0019,-1.0314,-1.0703,-1.0904,-1.1002,-1.1194,-1.1531,-1.1653,-1.1653,-1.2428,-1.321,-1.405,-1.4856,-1.5886,-1.7289,-1.753,-1.8098,-1.8906,-1.9155,-1.9279,-1.9279,-1.9279,-1.9279,0.5114,0.5448,0.5841,0.0,0.0,0.0,0.0,0.0,0.0,0.0,0.0,0.0,0.0,0.0,0.0,0.0,0.0,0.0,0.0,0.0,0.0,0.0,0.0,0.0,0.0,0.0,0.0,0.0,0.0,0.0,0.4834,0.4834,0.4834,0.4834,0.4834,0.4834,0.4834,0.4834,0.4533,0.4033,0.3932,0.3429,0.2521,0.2422,0.2422,0.2321,0.1818,0.1918,0.2321,0.1818,0.1515,0.121,0.131,0.0806,-0.0101,-0.0907,-0.1513,-0.2118,-0.2826,-0.313,-0.323,-0.323,-0.323,-0.323,-0.323,-0.323,-0.323,-0.323,-0.323,-0.323,-0.323,-0.323,-0.3432,-0.4533,-0.5529,-0.6623,-0.7723,-0.8825,-0.9525,-0.9628,-0.9628,-0.9628,-0.9628,-0.9628,-0.9628,-0.9628,-0.9628,-0.9727,-0.992,-1.0216,-1.0511,-1.0806,-1.0998,-1.1198,-1.1194,-1.235,-1.306,-1.306,-1.316,-1.4161,-1.644,-1.6653,-1.7303,-1.8644,-1.8673,-1.8833,-1.9242,-1.9264,-1.9279,-1.9279,-1.9279,-1.9279,0.4829,0.5486,0.0,0.0,0.0,0.0,0.0,0.0,0.0,0.0,0.0,0.0,0.0,0.0,0.0,0.0,0.0,0.0,0.0,0.0,0.0,0.0,0.0,0.0,0.0,0.0,0.0,0.0,0.0,0.0,0.4834,0.4834,0.4834,0.4834,0.4834,0.4834,0.4834,0.4433,0.4234,0.4033,0.4033,0.3632,0.2927,0.2522,0.2422,0.2321,0.1818,0.1718,0.1918,0.1514,0.111,0.0606,-0.0403,-0.1008,-0.131,-0.2118,-0.2522,-0.2826,-0.313,-0.323,-0.323,-0.323,-0.323,-0.323,-0.323,-0.323,-0.323,-0.323,-0.323,-0.323,-0.323,-0.3732,-0.4433,-0.5529,-0.6625,-0.7723,-0.8722,-0.9327,-0.9628,-0.9628,-0.9628,-0.9628,-0.9628,-0.9628,-0.9628,-0.9628,-0.9723,-0.992,-1.0216,-1.0511,-1.0703,-1.0998,-1.11,-1.1541,-1.2355,-1.294,-1.3908,-1.5644,-1.5507,-1.594,-1.7049,-1.7677,-1.8339,-1.9081,-1.9096,-1.9155,-1.9279,-1.9279,-1.9279,-1.9279,-1.9279,-1.9279,0.4856,0.554,0.0,0.0,0.0,0.0,0.0,0.0,0.0,0.0,0.0,0.0,0.0,0.0,0.0,0.0,0.0,0.0,0.0,0.0,0.0,0.0,0.0,0.0,0.0,0.0,0.0,0.0,0.0,0.0,0.0,0.4834,0.4834,0.4834,0.4834,0.4834,0.4834,0.4435,0.4133,0.4033,0.4033,0.3632,0.2927,0.2522,0.2422,0.2321,0.1818,0.1718,0.1818,0.1211,0.0404,-0.0505,-0.1816,-0.2422,-0.2422,-0.3027,-0.323,-0.323,-0.323,-0.323,-0.323,-0.323,-0.323,-0.323,-0.323,-0.323,-0.323,-0.323,-0.343,-0.3732,-0.3732,-0.4234,-0.5133,-0.6523,-0.7422,-0.8322,-0.9327,-0.9628,-0.9628,-0.9628,-0.9628,-0.9628,-0.9628,-0.9628,-0.9628,-0.9727,-0.992,-1.0117,-1.0511,-1.0708,-1.0927,-1.1288,-1.1647,-1.2338,-1.319,-1.407,-1.5279,-1.7203,-1.7435,-1.7673,-1.7888,-1.8628,-1.9052,-1.9272,-1.9279,-1.9279,-1.9279,-1.9279,-1.9279,-1.9279,-1.9279,-1.9279,0.5373,0.0,0.0,0.0,0.0,0.0,0.0,0.0,0.0,0.0,0.0,0.0,0.0,0.0,0.0,0.0,0.0,0.0,0.0,0.0,0.0,0.0,0.0,0.0,0.0,0.0,0.0,0.0,0.0,0.0,0.0,0.4834,0.4834,0.4834,0.4834,0.4834,0.4834,0.4834,0.4533,0.4033,0.4033,0.3429,0.2422,0.2422,0.2422,0.2321,0.1818,0.1918,0.2321,0.0909,-0.0606,-0.2118,-0.2927,-0.323,-0.323,-0.323,-0.323,-0.323,-0.323,-0.323,-0.323,-0.323,-0.323,-0.323,-0.323,-0.323,-0.323,-0.323,-0.3932,-0.4834,-0.4834,-0.4834,-0.5334,-0.7524,-0.8021,-0.8322,-0.9327,-0.9628,-0.9628,-0.9628,-0.9628,-0.9628,-0.9628,-0.9628,-0.9727,-0.992,-1.0019,-1.0216,-1.0708,-1.0806,-1.0987,-1.1496,-1.271,-1.3556,-1.3556,-1.5831,-1.7333,-1.734,-1.8565,-1.9279,-1.9279,-1.9279,-1.9279,-1.9279,-1.9279,-1.9279,-1.9279,-1.9279,-1.9279,-1.9279,-1.9279,-1.9279,0.5373,0.0,0.0,0.0,0.0,0.0,0.0,0.0,0.0,0.0,0.0,0.0,0.0,0.0,0.0,0.0,0.0,0.0,0.0,0.0,0.0,0.0,0.0,0.0,0.0,0.0,0.0,0.0,0.0,0.0,0.0,0.4834,0.4834,0.4834,0.4834,0.4834,0.4834,0.4435,0.4133,0.4033,0.3632,0.3229,0.2927,0.2522,0.2422,0.232,0.1212,0.0808,0.0908,-0.0706,-0.1917,-0.2826,-0.313,-0.323,-0.323,-0.323,-0.323,-0.323,-0.323,-0.323,-0.323,-0.323,-0.323,-0.323,-0.323,-0.323,-0.3331,-0.4133,-0.4533,-0.5133,-0.6628,-0.7027,-0.7226,-0.7822,-0.8623,-0.9225,-0.9529,-0.9628,-0.9628,-0.9628,-0.9628,-0.9628,-0.9628,-0.9628,-0.9727,-0.992,-1.0117,-1.0852,-1.2272,-1.181,-1.1993,-1.3914,-1.3711,-1.4231,-1.6055,-1.6869,-1.7736,-1.869,-1.9117,-1.9279,-1.9279,-1.9279,-1.9279,-1.9279,-1.9279,-1.9279,-1.9279,-1.9279,-1.9279,-1.9279,-1.9279,-1.9279,0.0,0.0,0.0,0.0,0.0,0.0,0.0,0.0,0.0,0.0,0.0,0.0,0.0,0.0,0.0,0.0,0.0,0.0,0.0,0.0,0.0,0.0,0.0,0.0,0.0,0.0,0.0,0.0,0.0,0.0,0.0,0.4834,0.4834,0.4834,0.4834,0.4834,0.4834,0.4433,0.4234,0.4033,0.3432,0.313,0.2826,0.2522,0.2118,0.1514,0.0404,-0.0303,-0.0606,-0.1614,-0.2522,-0.323,-0.323,-0.323,-0.323,-0.323,-0.323,-0.323,-0.323,-0.323,-0.323,-0.323,-0.3247,-0.3267,-0.3267,-0.3588,-0.4121,-0.4735,-0.5653,-0.6559,-0.7824,-0.8414,-0.87,-0.8638,-0.9126,-0.9628,-0.9628,-0.9628,-0.9628,-0.9628,-0.9628,-0.9628,-0.9628,-0.9628,-0.9727,-0.992,-1.0766,-1.188,-1.31,-1.3217,-1.3534,-1.4487,-1.4912,-1.5768,-1.7295,-1.7826,-1.8433,-1.9264,-1.9279,-1.9279,-1.9279,-1.9279,-1.9279,-1.9279,-1.9279,-1.9279,-1.9279,-1.9279,-1.9279,-1.9279,-1.9279,-1.9279,0.0,0.0,0.0,0.0,0.0,0.0,0.0,0.0,0.0,0.0,0.0,0.0,0.0,0.0,0.0,0.0,0.0,0.0,0.0,0.0,0.0,0.0,0.0,0.0,0.0,0.0,0.0,0.0,0.0,0.0,0.0,0.4834,0.4834,0.4834,0.4834,0.4834,0.4834,0.4834,0.4535,0.3932,0.343,0.2826,0.222,0.222,0.1514,0.0101,-0.0605,-0.1411,-0.2118,-0.2118,-0.2522,-0.323,-0.323,-0.323,-0.323,-0.323,-0.323,-0.323,-0.323,-0.3234,-0.3238,-0.3238,-0.3281,-0.333,-0.333,-0.4201,-0.5206,-0.5312,-0.689,-0.8539,-0.8497,-0.9173,-0.9843,-0.9669,-0.9628,-0.9628,-0.9628,-0.9628,-0.9628,-0.9628,-0.9628,-0.9632,-0.9648,-0.9652,-0.9756,-1.0164,-1.1696,-1.3105,-1.3755,-1.47,-1.5059,-1.4344,-1.6249,-1.7687,-1.7793,-1.8743,-1.9279,-1.9279,-1.9279,-1.9279,-1.9279,-1.9279,-1.9279,-1.9279,-1.9279,-1.9279,-1.9279,-1.9279,-1.9279,-1.9279,-1.9279,-1.9294,0.0,0.0,0.0,0.0,0.0,0.0,0.0,0.0,0.0,0.0,0.0,0.0,0.0,0.0,0.0,0.0,0.0,0.0,0.0,0.0,0.0,0.0,0.0,0.0,0.0,0.0,0.0,0.0,0.0,0.0,0.4834,0.4834,0.4834,0.4834,0.4834,0.4834,0.4834,0.4834,0.4334,0.3331,0.323,0.2322,0.0808,0.0808,-0.0,-0.1513,-0.1714,-0.2219,-0.2927,-0.2927,-0.3029,-0.323,-0.323,-0.323,-0.323,-0.323,-0.323,-0.323,-0.323,-0.3262,-0.3301,-0.3301,-0.3343,-0.3392,-0.3392,-0.4244,-0.5415,-0.626,-0.7521,-0.8748,-0.9415,-0.9681,-0.9843,-0.9669,-0.9628,-0.9628,-0.9628,-0.9628,-0.9628,-0.9628,-0.9628,-0.9669,-0.9807,-0.9827,-1.0378,-1.1851,-1.2832,-1.4066,-1.617,-1.5116,-1.5228,-1.7866,-1.7857,-1.8003,-1.8855,-1.9168,-1.9279,-1.9279,-1.9279,-1.9279,-1.9279,-1.9279,-1.9279,-1.9279,-1.9279,-1.9279,-1.9279,-1.9279,-1.9279,-1.9279,-1.9279,-1.9411,0.0,0.0,0.0,0.0,0.0,0.0,0.0,0.0,0.0,0.0,0.0,0.0,0.0,0.0,0.0,0.0,0.0,0.0,0.0,0.0,0.0,0.0,0.0,0.0,0.0,0.0,0.0,0.0,0.0,0.4834,0.4834,0.4834,0.4834,0.4834,0.4834,0.4834,0.4834,0.4533,0.3828,0.2621,0.232,0.121,-0.0706,-0.0706,-0.1211,-0.2017,-0.2422,-0.2826,-0.323,-0.323,-0.323,-0.323,-0.323,-0.323,-0.323,-0.323,-0.323,-0.323,-0.323,-0.327,-0.3322,-0.3322,-0.3382,-0.356,-0.4097,-0.5196,-0.6307,-0.7498,-0.8686,-0.9724,-1.0088,-1.0148,-1.0103,-0.9925,-0.975,-0.9628,-0.9628,-0.9628,-0.9628,-0.9628,-0.9693,-0.9778,-0.9868,-1.0556,-1.1797,-1.4082,-1.4847,-1.5663,-1.7204,-1.6808,-1.6971,-1.8304,-1.8429,-1.8639,-1.9279,-1.9279,-1.9279,-1.9279,-1.9279,-1.9279,-1.9279,-1.9279,-1.9279,-1.9279,-1.9279,-1.9279,-1.9279,-1.9279,-1.9279,-1.9279,-1.9279,-1.9447,0.0,0.0,0.0,0.0,0.0,0.0,0.0,0.0,0.0,0.0,0.0,0.0,0.0,0.0,0.0,0.0,0.0,0.0,0.0,0.0,0.0,0.0,0.0,0.0,0.0,0.0,0.0,0.0,0.0,0.4834,0.4834,0.4834,0.4834,0.4834,0.4834,0.4834,0.4834,0.4131,0.3224,0.2013,0.1108,-0.0302,-0.2017,-0.2118,-0.2219,-0.2219,-0.2927,-0.323,-0.323,-0.323,-0.323,-0.323,-0.323,-0.323,-0.323,-0.323,-0.323,-0.323,-0.323,-0.3278,-0.3337,-0.3337,-0.3522,-0.4058,-0.5041,-0.6296,-0.7584,-0.8589,-0.9809,-1.0651,-1.0481,-1.0436,-1.0387,-1.0205,-0.9937,-0.9721,-0.9721,-0.9721,-0.9721,-0.9721,-1.0058,-1.0382,-1.0382,-1.1854,-1.3914,-1.6226,-1.6782,-1.7184,-1.7864,-1.8534,-1.8743,-1.8003,-1.8743,-1.9279,-1.9279,-1.9279,-1.9279,-1.9279,-1.9279,-1.9279,-1.9279,-1.9279,-1.9279,-1.9279,-1.9279,-1.9279,-1.9279,-1.9279,-1.9279,-1.9279,-1.933,-1.9535,0.0,0.0,0.0,0.0,0.0,0.0,0.0,0.0,0.0,0.0,0.0,0.0,0.0,0.0,0.0,0.0,0.0,0.0,0.0,0.0,0.0,0.0,0.0,0.0,0.0,0.0,0.0,0.0,0.4834,0.4834,0.4834,0.4834,0.4834,0.4834,0.4834,0.4834,0.4834,0.3626,0.2618,0.2012,-0.0403,-0.1714,-0.2017,-0.2725,-0.3029,-0.3029,-0.313,-0.323,-0.323,-0.323,-0.323,-0.323,-0.323,-0.323,-0.323,-0.323,-0.323,-0.323,-0.323,-0.3305,-0.3401,-0.3401,-0.4237,-0.5131,-0.5353,-0.6911,-0.8699,-0.8813,-0.9809,-1.0651,-1.0481,-1.0436,-1.0387,-1.0205,-1.0128,-1.0091,-1.0091,-1.0091,-1.0091,-1.0091,-1.1263,-1.2231,-1.2231,-1.4616,-1.6603,-1.6963,-1.7298,-1.785,-1.8952,-1.8325,-1.8115,-1.8959,-1.9168,-1.9279,-1.9279,-1.9279,-1.9279,-1.9279,-1.9279,-1.9279,-1.9279,-1.9279,-1.9279,-1.9279,-1.9279,-1.9279,-1.9279,-1.9279,-1.9279,-1.9286,-1.9572,-1.9864,0.0,0.0,0.0,0.0,0.0,0.0,0.0,0.0,0.0,0.0,0.0,0.0,0.0,0.0,0.0,0.0,0.0,0.0,0.0,0.0,0.0,0.0,0.0,0.0,0.0,0.0,0.0,0.0,0.4834,0.4834,0.4834,0.4834,0.4834,0.4834,0.423,0.3929,0.3929,0.2316,0.0907,-0.0302,-0.1916,-0.2623,-0.2724,-0.3029,-0.323,-0.323,-0.323,-0.323,-0.323,-0.323,-0.323,-0.323,-0.323,-0.323,-0.323,-0.323,-0.323,-0.3236,-0.327,-0.3339,-0.3524,-0.4199,-0.4939,-0.5592,-0.6924,-0.8036,-0.9034,-0.9695,-1.0249,-1.0676,-1.0599,-1.0578,-1.0558,-1.0477,-1.0461,-1.0461,-1.0461,-1.0302,-1.0193,-1.0294,-1.0899,-1.1829,-1.3433,-1.4921,-1.6387,-1.7891,-1.8325,-1.8743,-1.9272,-1.8848,-1.8743,-1.9279,-1.9279,-1.9279,-1.9279,-1.9279,-1.9279,-1.9279,-1.9279,-1.9279,-1.9279,-1.9279,-1.9279,-1.9279,-1.9279,-1.9279,-1.9279,-1.9279,-1.9367,-1.955,-1.9696,-2.0033,0.0,0.0,0.0,0.0,0.0,0.0,0.0,0.0,0.0,0.0,0.0,0.0,0.0,0.0,0.0,0.0,0.0,0.0,0.0,0.0,0.0,0.0,0.0,0.0,0.0,0.0,0.0,0.0,0.4834,0.4834,0.4834,0.4834,0.4634,0.4431,0.3626,0.3022,0.2821,0.1008,-0.0706,-0.232,-0.2927,-0.323,-0.323,-0.323,-0.323,-0.323,-0.323,-0.323,-0.323,-0.323,-0.323,-0.323,-0.323,-0.323,-0.323,-0.323,-0.324,-0.326,-0.3613,-0.3788,-0.4082,-0.532,-0.5953,-0.6594,-0.8367,-0.914,-0.9585,-1.0468,-1.0692,-1.0692,-1.0692,-1.0692,-1.0692,-1.0692,-1.0692,-1.0692,-1.0692,-1.0485,-1.0339,-1.0473,-1.1031,-1.2135,-1.4223,-1.5423,-1.6599,-1.8653,-1.9182,-1.9279,-1.9279,-1.9279,-1.9279,-1.9279,-1.9279,-1.9279,-1.9279,-1.9279,-1.9279,-1.9279,-1.9279,-1.9279,-1.9279,-1.9279,-1.9279,-1.9279,-1.9279,-1.9279,-1.9279,-1.936,-1.9528,-1.9769,-1.993,-2.0259,0.0,0.0,0.0,0.0,0.0,0.0,0.0,0.0,0.0,0.0,0.0,0.0,0.0,0.0,0.0,0.0,0.0,0.0,0.0,0.0,0.0,0.0,0.0,0.0,0.0,0.0,0.0,0.0,0.4834,0.4834,0.4834,0.4834,0.4331,0.3324,0.3224,0.272,0.1714,0.0101,-0.1513,-0.313,-0.323,-0.323,-0.323,-0.323,-0.323,-0.323,-0.323,-0.323,-0.323,-0.323,-0.323,-0.323,-0.323,-0.323,-0.323,-0.323,-0.3267,-0.342,-0.4656,-0.5079,-0.5445,-0.6634,-0.781,-0.8699,-0.8813,-0.9695,-1.0582,-1.0692,-1.0692,-1.0692,-1.0692,-1.0692,-1.0692,-1.0692,-1.0692,-1.0692,-1.0692,-1.0676,-1.0668,-1.0676,-1.2729,-1.4454,-1.4572,-1.6829,-1.8757,-1.8876,-1.9182,-1.9279,-1.9279,-1.9279,-1.9279,-1.9279,-1.9279,-1.9279,-1.9279,-1.9279,-1.9279,-1.9279,-1.9279,-1.9279,-1.9279,-1.9279,-1.9279,-1.9279,-1.9279,-1.9279,-1.9279,-1.9586,-1.9747,-1.9777,-2.0391,-2.0691,0.0,0.0,0.0,0.0,0.0,0.0,0.0,0.0,0.0,0.0,0.0,0.0,0.0,0.0,0.0,0.0,0.0,0.0,0.0,0.0,0.0,0.0,0.0,0.0,0.0,0.0,0.0,0.0,0.0,0.4777,0.483,0.413,0.3626,0.3224,0.1913,0.0504,-0.0907,-0.1714,-0.2422,-0.323,-0.323,-0.323,-0.323,-0.323,-0.323,-0.323,-0.323,-0.323,-0.323,-0.323,-0.323,-0.323,-0.323,-0.323,-0.323,-0.323,-0.3647,-0.4391,-0.4908,-0.562,-0.645,-0.7795,-0.8543,-0.9034,-0.9809,-1.0359,-1.0692,-1.0692,-1.0692,-1.0692,-1.0692,-1.0692,-1.0692,-1.0692,-1.0692,-1.0692,-1.0692,-1.0692,-1.0907,-1.1664,-1.2526,-1.3814,-1.5636,-1.681,-1.7891,-1.8959,-1.9279,-1.9279,-1.9279,-1.9279,-1.9279,-1.9279,-1.9279,-1.9279,-1.9279,-1.9279,-1.9279,-1.9279,-1.9279,-1.9279,-1.9279,-1.9279,-1.9279,-1.9279,-1.9279,-1.9279,-1.9279,-1.9608,-1.9872,-2.0077,-2.0516,-2.0837,0.0,0.0,0.0,0.0,0.0,0.0,0.0,0.0,0.0,0.0,0.0,0.0,0.0,0.0,0.0,0.0,0.0,0.0,0.0,0.0,0.0,0.0,0.0,0.0,0.0,0.0,0.0,0.0,0.0,0.0,0.4285,0.3592,0.2802,0.2115,0.0302,-0.1211,-0.2221,-0.2624,-0.2927,-0.3029,-0.313,-0.323,-0.323,-0.323,-0.323,-0.323,-0.323,-0.323,-0.323,-0.323,-0.323,-0.323,-0.323,-0.323,-0.323,-0.323,-0.3846,-0.4898,-0.557,-0.6497,-0.7627,-0.9057,-0.9475,-0.9695,-1.0468,-1.0692,-1.0692,-1.0692,-1.0692,-1.0692,-1.0692,-1.0692,-1.0692,-1.0692,-1.1017,-1.1232,-1.1232,-1.1232,-1.1446,-1.22,-1.3063,-1.4352,-1.628,-1.7028,-1.7779,-1.8959,-1.9279,-1.9279,-1.9279,-1.9279,-1.9279,-1.9279,-1.9279,-1.9279,-1.9279,-1.9279,-1.9279,-1.9279,-1.9279,-1.9279,-1.9279,-1.9279,-1.9279,-1.9279,-1.9279,-1.9279,-1.9279,-1.9711,-2.0033,-2.0245,-2.0684,-2.1006,0.0,0.0,0.0,0.0,0.0,0.0,0.0,0.0,0.0,0.0,0.0,0.0,0.0,0.0,0.0,0.0,0.0,0.0,0.0,0.0,0.0,0.0,0.0,0.0,0.0,0.0,0.0,0.0,0.4569,0.4126,0.3127,0.3034,0.2073,-0.0,-0.1312,-0.2022,-0.2022,-0.2524,-0.2826,-0.2826,-0.3029,-0.323,-0.323,-0.323,-0.323,-0.323,-0.323,-0.323,-0.323,-0.323,-0.323,-0.323,-0.323,-0.323,-0.323,-0.323,-0.3975,-0.5175,-0.6532,-0.7821,-0.8928,-1.0292,-1.0688,-1.0692,-1.0692,-1.0692,-1.0692,-1.0692,-1.0692,-1.0692,-1.0692,-1.0692,-1.0692,-1.0692,-1.1555,-1.2417,-1.2417,-1.2413,-1.2526,-1.2526,-1.4572,-1.6293,-1.6405,-1.7793,-1.8869,-1.8869,-1.9175,-1.9279,-1.9279,-1.9279,-1.9279,-1.9279,-1.9279,-1.9279,-1.9279,-1.9279,-1.9279,-1.9279,-1.9279,-1.9279,-1.9279,-1.9279,-1.9279,-1.9279,-1.9279,-1.9279,-1.9279,-1.9916,-2.0223,-2.0237,-2.0896,-2.1203,0.5017,0.0,0.0,0.0,0.0,0.0,0.0,0.0,0.0,0.0,0.0,0.0,0.0,0.0,0.0,0.0,0.0,0.0,0.0,0.0,0.0,0.0,0.0,0.0,0.0,0.0,0.0,0.0,0.4473,0.404,0.316,0.1651,0.0198,-0.111,-0.1917,-0.2322,-0.2322,-0.2826,-0.313,-0.313,-0.313,-0.323,-0.323,-0.323,-0.323,-0.323,-0.323,-0.323,-0.323,-0.323,-0.323,-0.323,-0.323,-0.3632,-0.4334,-0.4334,-0.5548,-0.7199,-0.7747,-0.8723,-0.9836,-1.0337,-1.059,-1.0692,-1.0692,-1.0692,-1.0692,-1.0692,-1.0692,-1.0692,-1.0692,-1.0692,-1.0692,-1.0692,-1.1555,-1.2417,-1.2417,-1.3922,-1.5215,-1.5215,-1.5755,-1.6723,-1.801,-1.8548,-1.8974,-1.9175,-1.9279,-1.9279,-1.9279,-1.9279,-1.9279,-1.9279,-1.9279,-1.9279,-1.9279,-1.9279,-1.9279,-1.9279,-1.9279,-1.9279,-1.9279,-1.9279,-1.9279,-1.9279,-1.9279,-1.9279,-1.9279,-1.9689,-1.9894,-1.9908,-2.0559,-2.0984,0.0,0.0,0.0,0.0,0.0,0.0,0.0,0.0,0.0,0.0,0.0,0.0,0.0,0.0,0.0,0.0,0.0,0.0,0.0,0.0,0.0,0.0,0.0,0.0,0.0,0.43,0.432,0.4375,0.4014,0.322,0.1877,0.0193,-0.0986,-0.1597,-0.2111,-0.2321,-0.2221,-0.2827,-0.313,-0.3029,-0.313,-0.323,-0.323,-0.323,-0.323,-0.323,-0.323,-0.323,-0.323,-0.323,-0.323,-0.323,-0.3732,-0.4234,-0.4834,-0.5331,-0.6528,-0.8045,-0.8201,-0.9179,-1.0193,-1.0375,-1.055,-1.0692,-1.0692,-1.0692,-1.0692,-1.0692,-1.0692,-1.0692,-1.0692,-1.1017,-1.1446,-1.1446,-1.263,-1.3922,-1.403,-1.5648,-1.6836,-1.6399,-1.6935,-1.7694,-1.8764,-1.8974,-1.9071,-1.9279,-1.9279,-1.9279,-1.9279,-1.9279,-1.9279,-1.9279,-1.9279,-1.9279,-1.9279,-1.9279,-1.9279,-1.9279,-1.9279,-1.9279,-1.9279,-1.9279,-1.9279,-1.9279,-1.9279,-1.9279,-1.9279,-1.9608,-1.9828,-1.9974,-2.0486,-2.0823,0.0,0.0,0.0,0.0,0.0,0.0,0.6923,0.6761,0.0,0.0,0.0,0.0,0.0,0.0,0.0,0.0,0.0,0.0,0.0,0.0,0.0,0.0,0.0,0.0,0.4283,0.4285,0.4287,0.4297,0.3314,0.1989,0.0277,-0.0959,-0.1568,-0.1571,-0.2099,-0.2322,-0.2021,-0.2827,-0.313,-0.2826,-0.313,-0.323,-0.323,-0.323,-0.323,-0.323,-0.323,-0.323,-0.323,-0.3331,-0.3331,-0.3432,-0.4435,-0.4935,-0.5233,-0.6224,-0.7223,-0.8244,-0.8383,-0.9168,-1.0188,-1.0351,-1.0538,-1.0692,-1.0692,-1.0692,-1.0692,-1.0692,-1.0692,-1.0692,-1.0907,-1.166,-1.2413,-1.2521,-1.4245,-1.5968,-1.6293,-1.7259,-1.7799,-1.6829,-1.7799,-1.8876,-1.8974,-1.9175,-1.9279,-1.9279,-1.9279,-1.9279,-1.9279,-1.9279,-1.9279,-1.9279,-1.9279,-1.9279,-1.9279,-1.9279,-1.9279,-1.9279,-1.9279,-1.9279,-1.9279,-1.9279,-1.9279,-1.9279,-1.9279,-1.9279,-1.9279,-1.9572,-1.9872,-2.0186,-2.0479,-2.0655,0.0,0.0,0.0,0.0,0.0,0.0,0.0,0.6269,0.0,0.0,0.0,0.0,0.0,0.0,0.0,0.0,0.0,0.0,0.0,0.0,0.0,0.0,0.0,0.0,0.4191,0.4197,0.4226,0.4293,0.2685,0.1536,0.1107,-0.0568,-0.1547,-0.157,-0.2099,-0.2422,-0.2321,-0.2928,-0.313,-0.313,-0.313,-0.323,-0.323,-0.323,-0.323,-0.323,-0.323,-0.323,-0.323,-0.4133,-0.4533,-0.4535,-0.4734,-0.5832,-0.7425,-0.7621,-0.8322,-0.9331,-0.9367,-0.9685,-1.0168,-1.0205,-1.0432,-1.0692,-1.0692,-1.0692,-1.0692,-1.0692,-1.0692,-1.0907,-1.1878,-1.22,-1.263,-1.3599,-1.4888,-1.5968,-1.6293,-1.7358,-1.8325,-1.8331,-1.866,-1.8974,-1.9175,-1.9279,-1.9279,-1.9279,-1.9279,-1.9279,-1.9279,-1.9279,-1.9279,-1.9279,-1.9279,-1.9279,-1.9279,-1.9279,-1.9279,-1.9279,-1.9279,-1.9279,-1.9279,-1.9279,-1.9279,-1.9279,-1.9279,-1.9279,-1.9279,-1.9345,-1.9535,-1.9857,-1.9923,-2.023,0.0,0.0,0.0,0.7107,0.0,0.0,0.0,0.0,0.0,0.0,0.0,0.0,0.0,0.0,0.0,0.0,0.0,0.0,0.0,0.0,0.0,0.0,0.0,0.0,0.4032,0.4079,0.3966,0.352,0.2224,0.1169,0.0727,-0.0743,-0.1517,-0.1548,-0.2069,-0.2398,-0.2422,-0.2927,-0.323,-0.323,-0.323,-0.323,-0.323,-0.323,-0.323,-0.323,-0.323,-0.3531,-0.4033,-0.4533,-0.5432,-0.6429,-0.6429,-0.7027,-0.8021,-0.8623,-0.9126,-0.9628,-0.9628,-0.9864,-1.016,-1.016,-1.04,-1.0692,-1.0692,-1.0692,-1.0692,-1.0692,-1.1122,-1.166,-1.22,-1.3275,-1.4352,-1.5001,-1.6074,-1.7047,-1.7477,-1.8115,-1.875,-1.9071,-1.9078,-1.9175,-1.9279,-1.9279,-1.9279,-1.9279,-1.9279,-1.9279,-1.9279,-1.9279,-1.9279,-1.9279,-1.9279,-1.9279,-1.9279,-1.9279,-1.9279,-1.9279,-1.9279,-1.9279,-1.9279,-1.9279,-1.9279,-1.9279,-1.9279,-1.9279,-1.9279,-1.9279,-1.936,-1.952,-1.9689,-2.0018,0.0,0.0,0.0,0.0,0.0,0.7563,0.0,0.0,0.0,0.0,0.0,0.0,0.0,0.0,0.0,0.0,0.0,0.0,0.0,0.0,0.0,0.0,0.0,0.0,0.0,0.3914,0.359,0.2752,0.1825,0.0879,0.0089,-0.0913,-0.1492,-0.1517,-0.2036,-0.2371,-0.2407,-0.2922,-0.313,-0.323,-0.323,-0.323,-0.323,-0.323,-0.323,-0.323,-0.343,-0.4033,-0.4834,-0.5233,-0.6429,-0.8021,-0.8021,-0.812,-0.8425,-0.9327,-0.9628,-0.9628,-0.9628,-0.9864,-1.016,-1.016,-1.04,-1.0692,-1.0692,-1.0692,-1.0802,-1.1017,-1.1664,-1.2521,-1.2955,-1.446,-1.5968,-1.6511,-1.7371,-1.8122,-1.8764,-1.8869,-1.8974,-1.9279,-1.9279,-1.9279,-1.9279,-1.9279,-1.9279,-1.9279,-1.9279,-1.9279,-1.9279,-1.9279,-1.9279,-1.9279,-1.9279,-1.9279,-1.9279,-1.9279,-1.9279,-1.9279,-1.9279,-1.9279,-1.9279,-1.9279,-1.9279,-1.9279,-1.9279,-1.9279,-1.9279,-1.9279,-1.9279,-1.9286,-1.955,-1.9842,0.0,0.0,0.0,0.0,0.8514,0.0,0.0,0.0,0.0,0.0,0.0,0.0,0.0,0.0,0.0,0.0,0.0,0.0,0.0,0.0,0.0,0.0,0.0,0.0,0.0,0.3667,0.3383,0.2851,0.1627,0.0654,-0.0,-0.0996,-0.1483,-0.1485,-0.1831,-0.2162,-0.2361,-0.2702,-0.2927,-0.323,-0.323,-0.323,-0.323,-0.323,-0.323,-0.323,-0.4234,-0.4734,-0.4935,-0.6828,-0.7822,-0.8021,-0.8021,-0.8623,-0.9426,-0.9529,-0.9628,-0.9628,-0.9628,-0.9864,-1.016,-1.016,-1.04,-1.0692,-1.0692,-1.0692,-1.0907,-1.1878,-1.2309,-1.2847,-1.5001,-1.5755,-1.6187,-1.7477,-1.7911,-1.8122,-1.8764,-1.8869,-1.8974,-1.9279,-1.9279,-1.9279,-1.9279,-1.9279,-1.9279,-1.9279,-1.9279,-1.9279,-1.9279,-1.9279,-1.9279,-1.9279,-1.9279,-1.9279,-1.9279,-1.9279,-1.9279,-1.9279,-1.9279,-1.9279,-1.9279,-1.9279,-1.9279,-1.9279,-1.9279,-1.9279,-1.9279,-1.9279,-1.9279,-1.9279,-1.9316,-1.9506,0.0,0.0,0.0,0.0,0.0,0.0,0.7316,0.0,0.7192,0.0,0.0,0.0,0.0,0.0,0.0,0.0,0.0,0.0,0.0,0.0,0.0,0.0,0.0,0.0,0.0,0.0,0.0,0.0,0.1539,0.063,0.0083,-0.0871,-0.1444,-0.148,-0.1808,-0.2136,-0.2353,-0.2699,-0.2927,-0.323,-0.323,-0.323,-0.323,-0.323,-0.3531,-0.4133,-0.4634,-0.5532,-0.6728,-0.7624,-0.8322,-0.8924,-0.8924,-0.9225,-0.9628,-0.9628,-0.9628,-0.9628,-0.9628,-0.9864,-1.0197,-1.04,-1.057,-1.0692,-1.0692,-1.1122,-1.1769,-1.2309,-1.3383,-1.4674,-1.5642,-1.6399,-1.7147,-1.8003,-1.822,-1.8429,-1.8966,-1.9175,-1.9175,-1.9279,-1.9279,-1.9279,-1.9279,-1.9279,-1.9279,-1.9279,-1.9279,-1.9279,-1.9279,-1.9279,-1.9279,-1.9279,-1.9279,-1.9279,-1.9279,-1.9279,-1.9279,-1.9279,-1.9279,-1.9279,-1.9279,-1.9279,-1.9279,-1.9279,-1.9279,-1.9279,-1.9279,-1.9279,-1.9279,-1.9279,-1.9279,-1.9447,0.9092,0.0,0.0,0.0,0.0,0.0,0.0,0.0,0.0,0.0,0.0,0.0,0.0,0.0,0.0,0.0,0.0,0.0,0.0,0.0,0.0,0.0,0.0,0.0,0.0,0.0,0.0,0.0,0.0,0.0514,-0.0238,-0.1,-0.1394,-0.1454,-0.1783,-0.2016,-0.2336,-0.2692,-0.2927,-0.323,-0.323,-0.323,-0.323,-0.323,-0.3833,-0.4834,-0.5133,-0.6329,-0.8024,-0.8322,-0.8924,-0.9628,-0.9628,-0.9628,-0.9628,-0.9628,-0.9628,-0.9628,-0.9628,-0.9864,-1.0213,-1.0521,-1.0655,-1.0802,-1.1122,-1.1769,-1.2521,-1.3171,-1.4567,-1.5968,-1.6293,-1.7041,-1.7799,-1.8318,-1.8429,-1.8639,-1.9168,-1.9279,-1.9279,-1.9279,-1.9279,-1.9279,-1.9279,-1.9279,-1.9279,-1.9279,-1.9279,-1.9279,-1.9279,-1.9279,-1.9279,-1.9279,-1.9279,-1.9279,-1.9279,-1.9279,-1.9279,-1.9279,-1.9279,-1.9279,-1.9279,-1.9279,-1.9279,-1.9279,-1.9279,-1.9279,-1.9279,-1.9279,-1.9279,-1.9279,-1.9279,-1.9403,0.0,0.0,0.0,0.8569,0.0,0.0,0.0,0.0,0.765,0.0,0.0,0.0,0.0,0.0,0.0,0.0,0.0,0.0,0.0,0.0,0.0,0.0,0.0,0.0,0.0,0.0,0.0,0.0,0.0,0.0,-0.113,-0.1272,-0.1332,-0.1391,-0.1757,-0.2004,-0.2293,-0.2676,-0.2927,-0.323,-0.323,-0.323,-0.323,-0.323,-0.3833,-0.4834,-0.5927,-0.7021,-0.8124,-0.9126,-0.9529,-0.9628,-0.9628,-0.9628,-0.9628,-0.9628,-0.9628,-0.9628,-0.9628,-0.9864,-1.0193,-1.0383,-1.0558,-1.0907,-1.1982,-1.2417,-1.2847,-1.5102,-1.5861,-1.618,-1.7259,-1.7799,-1.8016,-1.8318,-1.8646,-1.8974,-1.9279,-1.9279,-1.9279,-1.9279,-1.9279,-1.9279,-1.9279,-1.9279,-1.9279,-1.9279,-1.9279,-1.9279,-1.9279,-1.9279,-1.9279,-1.9279,-1.9279,-1.9279,-1.9279,-1.9279,-1.9279,-1.9279,-1.9279,-1.9279,-1.9279,-1.9279,-1.9279,-1.9279,-1.9279,-1.9279,-1.9279,-1.9279,-1.9279,-1.9279,-1.9279,-1.9279,0.0,0.0,0.8174,0.7867,0.0,0.0,0.0,0.0,0.0,0.0,0.0,0.0,0.0,0.0,0.0,0.0,0.0,0.0,0.0,0.0,0.0,0.0,0.0,0.0,0.0,0.0,0.0,0.0,0.0723,0.0,0.0,-0.1236,-0.1321,-0.1361,-0.1561,-0.1812,-0.2291,-0.2477,-0.2725,-0.323,-0.323,-0.323,-0.323,-0.3932,-0.4832,-0.5927,-0.7024,-0.8021,-0.9126,-0.9426,-0.9628,-0.9628,-0.9628,-0.9628,-0.9628,-0.9628,-0.9628,-0.9644,-0.9758,-0.988,-1.003,-1.0335,-1.1005,-1.1608,-1.1411,-1.2847,-1.4674,-1.4674,-1.5855,-1.7147,-1.7694,-1.7911,-1.8128,-1.8653,-1.8869,-1.8974,-1.9279,-1.9279,-1.9279,-1.9279,-1.9279,-1.9279,-1.9279,-1.9279,-1.9279,-1.9279,-1.9279,-1.9279,-1.9279,-1.9279,-1.9279,-1.9279,-1.9279,-1.9279,-1.9279,-1.9279,-1.9279,-1.9279,-1.9279,-1.9279,-1.9279,-1.9279,-1.9279,-1.9279,-1.9279,-1.9279,-1.9279,-1.9279,-1.9279,-1.9279,-1.9279,-1.9279,0.747,0.7325,0.0,0.7229,0.7096,0.0,0.6835,0.0,0.0,0.0,0.0,0.0,0.0,0.0,0.0,0.0,0.0,0.0,0.0,0.0,0.0,0.0,0.0,0.0,0.0,0.0,0.2179,0.1281,0.0,0.0,0.0,0.0,-0.1289,-0.1331,-0.1538,-0.1895,-0.2291,-0.2461,-0.2807,-0.323,-0.323,-0.3432,-0.3833,-0.4533,-0.5629,-0.7021,-0.7723,-0.8623,-0.9628,-0.9628,-0.9628,-0.9628,-0.9628,-0.9628,-0.9628,-0.9628,-0.9628,-0.9644,-0.9754,-0.9876,-1.0022,-1.0262,-1.095,-1.172,-1.1842,-1.3491,-1.5316,-1.5316,-1.6393,-1.7687,-1.7911,-1.8122,-1.8227,-1.8764,-1.8974,-1.9078,-1.9279,-1.9279,-1.9279,-1.9279,-1.9279,-1.9279,-1.9279,-1.9279,-1.9279,-1.9279,-1.9279,-1.9279,-1.9279,-1.9279,-1.9279,-1.9279,-1.9279,-1.9279,-1.9279,-1.9279,-1.9279,-1.9279,-1.9279,-1.9279,-1.9279,-1.9279,-1.9279,-1.9279,-1.9279,-1.9279,-1.9279,-1.9279,-1.9279,-1.9279,-1.9279,-1.9279]},{"header":{"parameterUnit":"m.s-1","parameterCategory":1,"la1":30.6,"la2":29.2853,"lo1":-89.7004,"lo2":-87.6739,"dy":0.0162,"dx":0.0183,"nx":112,"ny":82,"refTime":"2025-07-31T00:00:00:Z","depth":0,"parameterNumber":3,"parameterNumberName":"V-component_of_WINDS"},"data":[0.0,0.0,0.0,0.0,0.0,0.0,0.0,0.0,0.0,0.0,0.0,0.0,0.0,0.0,0.0,0.0,0.0,0.0,0.0,0.0,0.0,0.0,0.0,0.0,0.0,0.0,0.0,0.0,0.0,0.0,0.0,0.0,0.0,0.0,0.0,0.0,0.0,0.0,0.0,0.0,0.0,0.0,0.0,0.0,0.0,0.0,0.0,0.0,0.0,0.0,0.0,0.0,0.0,0.0,0.0,0.0,0.0,0.0,0.0,0.0,0.0,0.0,0.0,0.0,0.0,0.0,0.0,0.0,0.0,0.0,0.0,0.0,0.0,0.0,0.0,0.0,0.0,0.0,0.0,0.0,0.0,0.0,0.0,0.0,0.0,0.0,0.0,0.0,0.0,0.0,0.0,-1.9763,-2.3456,-2.5703,-2.5703,-2.4785,-2.2871,-1.9707,0.0,0.0,0.0,0.0,0.0,0.0,0.0,0.0,0.0,0.0,0.0,0.0,0.0,0.0,0.0,0.0,0.0,0.0,0.0,0.0,0.0,0.0,0.0,0.0,0.0,0.0,0.0,0.0,0.0,0.0,0.0,0.0,0.0,0.0,0.0,0.0,0.0,0.0,0.0,0.0,0.0,0.0,0.0,0.0,0.0,0.0,0.0,0.0,0.0,0.0,0.0,0.0,0.0,0.0,0.0,0.0,0.0,0.0,0.0,0.0,0.0,0.0,0.0,0.0,0.0,0.0,0.0,0.0,0.0,0.0,0.0,0.0,0.0,0.0,0.0,0.0,0.0,0.0,0.0,0.0,0.0,0.0,0.0,0.0,0.0,0.0,0.0,0.0,0.0,0.0,0.0,0.0,0.0,0.0,0.0,0.0,0.0,0.0,0.0,0.0,0.0,0.0,0.0,0.0,-1.8339,-2.3125,-2.4863,-2.5703,-2.5703,-2.4277,-2.2539,-2.0527,0.0,0.0,0.0,0.0,0.0,0.0,0.0,0.0,0.0,0.0,0.0,0.0,0.0,0.0,0.0,0.0,0.0,0.0,0.0,0.0,0.0,0.0,0.0,0.0,0.0,0.0,0.0,0.0,0.0,0.0,0.0,0.0,0.0,0.0,0.0,0.0,0.0,0.0,0.0,0.0,0.0,0.0,0.0,0.0,0.0,0.0,0.0,0.0,0.0,0.0,0.0,0.0,0.0,0.0,0.0,0.0,0.0,0.0,0.0,0.0,0.0,0.0,0.0,0.0,0.0,0.0,0.0,0.0,0.0,0.0,0.0,0.0,0.0,0.0,0.0,0.0,0.0,0.0,0.0,0.0,0.0,0.0,0.0,0.0,0.0,0.0,0.0,0.0,0.0,0.0,0.0,0.0,0.0,0.0,0.0,0.0,0.0,0.0,0.0,0.0,0.0,0.0,0.0,-1.7381,-1.9726,-2.3945,-2.5176,-2.5703,-2.5703,-2.416,-2.2246,-2.0039,-1.7441,0.0,0.0,0.0,0.0,0.0,0.0,0.0,0.0,0.0,0.0,0.0,0.0,0.0,0.0,0.0,0.0,0.0,0.0,0.0,0.0,0.0,0.0,0.0,0.0,0.0,0.0,0.0,0.0,0.0,0.0,0.0,0.0,0.0,0.0,0.0,0.0,0.0,0.0,0.0,0.0,0.0,0.0,0.0,0.0,0.0,0.0,0.0,0.0,0.0,0.0,0.0,0.0,0.0,0.0,0.0,0.0,0.0,0.0,0.0,0.0,0.0,0.0,0.0,0.0,0.0,0.0,0.0,0.0,0.0,0.0,0.0,0.0,0.0,0.0,0.0,0.0,0.0,0.0,0.0,0.0,0.0,0.0,0.0,0.0,0.0,0.0,0.0,0.0,0.0,0.0,0.0,0.0,0.0,0.0,0.0,0.0,0.0,0.0,0.0,0.0,0.0,0.0,-1.9706,-2.1347,-2.4374,-2.5292,-2.5703,-2.5703,-2.3789,-2.1641,-1.9434,-1.6484,0.0,0.0,0.0,0.0,0.0,0.0,0.0,0.0,0.0,0.0,0.0,0.0,0.0,0.0,0.0,0.0,0.0,0.0,0.0,0.0,0.0,0.0,0.0,0.0,0.0,0.0,0.0,0.0,0.0,0.0,0.0,0.0,0.0,0.0,0.0,0.0,0.0,0.0,0.0,0.0,0.0,0.0,0.0,0.0,0.0,0.0,0.0,0.0,0.0,0.0,0.0,0.0,0.0,0.0,0.0,0.0,0.0,0.0,0.0,0.0,0.0,0.0,0.0,0.0,0.0,0.0,0.0,0.0,0.0,0.0,0.0,0.0,0.0,0.0,0.0,0.0,0.0,0.0,0.0,0.0,0.0,0.0,0.0,0.0,0.0,0.0,0.0,0.0,0.0,0.0,0.0,0.0,0.0,0.0,0.0,0.0,0.0,0.0,0.0,0.0,0.0,0.0,-2.0876,-2.3549,-2.5418,-2.5658,-2.5702,-2.5703,-2.2676,-2.0352,-1.9355,-1.5371,0.0,0.0,0.0,0.0,0.0,0.0,0.0,0.0,0.0,0.0,0.0,0.0,0.0,0.0,0.0,0.0,0.0,0.0,0.0,0.0,0.0,0.0,0.0,0.0,0.0,0.0,0.0,0.0,0.0,0.0,0.0,0.0,0.0,0.0,0.0,0.0,0.0,0.0,0.0,0.0,0.0,0.0,0.0,0.0,0.0,0.0,0.0,0.0,0.0,0.0,0.0,0.0,0.0,0.0,0.0,0.0,0.0,0.0,0.0,0.0,0.0,0.0,0.0,0.0,0.0,0.0,0.0,0.0,0.0,0.0,0.0,0.0,0.0,0.0,0.0,0.0,0.0,0.0,0.0,0.0,0.0,0.0,0.0,0.0,0.0,0.0,0.0,0.0,0.0,0.0,0.0,0.0,0.0,0.0,0.0,0.0,0.0,0.0,0.0,0.0,0.0,0.0,-2.0074,-2.2613,0.0,-2.5691,-2.5694,-2.5697,-2.3515,-2.1113,-1.8631,0.0,0.0,0.0,0.0,0.0,0.0,0.0,0.0,0.0,0.0,0.0,0.0,0.0,0.0,0.0,0.0,0.0,0.0,0.0,0.0,0.0,0.0,0.0,0.0,0.0,0.0,0.0,0.0,0.0,0.0,0.0,0.0,0.0,0.0,0.0,0.0,0.0,0.0,0.0,0.0,0.0,0.0,0.0,0.0,0.0,0.0,0.0,0.0,0.0,0.0,0.0,0.0,0.0,0.0,0.0,0.0,0.0,0.0,0.0,0.0,0.0,0.0,0.0,0.0,0.0,0.0,0.0,0.0,0.0,0.0,0.0,0.0,0.0,0.0,0.0,0.0,0.0,0.0,0.0,0.0,0.0,0.0,0.0,0.0,0.0,0.0,0.0,0.0,0.0,0.0,0.0,0.0,0.0,0.0,0.0,0.0,0.0,0.0,0.0,0.0,0.0,0.0,-1.7623,-1.9996,-2.2498,0.0,-2.5697,-2.5698,-2.5696,-2.3611,-2.1073,-1.8181,0.0,0.0,0.0,0.0,0.0,0.0,0.0,0.0,0.0,0.0,0.0,0.0,0.0,0.0,0.0,0.0,0.0,0.0,0.0,0.0,0.0,0.0,0.0,0.0,0.0,0.0,0.0,0.0,0.0,0.0,0.0,0.0,0.0,0.0,0.0,0.0,0.0,0.0,0.0,0.0,0.0,0.0,0.0,0.0,0.0,0.0,0.0,0.0,0.0,0.0,0.0,0.0,0.0,0.0,0.0,0.0,0.0,0.0,0.0,0.0,0.0,0.0,0.0,0.0,0.0,0.0,0.0,0.0,0.0,0.0,0.0,0.0,0.0,0.0,0.0,0.0,0.0,0.0,0.0,0.0,0.0,0.0,0.0,0.0,0.0,0.0,0.0,0.0,0.0,0.0,0.0,0.0,0.0,0.0,0.0,0.0,0.0,0.0,0.0,0.0,0.0,0.0,-1.7779,-2.0993,-2.3769,-2.5508,-2.5702,-2.5702,-2.5703,-2.2576,-1.9879,0.0,0.0,0.0,0.0,0.0,0.0,0.0,0.0,0.0,0.0,0.0,0.0,0.0,0.0,0.0,0.0,0.0,0.0,0.0,0.0,0.0,0.0,0.0,0.0,0.0,0.0,0.0,0.0,0.0,0.0,0.0,0.0,0.0,0.0,0.0,0.0,0.0,0.0,0.0,0.0,0.0,0.0,0.0,0.0,0.0,0.0,0.0,0.0,0.0,0.0,0.0,0.0,0.0,0.0,0.0,0.0,0.0,0.0,0.0,0.0,0.0,0.0,0.0,0.0,0.0,0.0,0.0,0.0,0.0,0.0,0.0,0.0,0.0,0.0,0.0,0.0,0.0,0.0,0.0,0.0,0.0,0.0,0.0,0.0,0.0,0.0,0.0,0.0,0.0,0.0,0.0,0.0,0.0,0.0,0.0,0.0,0.0,0.0,0.0,0.0,0.0,0.0,0.0,-1.7782,-2.0995,-2.3769,-2.55,-2.5693,-2.5707,-2.5693,-2.3641,-2.1384,-1.9062,0.0,0.0,0.0,0.0,0.0,0.0,0.0,0.0,0.0,0.0,0.0,0.0,0.0,0.0,0.0,0.0,0.0,0.0,0.0,0.0,0.0,0.0,0.0,0.0,0.0,0.0,0.0,0.0,0.0,0.0,0.0,0.0,0.0,0.0,0.0,0.0,0.0,0.0,0.0,0.0,0.0,0.0,0.0,0.0,0.0,0.0,0.0,0.0,0.0,0.0,0.0,0.0,0.0,0.0,0.0,0.0,0.0,0.0,0.0,0.0,0.0,0.0,0.0,0.0,0.0,0.0,0.0,0.0,0.0,0.0,0.0,0.0,0.0,0.0,0.0,0.0,0.0,0.0,0.0,0.0,0.0,0.0,0.0,0.0,0.0,0.0,0.0,0.0,0.0,0.0,0.0,0.0,0.0,0.0,0.0,0.0,0.0,0.0,0.0,0.0,0.0,0.0,-1.7789,-2.0996,-2.3765,-2.551,-2.5698,-2.5704,-2.5699,-2.442,-2.2522,-1.995,0.0,0.0,0.0,0.0,0.0,0.0,0.0,0.0,0.0,0.0,0.0,0.0,0.0,0.0,0.0,0.0,0.0,0.0,0.0,0.0,0.0,0.0,0.0,0.0,0.0,0.0,0.0,0.0,0.0,0.0,0.0,0.0,0.0,0.0,0.0,0.0,0.0,0.0,0.0,0.0,0.0,0.0,0.0,0.0,0.0,0.0,0.0,0.0,0.0,0.0,0.0,0.0,0.0,0.0,0.0,0.0,0.0,0.0,0.0,0.0,0.0,0.0,0.0,0.0,0.0,0.0,0.0,0.0,0.0,0.0,0.0,0.0,0.0,0.0,0.0,0.0,0.0,0.0,0.0,0.0,0.0,0.0,0.0,0.0,0.0,0.0,0.0,0.0,0.0,0.0,0.0,0.0,0.0,0.0,0.0,0.0,0.0,0.0,0.0,0.0,0.0,0.0,-1.7891,-2.1111,-2.3858,-2.5525,-2.5697,-2.5699,-2.5699,-2.4898,-2.3347,-2.0904,0.0,0.0,0.0,0.0,0.0,0.0,0.0,0.0,0.0,0.0,0.0,0.0,0.0,0.0,0.0,0.0,0.0,0.0,0.0,0.0,0.0,0.0,0.0,0.0,0.0,0.0,0.0,0.0,0.0,0.0,0.0,0.0,0.0,0.0,0.0,0.0,0.0,0.0,0.0,0.0,0.0,0.0,0.0,0.0,0.0,0.0,0.0,0.0,0.0,0.0,0.0,0.0,0.0,0.0,0.0,0.0,0.0,0.0,0.0,0.0,-1.6358,0.0,0.0,0.0,0.0,0.0,0.0,0.0,0.0,0.0,0.0,0.0,0.0,0.0,0.0,0.0,0.0,0.0,0.0,0.0,0.0,0.0,0.0,0.0,0.0,0.0,0.0,0.0,0.0,0.0,0.0,0.0,0.0,0.0,0.0,0.0,0.0,0.0,0.0,0.0,0.0,0.0,-1.8809,-2.2003,-2.4527,-2.5581,-2.5697,-2.5699,-2.5699,-2.4904,-2.3862,-2.2623,-2.0092,0.0,0.0,0.0,0.0,0.0,0.0,0.0,0.0,0.0,0.0,0.0,0.0,0.0,0.0,0.0,0.0,0.0,0.0,0.0,0.0,0.0,0.0,0.0,0.0,0.0,0.0,0.0,0.0,0.0,0.0,0.0,0.0,0.0,0.0,0.0,0.0,0.0,0.0,0.0,0.0,0.0,0.0,0.0,0.0,0.0,0.0,0.0,0.0,0.0,0.0,0.0,0.0,0.0,0.0,0.0,0.0,0.0,0.0,0.0,0.0,-1.9087,0.0,0.0,0.0,0.0,0.0,0.0,0.0,0.0,0.0,0.0,0.0,0.0,0.0,0.0,0.0,0.0,0.0,0.0,0.0,0.0,0.0,0.0,0.0,0.0,0.0,0.0,0.0,0.0,0.0,0.0,0.0,0.0,0.0,0.0,0.0,0.0,0.0,0.0,0.0,0.0,-1.9608,-2.2524,-2.4734,-2.5606,-2.571,-2.5699,-2.5699,-2.527,-2.465,-2.3784,-2.1662,0.0,0.0,0.0,0.0,0.0,0.0,0.0,0.0,0.0,0.0,0.0,0.0,0.0,0.0,0.0,0.0,0.0,0.0,0.0,0.0,0.0,0.0,0.0,0.0,0.0,0.0,0.0,0.0,0.0,0.0,0.0,0.0,0.0,0.0,0.0,0.0,0.0,0.0,0.0,0.0,0.0,0.0,0.0,0.0,0.0,0.0,0.0,0.0,0.0,0.0,0.0,0.0,0.0,-2.4162,-2.496,-2.6652,-2.6449,-2.7196,-2.8452,-2.5839,-2.4504,-2.4133,-2.2881,0.0,0.0,0.0,0.0,0.0,0.0,0.0,0.0,0.0,0.0,0.0,0.0,0.0,0.0,0.0,0.0,0.0,0.0,0.0,0.0,0.0,0.0,0.0,0.0,-2.5105,-2.4983,0.0,0.0,0.0,0.0,0.0,0.0,0.0,0.0,0.0,0.0,0.0,0.0,-2.0633,-2.3101,-2.4901,-2.5621,-2.5699,-2.5699,-2.5699,-2.5699,-2.5387,-2.4666,-2.3134,-2.1854,0.0,0.0,0.0,0.0,0.0,0.0,0.0,0.0,0.0,0.0,0.0,0.0,0.0,0.0,0.0,0.0,0.0,0.0,0.0,0.0,0.0,0.0,0.0,0.0,0.0,0.0,0.0,0.0,0.0,0.0,0.0,0.0,-1.0861,-1.2332,0.0,0.0,0.0,0.0,0.0,0.0,0.0,0.0,0.0,0.0,0.0,0.0,0.0,-2.3336,-2.5714,-2.6898,-2.7598,-2.7857,-2.9454,-3.0057,-2.9774,-3.1133,-3.2048,-3.2564,-3.2868,0.0,-2.8484,-2.6381,0.0,0.0,0.0,0.0,0.0,0.0,0.0,0.0,0.0,0.0,0.0,0.0,0.0,0.0,0.0,0.0,0.0,0.0,0.0,0.0,0.0,0.0,-2.7618,-2.7615,-2.7793,-2.7776,0.0,-2.3421,-1.9967,-1.8973,-1.8161,0.0,0.0,0.0,0.0,0.0,0.0,0.0,-2.2513,-2.4388,-2.5566,-2.5699,-2.5699,-2.5699,-2.5699,-2.5699,-2.564,-2.5543,-2.4608,-2.3676,-2.2799,-2.0987,0.0,0.0,0.0,0.0,0.0,0.0,0.0,0.0,0.0,0.0,0.0,0.0,0.0,0.0,0.0,0.0,0.0,0.0,0.0,0.0,0.0,0.0,0.0,0.0,0.0,0.0,0.0,0.0,0.0,-1.0269,-1.217,-1.3187,-1.3785,-1.392,0.0,0.0,0.0,0.0,0.0,0.0,0.0,0.0,0.0,-2.4056,-2.6247,-2.7932,-2.9143,-3.0719,-3.1725,-3.2155,-3.3038,-3.3582,-3.3914,-3.4699,-3.5212,-3.552,-3.6083,-3.5495,-3.3882,-3.0918,-2.8658,-2.693,0.0,0.0,0.0,0.0,-2.5631,-2.589,-2.7324,-2.7884,0.0,-2.6887,0.0,0.0,0.0,0.0,0.0,0.0,0.0,0.0,0.0,0.0,-3.0313,-2.9826,-3.0085,-3.017,-2.9194,-2.7206,-2.5078,0.0,-2.2186,-2.0878,-1.8554,0.0,0.0,0.0,0.0,-2.1869,-2.3603,-2.4914,-2.5699,-2.5699,-2.5699,-2.5699,-2.5699,-2.5699,-2.5699,-2.5699,-2.5348,-2.4959,-2.4588,-2.2893,-2.1218,0.0,0.0,0.0,0.0,0.0,0.0,0.0,0.0,0.0,0.0,0.0,0.0,0.0,0.0,0.0,0.0,0.0,0.0,0.0,0.0,0.0,0.0,0.0,0.0,0.0,0.0,0.0,0.0,-1.2185,-1.3925,-1.4872,-1.6342,-1.6887,0.0,0.0,0.0,0.0,0.0,0.0,-2.2035,-2.4189,-2.6216,-2.8094,-3.0522,-3.1954,-3.2274,-3.3716,-3.4743,-3.5349,-3.5349,-3.5836,-3.6726,-3.6995,-3.731,-3.7695,-3.8136,-3.8261,-3.7874,-3.483,-3.2336,-3.0424,-3.0195,-2.9617,-2.8995,-2.9992,-3.0398,-3.0665,-3.2296,-3.2737,-3.2415,-3.1421,-3.035,-2.9035,-2.6919,0.0,0.0,0.0,0.0,-2.8589,-2.9835,-3.1284,-3.2268,-3.1628,-3.1968,-3.2089,-3.0781,-3.0311,-2.941,0.0,-2.582,-2.4491,-2.1737,0.0,0.0,0.0,0.0,-2.3673,-2.5177,-2.5944,-2.6244,-2.603,-2.6011,-2.5913,-2.5718,-2.5699,-2.5699,-2.5699,-2.5699,-2.5699,-2.5699,-2.4452,-2.3244,-2.2153,0.0,0.0,0.0,0.0,0.0,0.0,0.0,0.0,0.0,0.0,0.0,0.0,0.0,0.0,0.0,0.0,0.0,0.0,0.0,0.0,0.0,0.0,0.0,0.0,0.0,0.0,0.0,0.0,0.0,-1.8826,-2.0147,0.0,0.0,0.0,0.0,-2.1574,-2.2688,-2.4247,-2.6542,-2.8905,-3.0769,-3.2083,-3.3733,-3.5049,-3.6017,-3.6138,-3.6193,-3.6229,-3.6229,-3.6417,-3.6814,-3.758,-3.8294,-3.8953,-3.9755,-3.9749,-3.9084,-3.7243,-3.596,-3.5089,-3.4243,-3.3378,-3.275,-3.368,-3.4042,-3.4187,-3.5308,-3.5154,-3.4594,-3.5412,-3.4488,-3.2864,-3.1909,-3.1051,0.0,0.0,-3.1172,-3.1856,-3.1953,-3.2656,-3.3324,-3.3279,-3.33,-3.3301,-3.3219,-3.2552,-3.1205,0.0,-2.8032,-2.7713,-2.6767,0.0,-2.661,-2.6613,-2.6688,-2.705,-2.7905,-2.8056,-2.7764,-2.6926,-2.6848,-2.6537,-2.5757,-2.5699,-2.5699,-2.5699,-2.5699,-2.5699,-2.5699,-2.5621,-2.4764,-2.3069,-2.124,0.0,0.0,0.0,0.0,0.0,0.0,0.0,0.0,0.0,0.0,0.0,0.0,0.0,0.0,0.0,0.0,0.0,0.0,0.0,0.0,0.0,0.0,0.0,0.0,0.0,0.0,0.0,0.0,-2.0628,-2.2351,0.0,-2.3404,-2.372,-2.4517,-2.5877,-2.7043,-2.8622,-3.076,-3.2102,-3.3381,-3.4681,-3.5775,-3.6595,-3.7055,-3.7588,-3.7916,-3.8109,-3.8109,-3.835,-3.8817,-3.9123,-3.9545,-3.9991,-4.0277,-4.0268,-4.0008,-3.9392,-3.8334,-3.7084,-3.6776,-3.6479,-3.6296,-3.6613,-3.6842,-3.6988,-3.7383,-3.7362,-3.7133,-3.6908,-3.6398,-3.5611,-3.4167,-3.3542,-3.3308,-3.3308,-3.3529,-3.3905,-3.4452,-3.4832,-3.4937,-3.4374,-3.4237,-3.4088,-3.3515,-3.3152,-3.265,-3.1734,-3.0199,-2.8762,-2.7925,-2.7774,-2.7608,-2.7075,-2.7436,-2.787,-2.8154,-2.8193,-2.8076,-2.7764,-2.7745,-2.7394,-2.6537,-2.6478,-2.6244,-2.5738,-2.5699,-2.5699,-2.5699,-2.5699,-2.5407,-2.4783,-2.3069,-2.1159,0.0,0.0,0.0,0.0,0.0,0.0,0.0,0.0,0.0,0.0,0.0,0.0,0.0,0.0,0.0,0.0,0.0,0.0,0.0,0.0,0.0,0.0,0.0,0.0,0.0,0.0,-2.1117,-2.2492,-2.4713,-2.6168,-2.6316,-2.7385,-2.8525,-2.96,-3.0715,-3.2115,-3.3854,-3.4663,-3.5489,-3.6395,-3.7179,-3.7838,-3.8303,-3.8836,-3.9386,-3.99,-3.99,-4.0195,-4.0737,-4.0779,-4.0998,-4.1347,-4.1341,-4.1357,-4.1389,-4.1412,-4.0752,-3.9692,-3.9133,-3.8942,-3.9021,-3.9063,-3.9155,-3.9246,-3.8975,-3.8924,-3.8863,-3.8004,-3.7731,-3.7516,-3.6364,-3.6013,-3.6013,-3.6013,-3.6013,-3.6074,-3.6372,-3.644,-3.621,-3.5312,-3.5105,-3.4944,-3.4367,-3.4018,-3.3804,-3.3804,-3.2186,-3.054,-2.9659,-2.9531,-2.923,-2.8408,-2.8747,-2.9085,-2.9085,-2.9085,-2.8948,-2.868,-2.8641,-2.829,-2.7413,-2.7063,-2.6673,-2.6147,-2.5855,-2.5699,-2.5699,-2.5699,-2.5699,-2.5699,-2.3984,-2.238,-2.0901,0.0,0.0,0.0,0.0,0.0,0.0,0.0,0.0,0.0,0.0,0.0,0.0,0.0,0.0,0.0,0.0,0.0,0.0,0.0,0.0,0.0,0.0,0.0,-1.8903,-2.1633,-2.3963,-2.4669,-2.7379,-2.899,-2.8422,-3.0054,-3.1612,-3.282,-3.3669,-3.4637,-3.5806,-3.6616,-3.7112,-3.7288,-3.8036,-3.8917,-3.995,-3.995,-4.0486,-4.1537,-4.1537,-4.1833,-4.2411,-4.2411,-4.2639,-4.2998,-4.2998,-4.3035,-4.3121,-4.3173,-4.3202,-4.3047,-4.1422,-4.0815,-4.0867,-4.0986,-4.1013,-4.0889,-4.0118,-3.9839,-3.9702,-3.8921,-3.869,-3.8671,-3.8651,-3.8632,-3.8632,-3.8612,-3.8593,-3.84,-3.7554,-3.7342,-3.7109,-3.6169,-3.5939,-3.5931,-3.5919,-3.5246,-3.4642,-3.4642,-3.3999,-3.3186,-3.2309,-3.2133,-3.1856,-3.1013,-3.0857,0.0,-3.0838,-3.0818,-3.0487,-2.963,-2.9533,-2.9182,-2.831,-2.7472,-2.6965,-2.6907,-2.6167,-2.5738,-2.5738,-2.5738,-2.5738,-2.5734,-2.4078,-2.2745,-2.1776,0.0,0.0,0.0,0.0,0.0,0.0,0.0,0.0,0.0,0.0,0.0,0.0,0.0,0.0,0.0,0.0,0.0,0.0,0.0,0.0,0.0,0.0,-2.251,-2.1906,-2.421,-2.6538,-2.7998,-3.0006,-3.1498,-3.2073,-3.3229,-3.4442,-3.5549,-3.5969,-3.6606,-3.7551,-3.782,-3.8285,-3.9081,-3.9301,-3.995,-4.1045,-4.1045,-4.1446,-4.2146,-4.2146,-4.2337,-4.2698,-4.2738,-4.2852,-4.2998,-4.3052,-4.3069,-4.3121,-4.3173,-4.3252,-4.3313,-4.2839,-4.2334,-4.1882,-4.1922,-4.1568,-4.1035,-4.0812,-4.0737,-4.0717,-4.0483,-4.0405,-4.0288,-3.9663,-3.9468,-3.9351,-3.8765,-3.8563,-3.8473,-3.8221,-3.8162,-3.7948,-3.7054,-3.684,-3.6665,-3.605,-3.5713,-3.5538,-3.5538,-3.5363,-3.4739,-3.3278,-3.3049,-3.2966,-3.2713,-3.2148,0.0,-3.1739,-3.1193,-3.0701,-3.0468,-3.0429,-3.0098,-2.9221,-2.8909,-2.8251,-2.6985,-2.6693,-2.6576,-2.6576,-2.6576,-2.6558,-2.6504,-2.5932,-2.4914,0.0,0.0,0.0,0.0,0.0,0.0,0.0,0.0,0.0,0.0,0.0,0.0,0.0,0.0,0.0,0.0,0.0,0.0,0.0,0.0,0.0,0.0,-2.4202,-2.6007,-2.6433,-2.7617,-2.9007,-3.0574,-3.2019,-3.3281,-3.43,-3.5289,-3.6139,-3.6793,-3.7286,-3.7929,-3.8761,-3.8831,-3.9341,-4.0436,-4.0454,-4.104,-4.2212,-4.2212,-4.2618,-4.3398,-4.3398,-4.3558,-4.3866,-4.3905,-4.3962,-4.4017,-4.4138,-4.4203,-4.4234,-4.4354,-4.4463,0.0,0.0,0.0,0.0,0.0,-4.2592,-4.2181,-4.2181,-4.1947,-4.1635,-4.1635,-4.14,-4.101,-4.0503,-4.0333,-4.0242,-3.9774,-3.9626,-3.9511,-3.9138,-3.9047,-3.8826,-3.7951,-3.7464,-3.7058,-3.6551,-3.6162,-3.5908,-3.5908,-3.5908,0.0,-3.4622,-3.4135,-3.3785,-3.3453,-3.2971,-3.264,-3.264,-3.2206,-3.1895,-3.1895,-3.1895,-3.1544,-3.0667,-3.0258,0.0,0.0,0.0,-2.7424,-2.74,-2.74,0.0,0.0,0.0,0.0,0.0,0.0,0.0,0.0,-2.4677,-2.4784,0.0,0.0,0.0,0.0,0.0,0.0,0.0,0.0,0.0,0.0,0.0,0.0,0.0,0.0,0.0,0.0,-2.7348,-2.9493,-3.1373,-3.1357,-3.155,-3.2573,-3.3608,-3.4628,-3.5576,-3.657,-3.7192,-3.7265,-3.8002,-3.8813,-3.9662,0.0,0.0,0.0,0.0,-4.2174,-4.3375,-4.3393,-4.3882,-4.4868,-4.4868,-4.5023,-4.5297,-4.5359,-4.54,-4.5438,-4.5626,-4.5733,-4.5841,-4.6016,-4.6105,-4.5975,-4.4377,-4.3787,-4.3821,-4.3743,-4.3704,-4.3704,-4.3704,0.0,0.0,-4.2552,-4.2025,-4.1364,-4.1286,-4.124,-4.1229,-4.1132,-4.1093,-4.0926,-4.0145,-3.9942,-3.9735,-3.8842,-3.8052,-3.7467,-3.737,-3.6746,-3.6162,-3.6064,-3.6045,-3.6025,-3.5928,-3.5265,-3.4506,-3.3785,-3.359,-3.3531,-3.3531,-3.3453,-3.3395,-3.3395,0.0,0.0,-3.2309,-3.1544,-3.0701,-2.9835,-2.9031,-2.8577,-2.8514,-2.8585,-2.8539,-2.8318,-2.9158,-2.9877,-3.0439,-3.129,-3.1793,-3.1809,-2.7942,-2.7725,0.0,0.0,0.0,0.0,0.0,0.0,0.0,0.0,0.0,0.0,0.0,0.0,0.0,0.0,0.0,-2.7882,-3.0198,-3.2166,-3.3548,-3.4196,-3.4411,-3.401,-3.5411,-3.6465,-3.6693,-3.7468,-3.8244,-3.8979,-3.9161,-3.9794,-4.096,-4.1028,-4.1609,-4.2819,-4.2837,-4.3367,-4.448,-4.4499,-4.4716,-4.5194,0.0,0.0,-4.5297,-4.5359,-4.5458,-4.5568,-4.5661,-4.5761,-4.5886,-4.6044,-4.615,-4.6152,-4.5137,-4.4731,-4.466,-4.3957,-4.3704,-4.3704,-4.3704,-4.3587,-4.345,-4.345,-4.3333,-4.3063,-4.2357,-4.2146,0.0,-4.1307,-4.1101,-4.1062,-4.0879,-4.0857,-4.0635,-3.9766,-3.9415,-3.9104,-3.8402,-3.8129,-3.7798,-3.7097,-3.6941,-3.6727,-3.6025,-3.5752,-3.5597,-3.5441,-3.4817,-3.4369,-3.4369,-3.3804,-3.3395,-3.3395,-3.3395,-3.3336,-3.3166,-3.2986,-3.2478,-3.1501,-3.1172,-3.1023,-3.1004,-3.1637,-3.1619,-3.0895,-3.1629,-3.1752,-3.1188,-3.2067,-3.3181,-3.4426,-3.2278,-3.1609,0.0,0.0,0.0,0.0,0.0,0.0,0.0,0.0,0.0,0.0,0.0,-2.3122,-2.5676,0.0,-2.9119,-3.138,-3.3023,-3.425,-3.4957,-3.582,-3.6195,-3.5706,-3.6457,-3.7142,-3.754,-3.8368,-3.9085,-3.9644,-4.0175,-4.0966,-4.2182,-4.2296,-4.2837,-4.3957,-4.3995,-4.4354,-4.5045,-4.5045,-4.5132,-4.5297,-4.5297,-4.5297,-4.5297,-4.5359,-4.5477,-4.5603,-4.5733,-4.5859,-4.5959,-4.6131,-4.624,-4.6261,-4.5812,-4.5656,-4.5597,-4.5168,-4.4992,-4.4992,-4.4992,-4.4719,-4.4348,-4.4348,-4.4055,-4.3629,-4.3171,-4.3045,-4.287,-4.2007,-4.1729,-4.1613,-4.1203,-4.1109,-4.0994,-4.0545,-4.0117,-3.9688,-3.924,-3.8811,-3.8363,-3.7935,-3.7857,-3.7701,-3.7272,-3.6844,-3.6395,-3.5967,-3.5538,-3.5246,-3.5246,-3.4895,-3.4642,-3.4642,-3.4642,-3.4467,-3.4038,-3.3629,-3.319,-3.2688,-3.2589,-3.2488,-3.2367,-3.2739,-3.2697,-3.2171,-3.2928,-3.3337,-3.3299,-3.4197,-3.5248,-3.6432,-3.5592,-3.5209,0.0,0.0,0.0,0.0,0.0,0.0,0.0,0.0,-2.1954,-2.4484,-2.5994,-2.7571,-2.9822,-3.123,-3.2599,-3.4371,-3.5331,-3.5901,-3.6082,-3.6967,-3.7564,-3.7403,-3.7339,-3.758,-3.8234,-3.9097,-3.9818,-4.0233,-4.1178,-4.2248,-4.3378,-4.3487,-4.3945,-4.4872,-4.491,-4.5023,-4.5297,-4.5297,-4.5297,-4.5297,-4.5297,-4.5297,-4.5297,-4.5378,-4.5477,-4.5637,-4.5854,-4.6008,-4.6064,-4.6221,-4.63,-4.63,-4.63,-4.63,-4.63,-4.63,-4.63,-4.63,-4.63,-4.5831,-4.5246,-4.5246,-4.4777,-4.4175,-4.3989,-4.3925,-4.3741,-4.2876,-4.247,-4.2143,-4.15,-4.1227,-4.111,-4.111,-4.0565,-4.0058,-4.0058,-3.9493,-3.8967,-3.8792,-3.8753,-3.8694,-3.8539,-3.7915,-3.7155,-3.6279,-3.6006,-3.5908,-3.5908,-3.5908,-3.5908,-3.5908,-3.5908,-3.5616,-3.4915,-3.4222,-3.3846,-3.3846,-3.3978,-3.3946,-3.3729,-3.3851,-3.3827,-3.3681,-3.435,-3.5037,-3.5687,-3.6394,-3.7158,-3.7941,-3.7941,-3.7941,-1.6677,-1.7576,0.0,-2.1114,-2.1824,-2.3335,0.0,0.0,-2.86,-3.1266,-3.192,-3.246,-3.3743,-3.4147,-3.4563,-3.5498,-3.6448,-3.7125,-3.7125,-3.8095,-3.8795,-3.8766,-3.8571,-3.8475,-3.864,-3.9467,-4.0481,-4.153,-4.2408,-4.3396,-4.4556,-4.4619,-4.4815,-4.5235,-4.5235,-4.5256,-4.5297,-4.5297,-4.5297,-4.5297,-4.5297,-4.5297,-4.5297,-4.5317,-4.5458,-4.5715,-4.6027,-4.6203,-4.6273,-4.6296,-4.63,-4.63,-4.63,-4.63,-4.63,-4.63,-4.63,-4.63,-4.63,-4.6241,-4.6144,-4.6144,-4.6085,-4.586,-4.5019,-4.4762,-4.4579,-4.3704,-4.2909,-4.2279,-4.2202,-4.1637,-4.111,-4.111,-4.1033,-4.0955,-4.0955,-4.0877,-4.0584,-3.9805,-3.9649,-3.9415,-3.8636,-3.8422,-3.8052,-3.7194,-3.6395,-3.5908,-3.5908,-3.5908,-3.5908,-3.5908,-3.5908,-3.585,-3.5752,-3.556,-3.5438,-3.5438,-3.6002,-3.6331,-3.629,-3.6849,-3.7154,-3.7139,-3.7234,-3.733,-3.7426,-3.7521,-3.8018,-3.8858,-3.8858,-3.8858,-2.0367,0.0,0.0,0.0,-2.6289,-2.7818,-3.0827,-3.14,-3.176,-3.3512,-3.4258,-3.4866,-3.5806,-3.5983,-3.6318,0.0,-3.7716,-3.8071,-3.8272,-3.8822,-3.9021,-3.8428,-3.8891,-3.9163,-3.9008,-4.0263,-4.1343,-4.1996,-4.3309,-4.4367,-4.5068,-4.5087,-4.5173,-4.5297,-4.5297,-4.5297,-4.5297,-4.5297,-4.5297,-4.5297,-4.5297,-4.5297,-4.5297,-4.538,-4.558,-4.5891,-4.6115,-4.6231,-4.63,-4.63,-4.63,-4.63,-4.63,-4.63,-4.63,-4.63,-4.63,-4.63,-4.63,-4.63,-4.63,-4.63,-4.629,-4.6223,-4.584,-4.5698,-4.546,-4.4592,-4.4097,-4.3702,-4.3195,-4.2806,-4.2435,-4.1929,-4.1812,-4.1675,-4.1208,-4.111,-4.0994,-4.0623,-4.0565,-4.0448,-4.0078,-3.9591,-3.9123,-3.8772,-3.7974,-3.7409,-3.7409,-3.7409,-3.7409,-3.7409,-3.7409,-3.7409,-3.7409,-3.7284,-3.7208,-3.7208,-3.7398,-3.7481,-3.7397,-3.7663,-3.7775,-3.7693,-3.7693,-3.7941,-3.8457,-3.8457,-3.8897,-3.9775,-4.0234,-4.0444,-2.3204,0.0,0.0,-2.8452,-3.0052,-3.1564,-3.2929,-3.3674,-3.4402,-3.539,-3.5892,-3.634,-3.6967,-3.6894,-3.708,-3.8096,-3.8327,-3.8559,-3.9044,-3.9408,-3.9331,-3.8582,-3.932,-3.9785,-3.9543,-4.0791,-4.1814,-4.2344,-4.3734,-4.4798,-4.5277,-4.5297,-4.5297,-4.5297,-4.5297,-4.5297,-4.5297,-4.5297,-4.5297,-4.5297,-4.5297,-4.5317,-4.536,-4.5528,-4.5736,-4.6007,-4.6138,-4.6236,-4.6273,-4.6273,-4.6273,-4.6273,-4.6273,-4.6277,-4.63,-4.63,-4.63,-4.63,-4.63,-4.63,-4.63,-4.63,-4.6297,-4.6307,-4.6289,-4.6241,-4.6069,-4.5436,-4.5097,-4.4754,-4.413,-4.378,-4.3442,-4.2806,-4.2474,-4.2143,-4.1559,-4.1266,-4.111,-4.111,-4.111,-4.111,-4.111,-4.0584,-4.0156,-4.0156,-3.963,-3.9045,-3.8558,-3.85,-3.85,-3.85,-3.8462,-3.8429,-3.8429,-3.8313,-3.8229,-3.8229,-3.8334,-3.8356,-3.8262,-3.8447,-3.852,-3.8419,-3.8419,-3.8725,-3.9355,-3.9584,-4.0005,-4.0654,-4.1476,-4.1858,0.0,0.0,-2.9246,-3.1183,-3.2836,-3.4476,-3.6389,-3.6852,-3.7105,-3.7902,-3.7486,-3.7039,-3.7259,-3.665,-3.6454,-3.7468,-3.7891,-3.8403,-3.9264,-3.9781,-4.0077,-4.0039,-4.0196,-4.0291,0.0,-4.0777,-4.1573,-4.2698,-4.3538,-4.4397,-4.5239,-4.5297,-4.5297,-4.5297,-4.5297,-4.5297,-4.5297,-4.5297,-4.5297,-4.5297,-4.5297,-4.536,-4.5513,-4.5769,-4.5929,-4.601,-4.615,-4.6206,-4.6206,-4.6206,-4.6206,-4.6206,-4.6206,-4.6245,-4.63,-4.63,-4.63,-4.63,-4.63,-4.63,-4.63,-4.63,-4.6297,-4.6288,-4.6228,-4.6192,-4.6201,-4.6177,-4.556,-4.489,-4.4871,-4.4228,-4.3578,-4.3559,-4.2922,-4.2299,-4.2279,-4.1656,-4.111,-4.111,-4.111,-4.111,-4.111,-4.1091,-4.1052,-4.1052,-4.1033,-4.0409,-3.8714,-3.85,-3.85,-3.85,-3.8373,-3.8305,-3.8305,-3.8178,-3.811,-3.811,-3.8772,-3.9146,-3.9165,-3.9846,-4.0234,-4.0234,-4.0234,-4.0234,-4.0272,-4.1036,-4.1437,-4.1476,-4.2354,-4.2756,0.0,0.0,-3.2076,-3.4045,-3.5286,-3.6338,-3.754,-3.7794,-3.7703,-3.7449,-3.6761,-3.6082,-3.5714,-3.5462,-3.5707,-3.6942,-3.8165,-3.9169,-3.9788,-4.0965,-4.1146,-3.9567,-4.0903,0.0,0.0,0.0,0.0,-4.2737,-4.3558,-4.438,-4.5239,-4.5297,-4.5297,-4.5297,-4.5297,-4.5297,-4.5297,-4.5297,-4.5297,-4.5297,-4.54,-4.5495,-4.5651,-4.5829,-4.5949,-4.6072,-4.6157,-4.6196,-4.6196,-4.6201,-4.6206,-4.6211,-4.6245,-4.6277,-4.63,-4.63,-4.63,-4.63,-4.63,-4.63,-4.63,-4.63,-4.6264,-4.6229,-4.6205,-4.6199,-4.6203,-4.6203,-4.5981,-4.5767,-4.5767,-4.5533,-4.5183,-4.4598,-4.4247,-4.3877,-4.3293,-4.2494,-4.1909,-4.1909,-4.1481,-4.111,-4.111,-4.111,-4.111,-4.111,-4.111,-4.0896,-4.0292,-4.0154,-4.0096,-4.0096,-3.9966,-3.9882,-3.9882,-3.976,-3.9697,-3.9697,-3.9852,-3.9942,-3.9942,-4.0157,-4.0559,-4.1094,-4.1094,-4.138,-4.1953,-4.2221,-4.2354,-4.2374,-4.3214,-4.3615,0.0,-3.2473,-3.4093,-3.5908,-3.6926,-3.7606,-3.8132,-3.799,-3.7464,-3.644,-3.5363,-3.4342,-3.3476,-3.314,-3.3673,-3.5745,-3.7268,-3.8746,-4.0279,-4.1713,-4.2042,-4.054,-4.18,-4.2374,0.0,0.0,0.0,-4.3176,-4.3711,-4.438,-4.5239,-4.5297,-4.5297,-4.5297,-4.5297,-4.5297,-4.5297,-4.5297,-4.5319,-4.538,-4.5513,-4.5648,-4.578,-4.5902,-4.6018,-4.6138,-4.6189,-4.6196,-4.6203,-4.6203,-4.6195,-4.6211,-4.6245,-4.6273,-4.63,-4.63,-4.63,-4.63,-4.63,-4.63,-4.63,-4.63,-4.6247,-4.6204,-4.6204,-4.6191,-4.6196,-4.6196,-4.6196,-4.6196,-4.6196,-4.6196,-4.6059,-4.5494,-4.5124,-4.4754,-4.4189,-4.339,-4.2767,-4.2767,-4.2357,-4.1987,-4.1987,-4.1734,-4.1539,-4.1539,-4.1286,-4.1078,-4.1038,-4.0943,-4.0878,-4.0839,-4.0706,-4.0629,-4.0629,-4.0523,-4.043,-4.043,-4.0632,-4.0731,-4.0731,-4.1036,-4.1437,-4.1953,-4.1953,-4.224,-4.2794,-4.31,-4.3233,-4.3252,-4.4093,-4.4456,-3.2253,-3.3835,-3.5349,-3.69,-3.7804,-3.8336,-3.8285,-3.758,-3.6476,-3.4991,-3.3424,-3.1937,0.0,0.0,-3.0715,-3.3966,-3.5469,-3.7409,-4.0748,-4.205,-4.2709,0.0,0.0,0.0,0.0,0.0,0.0,-4.4017,0.0,-4.438,-4.5239,-4.5297,-4.5297,-4.5297,-4.5297,-4.5297,-4.5297,-4.5317,-4.538,-4.5495,-4.5632,-4.578,-4.5894,-4.6037,-4.6138,-4.6189,-4.6189,-4.6196,-4.6196,-4.6196,-4.6196,-4.6206,-4.6211,-4.6245,-4.63,-4.63,-4.63,-4.63,-4.6303,-4.6303,-4.6303,-4.6303,-4.6248,-4.6202,-4.6202,-4.621,-4.6196,-4.6196,-4.6196,-4.6196,-4.6196,-4.6196,-4.6196,-4.6196,-4.5572,-4.4968,-4.4968,-4.4286,-4.3682,-4.3682,-4.3617,-4.3598,-4.3598,-4.2922,-4.2377,-4.2377,-4.1708,-4.1135,-4.0936,-4.0888,-4.0839,-4.0706,-4.0617,-4.0566,-4.0566,-4.0476,-4.0444,-4.0444,-4.1132,-4.1571,-4.1571,-4.2354,-4.2813,-4.287,-4.287,-4.2889,-4.2928,-4.3692,-4.4074,-4.4093,-4.4914,-4.5297,-3.4824,-3.6497,-3.79,-3.8364,-3.8719,-3.8804,-3.8071,-3.6777,-3.5274,-3.3566,-3.152,-2.9588,0.0,0.0,0.0,-3.2769,-3.5894,0.0,-4.1111,-4.2695,0.0,0.0,0.0,-4.4418,-4.3768,-4.4284,0.0,0.0,-4.438,-4.438,-4.5239,-4.5297,-4.5297,-4.5297,-4.5297,-4.5297,-4.5297,-4.54,-4.5457,-4.5495,-4.5746,-4.586,-4.5912,-4.5986,-4.6027,-4.6037,-4.6037,-4.6084,-4.6138,-4.6189,-4.6196,-4.6211,-4.6249,-4.6277,-4.63,-4.63,-4.63,-4.6303,-4.63,-4.6303,-4.6285,-4.623,-4.6202,-4.6199,-4.6199,-4.6206,-4.6196,-4.6196,-4.6196,-4.6196,-4.6196,-4.6196,-4.6196,-4.6196,-4.602,-4.5864,-4.5864,-4.5183,-4.4559,-4.4559,-4.4033,-4.3598,-4.3598,-4.3422,-4.3266,-4.3266,-4.3008,-4.2354,-4.1063,-4.0818,-4.0694,-4.0579,-4.0984,-4.1245,-4.1245,-4.182,-4.2163,-4.2163,-4.2354,-4.2469,-4.2469,-4.2679,-4.308,-4.3692,-4.3692,-4.4017,-4.4647,-4.4876,-4.4972,-4.4972,-4.5201,-4.5297,-3.6546,-3.7923,-3.898,-3.9109,-3.8936,-3.8383,-3.7105,-3.5485,-3.3481,-3.0754,-2.8885,0.0,0.0,0.0,0.0,0.0,0.0,0.0,-4.0997,-4.2846,-4.3897,0.0,-4.4723,0.0,-4.4628,-4.501,-4.5297,0.0,-4.4857,-4.4781,-4.5258,-4.5297,-4.5297,-4.5297,-4.5297,-4.5338,-4.54,-4.5457,-4.5566,-4.5684,-4.5819,-4.5919,-4.5949,-4.5975,-4.5997,-4.5997,0.0,-4.6047,-4.6146,-4.6189,-4.6228,-4.6245,-4.6296,-4.63,-4.63,-4.6273,-4.6269,-4.6253,-4.6265,-4.6269,-4.625,-4.6207,-4.6192,-4.6206,-4.6206,-4.6201,-4.6196,-4.6196,-4.6196,-4.6196,-4.6196,-4.6196,-4.6196,-4.6196,-4.6196,-4.6196,-4.6196,-4.5825,-4.5475,-4.5475,-4.5085,-4.4734,-4.4734,-4.4423,-4.4155,-4.4078,-4.3695,-4.3022,-4.1957,-4.1763,-4.1647,-4.1524,-4.1857,-4.2068,-4.2068,-4.2526,-4.2794,-4.2794,-4.3138,-4.3329,-4.3329,-4.3692,-4.4112,-4.4571,-4.4571,-4.4819,-4.5297,-4.5297,-4.5297,-4.5297,-4.5297,-4.5297,-3.7838,-3.8643,-3.9272,-3.9483,-3.8794,-3.7601,-3.5904,-3.3877,-3.1312,-2.7641,0.0,0.0,-2.2785,0.0,-2.6365,-2.9425,0.0,-3.6368,-4.0708,-4.2574,-4.395,-4.5163,-4.5297,-4.5297,-4.5297,-4.5297,-4.5297,-4.5297,-4.5297,-4.5297,-4.5297,-4.5297,-4.5297,-4.5297,-4.5297,-4.536,-4.5495,-4.5513,-4.5651,-4.5893,-4.5906,-4.5949,-4.5997,-4.6007,-4.6007,-4.6007,-4.6017,-4.6093,-4.6203,-4.6203,-4.6234,-4.6296,-4.6292,-4.6292,-4.6269,-4.6211,-4.6206,-4.6197,-4.6207,-4.6191,-4.6191,-4.6202,-4.6202,-4.6201,-4.6201,-4.6195,-4.6196,-4.6196,-4.6196,-4.6196,-4.6196,-4.6196,-4.6196,-4.6196,-4.6196,-4.6196,-4.6196,-4.6196,-4.6196,-4.6196,-4.6196,-4.6196,-4.6196,-4.5565,-4.5009,-4.488,-4.4178,-4.3589,-4.3352,-4.3145,-4.2942,-4.2814,-4.2908,-4.2966,-4.2966,-4.3061,-4.3138,-4.3138,-4.3787,-4.4169,-4.4169,-4.4895,-4.5297,-4.5297,-4.5297,-4.5297,-4.5297,-4.5297,-4.5297,-4.5297,-4.5297,-4.5297,-3.8977,-3.9486,-3.9762,-3.9807,-3.8757,-3.7242,-3.5571,-3.22,0.0,0.0,0.0,-2.2955,-2.2495,-2.4486,0.0,-2.9646,0.0,0.0,0.0,0.0,-4.2736,0.0,0.0,0.0,0.0,0.0,0.0,0.0,0.0,-4.5297,-4.5297,-4.5297,-4.5297,-4.5297,-4.5297,-4.536,-4.5495,-4.5618,-4.5746,-4.5893,-4.596,-4.5986,-4.5997,-4.6066,-4.6084,-4.6084,-4.6146,0.0,-4.6195,-4.619,-4.6203,-4.6211,-4.6228,-4.6216,-4.6216,-4.6209,-4.6203,-4.6197,-4.6207,-4.619,-4.6202,-4.6192,-4.6196,-4.619,-4.619,-4.6203,-4.6196,-4.6196,-4.6196,-4.6196,-4.6196,-4.6196,-4.6196,-4.6196,-4.6196,-4.6196,-4.6196,-4.6196,-4.6196,-4.6196,-4.6196,-4.6196,-4.6196,-4.5985,-4.5803,-4.5793,-4.5407,-4.5115,-4.5066,-4.3857,-4.2942,-4.2814,-4.3405,-4.3806,-4.3806,-4.4456,-4.4857,-4.4857,-4.4991,-4.5067,-4.5067,-4.522,-4.5297,-4.5297,-4.5297,-4.5297,-4.5297,-4.5297,-4.5297,-4.5297,-4.5297,-4.5275,-3.9857,-4.0363,-4.0517,-4.0517,-3.9048,-3.6918,-3.435,0.0,0.0,0.0,0.0,-2.1741,-2.1284,0.0,0.0,0.0,0.0,0.0,0.0,0.0,0.0,0.0,0.0,0.0,0.0,0.0,0.0,0.0,0.0,-4.5476,-4.5419,-4.54,-4.54,-4.54,-4.54,-4.5457,-4.5599,-4.5746,-4.586,-4.596,-4.5986,-4.6017,-4.6047,-4.6084,-4.613,-4.6146,-4.6146,-4.6169,-4.6203,-4.6162,-4.6169,-4.6203,-4.6203,-4.6209,-4.6203,-4.6203,-4.6203,-4.6197,-4.6207,-4.6191,-4.6205,-4.6195,-4.6196,-4.6196,-4.6196,-4.6196,-4.6196,-4.6196,-4.6196,-4.6196,-4.6196,-4.6196,-4.6196,-4.6196,-4.6196,-4.6196,-4.6196,-4.6196,-4.6196,-4.6196,-4.6196,-4.6189,-4.6102,-4.6037,-4.5944,-4.5756,-4.5607,-4.5473,-4.54,-4.4691,-4.4173,-4.4113,-4.4456,-4.4685,-4.4685,-4.5048,-4.5297,-4.5297,-4.5297,-4.5297,-4.5297,-4.5297,-4.5297,-4.5297,-4.5297,-4.5297,-4.5297,-4.5256,-4.5254,-4.5254,-4.5213,-4.517,-4.0,-4.064,-4.084,-4.084,-3.8912,-3.6216,-3.3175,-2.9573,0.0,0.0,0.0,-2.0916,-2.047,0.0,0.0,0.0,0.0,0.0,0.0,0.0,0.0,0.0,0.0,0.0,0.0,0.0,0.0,0.0,0.0,0.0,-4.5549,-4.5549,-4.5549,-4.5549,-4.5549,-4.5618,-4.5746,-4.5852,-4.5925,-4.5997,-4.6007,-4.6037,-4.6084,-4.6102,-4.6146,-4.6181,-4.6138,0.0,-4.6196,-4.6138,-4.6138,-4.6189,-4.6189,-4.6183,-4.6183,-4.6183,-4.6203,-4.6197,-4.6205,-4.6191,-4.6208,-4.6192,-4.6209,-4.6196,-4.6196,-4.6196,-4.6196,-4.6196,-4.6196,-4.6196,-4.6196,-4.6196,-4.6196,-4.6196,-4.6196,-4.6196,-4.6196,-4.6196,-4.6196,-4.6196,-4.6196,-4.6154,-4.6017,-4.5956,-4.5841,-4.5541,-4.5473,-4.5419,-4.5298,-4.5297,-4.5297,-4.5297,-4.5297,-4.5297,-4.5297,-4.5297,-4.5297,-4.5297,-4.5297,-4.5297,-4.5275,-4.5275,-4.5275,-4.5275,-4.5275,-4.5256,-4.5275,-4.5233,-4.5213,-4.5213,-4.517,-4.5125,-3.8681,-3.9456,-4.0025,-4.0003,-3.7499,-3.4604,-3.2893,0.0,0.0,0.0,-2.133,-2.0432,-2.1158,0.0,0.0,0.0,0.0,0.0,0.0,0.0,0.0,0.0,0.0,0.0,0.0,0.0,0.0,0.0,0.0,0.0,-4.57,-4.5684,-4.5684,-4.5684,-4.5684,-4.5746,-4.588,-4.5893,-4.5925,-4.5997,-4.6066,-4.6066,-4.6007,-4.6138,-4.6154,-4.6102,-4.6181,0.0,0.0,-4.6138,-4.6102,-4.6102,-4.6102,-4.6102,-4.6111,-4.6189,-4.6203,-4.6192,-4.6209,-4.619,-4.6202,-4.6195,-4.6195,-4.6196,-4.6196,-4.6196,-4.6196,-4.6196,-4.6196,-4.6196,-4.6196,-4.6196,-4.6196,-4.6196,-4.6196,-4.6196,-4.6196,-4.6196,-4.6196,-4.6196,-4.6196,-4.6154,-4.6017,-4.5847,-4.5675,-4.5524,-4.54,-4.5298,-4.5297,-4.5297,-4.5297,-4.5297,-4.5297,-4.5297,-4.5297,-4.5297,-4.5297,-4.5297,-4.5297,-4.5275,-4.5213,-4.5213,-4.517,-4.5125,-4.5125,-4.5148,-4.5213,-4.5192,-4.5213,-4.5297,-4.5297,-4.5213,-3.8104,-3.9621,-4.0647,-4.0486,-3.7958,-3.4981,-3.29,0.0,0.0,-2.2912,-2.1263,-2.0212,-2.0556,-2.1063,0.0,0.0,0.0,0.0,0.0,0.0,0.0,0.0,0.0,0.0,0.0,0.0,0.0,0.0,0.0,0.0,-4.5873,-4.5827,-4.5819,-4.5819,-4.5819,-4.5852,-4.5893,-4.5937,-4.5964,-4.5997,-4.6027,-4.6056,-4.6066,-4.613,-4.6146,-4.6154,-4.6146,0.0,0.0,-4.6138,-4.6111,-4.6154,-4.6154,-4.6169,-4.6151,-4.6183,-4.6226,-4.6253,-4.6258,-4.623,-4.6202,-4.6199,-4.6201,-4.6196,-4.6196,-4.6196,-4.6196,-4.6196,-4.6196,-4.6196,-4.6196,-4.6196,-4.6196,-4.6196,-4.6196,-4.6196,-4.6196,-4.6196,-4.6196,-4.6196,-4.6196,-4.6119,-4.5871,-4.5744,-4.5615,-4.54,-4.5339,-4.5297,-4.5297,-4.5297,-4.5297,-4.5297,-4.5297,-4.5297,-4.5297,-4.5256,-4.5235,-4.5235,-4.5192,-4.517,-4.5148,-4.5148,-4.5125,-4.5103,-4.5103,-4.5125,-4.5148,-4.5103,-4.5103,-4.5125,-4.508,-4.5014,-3.6453,-3.8304,-3.9626,-3.9682,-3.7284,-3.4337,0.0,0.0,-2.4132,-2.2579,-2.111,-2.0088,-2.0088,-2.0595,-2.1359,0.0,0.0,0.0,0.0,0.0,0.0,0.0,0.0,0.0,0.0,0.0,0.0,0.0,0.0,0.0,-4.5997,-4.596,-4.5925,-4.5925,-4.5925,-4.5925,-4.5925,-4.5994,-4.5997,-4.5997,-4.6017,-4.6037,-4.6075,-4.6093,-4.613,-4.6181,-4.6111,0.0,0.0,-4.6146,-4.6154,-4.6196,-4.6209,-4.6209,-4.6206,-4.6216,-4.6269,-4.6303,-4.63,-4.6269,-4.6202,-4.6209,-4.6192,-4.6196,-4.6196,-4.6196,-4.6196,-4.6196,-4.6196,-4.6196,-4.6196,-4.6196,-4.6196,-4.6196,-4.6196,-4.6196,-4.6196,-4.6196,-4.6196,-4.6196,-4.6181,-4.6056,-4.5744,-4.5675,-4.5555,-4.532,-4.5297,-4.5297,-4.5297,-4.5297,-4.5297,-4.5297,-4.5297,-4.5297,-4.5297,-4.5254,-4.5213,-4.5213,-4.5148,-4.5103,-4.5103,-4.508,-4.5057,-4.5057,-4.5057,-4.5057,-4.508,-4.5014,-4.4991,-4.5033,-4.4967,-4.4895,-3.3109,-3.4722,-3.6141,-3.693,-3.4722,-3.1902,0.0,-2.6754,-2.337,-2.1731,-2.0709,-2.0088,-2.0088,-2.0108,-2.0671,-2.2333,0.0,0.0,0.0,0.0,0.0,0.0,0.0,0.0,0.0,0.0,0.0,0.0,0.0,0.0,-4.5997,-4.5997,-4.5997,-4.5997,-4.5997,-4.5997,-4.5997,-4.5997,-4.5997,-4.5997,-4.6075,-4.6047,-4.6007,-4.6075,-4.6093,-4.6093,0.0,-4.6138,0.0,-4.6196,-4.6196,-4.6203,-4.6195,-4.6206,-4.6211,-4.6273,-4.63,-4.63,-4.63,-4.6267,-4.6204,-4.6204,-4.6191,-4.6196,-4.6196,-4.6196,-4.6196,-4.6196,-4.6196,-4.6196,-4.6196,-4.6196,-4.6196,-4.6196,-4.6196,-4.6196,-4.6196,-4.6196,-4.6196,-4.6196,-4.6093,-4.5944,-4.5731,-4.5587,-4.5455,-4.5319,-4.5297,-4.5297,-4.5297,-4.5297,-4.5297,-4.5297,-4.5297,-4.5297,-4.5297,-4.5254,-4.5213,-4.5297,-4.517,-4.5103,-4.5103,-4.5057,-4.4967,-4.4895,-4.4895,-4.4919,-4.4991,-4.4991,-4.5014,-4.5103,-4.5103,-4.4881,-2.9878,-3.1373,-3.2543,-3.2202,-3.0922,-2.9351,-2.774,-2.5522,-2.3332,-2.1731,-2.0709,-2.0088,-2.0088,-2.0088,-2.1034,-2.3911,-2.4618,0.0,0.0,0.0,0.0,0.0,0.0,0.0,0.0,0.0,0.0,0.0,0.0,0.0,-4.5997,-4.5997,-4.5997,-4.5997,-4.5997,-4.5997,-4.5997,-4.5997,-4.5997,-4.5997,-4.6075,-4.6084,-4.6075,-4.6138,-4.6181,0.0,0.0,-4.6183,-4.6189,-4.6209,-4.619,-4.6195,-4.6203,-4.6196,-4.6196,-4.6228,-4.6226,-4.6225,-4.6225,-4.6229,-4.6202,-4.6209,-4.6192,-4.6196,-4.6196,-4.6196,-4.6196,-4.6196,-4.6196,-4.6196,-4.6196,-4.6196,-4.6196,-4.6196,-4.6196,-4.6196,-4.6196,-4.6196,-4.6162,-4.6084,-4.6027,-4.5922,-4.5603,-4.5524,-4.5455,-4.5319,-4.5297,-4.5297,-4.5297,-4.5297,-4.5297,-4.5297,-4.5297,-4.5297,-4.5297,-4.5254,-4.5192,-4.517,-4.508,-4.4991,-4.4986,-4.4943,-4.4919,-4.4895,-4.4895,-4.4895,-4.4919,-4.4919,-4.4827,-4.4617,-4.4617,-4.473,0.0,-2.8193,-2.9127,-2.894,-2.8048,-2.6866,-2.5589,-2.4056,-2.2528,-2.1177,-2.048,-2.0088,-2.0088,-2.0088,-2.0996,-2.3777,-2.4216,0.0,0.0,0.0,0.0,0.0,0.0,0.0,0.0,0.0,0.0,0.0,0.0,0.0,-4.5997,-4.5997,-4.5997,-4.5997,-4.5997,-4.5997,-4.5997,-4.5997,-4.5997,-4.5997,-4.6075,-4.6093,-4.6102,-4.6162,-4.6203,0.0,0.0,-4.6209,0.0,-4.6209,-4.6189,-4.6206,-4.6209,-4.6228,-4.6234,-4.6234,-4.6245,-4.6245,-4.6234,-4.621,-4.6202,-4.6199,-4.6201,-4.6196,-4.6196,-4.6196,-4.6196,-4.6196,-4.6196,-4.6196,-4.6196,-4.6196,-4.6196,-4.6196,-4.6196,-4.6196,-4.6196,-4.6154,-4.6093,-4.6017,-4.591,-4.5742,-4.5541,-4.5455,-4.54,-4.5298,-4.5297,-4.5297,-4.5297,-4.5297,-4.5297,-4.5256,-4.5256,-4.5235,-4.5233,-4.5192,-4.5148,-4.5103,-4.5014,-4.4943,-4.4919,-4.4895,-4.4895,-4.4895,-4.4895,-4.4895,-4.4895,-4.5098,-4.4982,-4.468,-4.4969,-4.5196,0.0,-2.4974,-2.5695,-2.6571,-2.5655,-2.4358,-2.3689,-2.2421,0.0,-2.026,-2.0088,-2.0127,-2.0241,-2.0222,-2.0805,-2.2658,-2.3002,0.0,0.0,0.0,0.0,0.0,0.0,0.0,0.0,0.0,0.0,0.0,0.0,0.0,-4.5997,-4.5997,-4.5997,-4.5997,-4.5997,-4.5997,-4.5997,-4.5997,-4.6007,-4.6007,-4.6075,-4.6102,-4.6111,-4.6169,-4.6203,0.0,-4.6206,-4.6206,-4.6206,-4.6206,-4.6206,-4.6206,-4.6206,-4.624,-4.6296,-4.6296,-4.6296,-4.6284,-4.6284,-4.625,-4.6202,-4.6195,-4.6195,-4.6196,-4.6196,-4.6196,-4.6196,-4.6196,-4.6196,-4.6196,-4.6196,-4.6196,-4.6196,-4.6196,-4.6196,-4.6196,-4.6189,-4.6084,-4.5997,-4.5975,-4.5713,-4.5509,-4.5491,-4.5381,-4.5297,-4.5297,-4.5297,-4.5297,-4.5297,-4.5297,-4.5275,-4.5192,-4.5192,-4.517,-4.5103,-4.5103,-4.5103,-4.5103,-4.4986,-4.4919,-4.4991,-4.4919,-4.4895,-4.4895,-4.487,-4.4889,-4.4965,-4.535,-4.5424,-4.5152,-4.5912,-4.6131,-1.8849,0.0,-2.0527,-2.0637,-2.0906,-2.1093,0.0,-2.1047,0.0,0.0,0.0,0.0,0.0,0.0,0.0,0.0,0.0,0.0,0.0,0.0,0.0,0.0,0.0,0.0,0.0,0.0,0.0,0.0,0.0,-4.5997,-4.5997,-4.5997,-4.5997,-4.5997,-4.5997,-4.5997,-4.5997,-4.5997,-4.6017,-4.6084,-4.6146,-4.6183,-4.6189,-4.6195,-4.6201,-4.6206,-4.6206,-4.6195,-4.619,-4.6201,-4.6195,-4.619,-4.619,-4.6216,-4.6222,-4.6222,-4.622,-4.6225,-4.6226,-4.621,-4.62,-4.6206,-4.6209,-4.6196,-4.6196,-4.6196,-4.6196,-4.6196,-4.6196,-4.6196,-4.6196,-4.6196,-4.6196,-4.6196,-4.6196,-4.6162,-4.6075,-4.6017,-4.5922,-4.5669,-4.5558,-4.5473,-4.5361,-4.5319,-4.5297,-4.5297,-4.5297,-4.5297,-4.5213,-4.5213,-4.5192,-4.5125,-4.5125,-4.5103,-4.5014,-4.508,-4.508,-4.5033,-4.4991,-4.4943,-4.4919,-4.4895,-4.4895,-4.4895,-4.4655,-4.4831,-4.5444,-4.5294,-4.5356,-4.5661,-4.5844,-4.6066,-1.6222,-1.807,-1.9882,-1.9809,-2.0422,-2.1058,-2.1053,0.0,0.0,0.0,0.0,0.0,0.0,0.0,0.0,0.0,0.0,0.0,0.0,0.0,0.0,0.0,0.0,0.0,0.0,0.0,0.0,0.0,0.0,-4.5997,-4.5997,-4.5997,-4.5997,-4.5997,-4.5997,-4.5997,-4.5997,-4.6027,-4.6056,-4.6066,-4.6154,-4.6183,-4.6164,-4.6195,-4.6206,-4.6206,-4.624,-4.6231,-4.6203,-4.6201,-4.6201,-4.6203,-4.6203,-4.6209,-4.6245,-4.6245,-4.625,-4.6234,-4.621,-4.62,-4.6206,-4.6196,-4.6196,-4.6196,-4.6196,-4.6196,-4.6196,-4.6196,-4.6196,-4.6196,-4.6196,-4.6196,-4.6196,-4.6196,-4.6196,-4.6154,-4.6027,-4.5933,-4.5796,-4.5541,-4.5437,-4.5381,-4.5298,-4.5297,-4.5297,-4.5297,-4.5297,-4.5297,-4.5235,-4.5254,-4.5213,-4.5125,-4.5103,-4.5057,-4.4943,-4.501,-4.4991,-4.4943,-4.4943,-4.4919,-4.4895,-4.4895,-4.4846,-4.4681,-4.486,-4.5028,-4.5119,-4.57,-4.6029,-4.6132,-4.6515,-4.6815,-1.5225,-1.8245,-2.1285,-2.0868,-2.1456,-2.2135,0.0,0.0,0.0,0.0,0.0,0.0,0.0,0.0,0.0,0.0,0.0,0.0,0.0,0.0,0.0,0.0,0.0,0.0,0.0,0.0,0.0,0.0,0.0,-4.5997,-4.5997,-4.5997,-4.5997,-4.5997,-4.5997,-4.5997,-4.5997,-4.6066,-4.6066,-4.6017,-4.6138,-4.6162,-4.6119,-4.6177,-4.6201,-4.6206,0.0,0.0,-4.6201,-4.6211,-4.6206,-4.6201,-4.6206,-4.6236,-4.6273,-4.6277,-4.628,-4.627,-4.6229,-4.621,-4.6196,-4.6196,-4.6196,-4.6196,-4.6196,-4.6196,-4.6196,-4.6196,-4.6196,-4.6196,-4.6196,-4.6196,-4.6196,-4.6196,-4.6189,-4.6138,-4.5997,-4.579,-4.563,-4.5509,-4.5361,-4.5297,-4.5297,-4.5297,-4.5297,-4.5297,-4.5297,-4.5297,-4.5297,-4.5275,-4.5213,-4.5103,-4.508,-4.5014,-4.4895,-4.4895,-4.4895,-4.4895,-4.4895,-4.487,-4.4846,-4.4827,-4.4738,-4.4515,-4.5121,-4.5281,-4.4967,-4.6286,-4.6843,-4.6703,-4.7391,-4.7717,-1.6571,-1.948,-2.1613,-1.9461,-2.0076,-2.1411,0.0,0.0,0.0,0.0,0.0,0.0,0.0,0.0,0.0,0.0,0.0,0.0,0.0,0.0,0.0,0.0,0.0,0.0,0.0,0.0,0.0,0.0,0.0,-4.5997,-4.5997,-4.5997,-4.5997,-4.5997,-4.5997,-4.5997,-4.5997,-4.6007,-4.6027,-4.6084,-4.6122,-4.6142,-4.6176,-4.6196,-4.6203,-4.6206,0.0,-4.6215,-4.619,-4.626,-4.6255,-4.6209,-4.6195,-4.6215,-4.6216,-4.6226,-4.6214,-4.62,-4.6198,-4.6206,-4.6196,-4.6196,-4.6196,-4.6196,-4.6196,-4.6196,-4.6196,-4.6196,-4.6196,-4.6196,-4.6196,-4.6196,-4.6196,-4.6196,-4.6102,-4.5977,-4.579,-4.5634,-4.549,-4.5361,-4.5298,-4.5297,-4.5297,-4.5297,-4.5297,-4.5297,-4.5297,-4.5275,-4.5213,-4.517,-4.5103,-4.5014,-4.4967,-4.4919,-4.4895,-4.4895,-4.4895,-4.4895,-4.4895,-4.4777,-4.4484,-4.4484,-4.4636,-4.4997,-4.4853,-4.5368,-4.6616,-4.6582,-4.6889,-4.7518,-4.7645,-4.7717,-1.5752,-1.8411,-2.0772,-2.0026,-2.2158,-2.4633,0.0,0.0,0.0,0.0,0.0,0.0,0.0,0.0,0.0,0.0,0.0,0.0,0.0,0.0,0.0,0.0,0.0,0.0,0.0,0.0,0.0,0.0,0.0,0.0,-4.5997,-4.5997,-4.5997,-4.5997,-4.5997,-4.5997,-4.5997,-4.5997,-4.6017,-4.6056,-4.613,-4.6162,-4.6157,-4.6177,-4.6195,-4.6206,0.0,-4.624,-4.625,-4.624,-4.626,-4.625,-4.6206,-4.6221,-4.6241,-4.6202,-4.6191,-4.6205,-4.6202,-4.6201,-4.6196,-4.6196,-4.6196,-4.6196,-4.6196,-4.6196,-4.6196,-4.6196,-4.6196,-4.6196,-4.6196,-4.6196,-4.6189,-4.6102,-4.6037,-4.5933,-4.565,-4.5539,-4.5455,-4.5319,-4.5297,-4.5297,-4.5297,-4.5297,-4.5297,-4.5297,-4.5297,-4.5275,-4.5213,-4.517,-4.5125,-4.4991,-4.4967,-4.4943,-4.4895,-4.4895,-4.4895,-4.4895,-4.4732,-4.4764,-4.504,-4.4886,-4.4984,-4.5453,-4.5736,-4.6175,-4.6749,-4.7003,-4.7355,-4.7717,-4.7717,-4.7717,-1.5554,-1.7693,-2.0089,0.0,0.0,0.0,0.0,0.0,0.0,0.0,0.0,0.0,0.0,0.0,0.0,0.0,0.0,0.0,0.0,0.0,0.0,0.0,0.0,0.0,0.0,0.0,0.0,0.0,0.0,0.0,-4.5997,-4.5997,-4.5997,-4.5997,-4.5997,-4.5997,-4.5997,-4.5997,-4.6007,-4.6017,-4.6138,-4.6162,-4.6127,-4.6183,-4.6206,-4.6211,-4.6273,-4.6296,-4.6273,-4.624,-4.6249,-4.6264,-4.623,-4.6228,-4.6269,-4.6226,-4.6189,-4.6206,-4.6197,-4.6189,-4.6196,-4.6196,-4.6196,-4.6196,-4.6196,-4.6196,-4.6196,-4.6196,-4.6196,-4.6196,-4.6196,-4.6196,-4.6181,-4.6027,-4.5956,-4.5854,-4.5558,-4.5473,-4.5419,-4.5319,-4.5297,-4.5297,-4.5297,-4.5297,-4.5297,-4.5297,-4.5297,-4.5275,-4.5213,-4.5192,-4.5125,-4.5014,-4.4986,-4.4962,-4.4895,-4.4991,-4.506,-4.506,-4.4812,-4.4955,-4.5599,-4.5384,-4.5489,-4.5936,-4.6576,-4.684,-4.6794,-4.7409,-4.7717,-4.7717,-4.7717,-4.7717,-1.7836,-1.9,-2.037,0.0,0.0,0.0,0.0,0.0,0.0,0.0,0.0,0.0,0.0,0.0,0.0,0.0,0.0,0.0,0.0,0.0,0.0,0.0,0.0,0.0,0.0,0.0,0.0,0.0,0.0,0.0,-4.5997,-4.5997,-4.5997,-4.5997,-4.5997,-4.5997,-4.5997,-4.5997,-4.6027,-4.6093,-4.6102,-4.6142,-4.6181,-4.6206,-4.6206,-4.6211,-4.6273,-4.6249,-4.6211,-4.6273,-4.6264,-4.6215,-4.6192,-4.6204,-4.6211,-4.6202,-4.6206,-4.6201,-4.6203,-4.6203,-4.6196,-4.6196,-4.6196,-4.6196,-4.6196,-4.6196,-4.6196,-4.6196,-4.6196,-4.6196,-4.6196,-4.6196,-4.6181,-4.6027,-4.5859,-4.5675,-4.5541,-4.54,-4.5298,-4.5297,-4.5297,-4.5297,-4.5297,-4.5297,-4.5297,-4.5297,-4.5297,-4.5275,-4.5213,-4.5148,-4.508,-4.501,-4.4943,-4.4914,-4.4895,-4.53,-4.5547,-4.5547,-4.5519,-4.5606,-4.579,-4.5755,-4.5973,-4.6436,-4.6509,-4.6907,-4.7627,-4.7681,-4.7717,-4.7717,-4.7717,-4.7717,-1.6841,-1.9131,0.0,0.0,0.0,0.0,0.0,0.0,0.0,0.0,0.0,0.0,0.0,0.0,0.0,0.0,0.0,0.0,0.0,0.0,0.0,0.0,0.0,0.0,0.0,0.0,0.0,0.0,0.0,0.0,-4.5997,-4.5997,-4.5997,-4.5997,-4.5997,-4.5997,-4.5997,-4.6037,-4.6075,-4.6093,-4.6093,-4.6146,-4.6196,-4.6201,-4.6206,-4.6211,-4.6273,-4.6296,-4.6249,-4.6245,-4.6256,-4.6265,-4.6229,-4.62,-4.6192,-4.6201,-4.6201,-4.6203,-4.6203,-4.6196,-4.6196,-4.6196,-4.6196,-4.6196,-4.6196,-4.6196,-4.6196,-4.6196,-4.6196,-4.6196,-4.6196,-4.6138,-4.6037,-4.5859,-4.5694,-4.5541,-4.54,-4.5339,-4.5297,-4.5297,-4.5297,-4.5297,-4.5297,-4.5297,-4.5297,-4.5297,-4.5256,-4.5213,-4.5148,-4.508,-4.5014,-4.4943,-4.4938,-4.5029,-4.5319,-4.55,-4.5847,-4.6419,-4.6012,-4.5967,-4.6525,-4.6353,-4.6557,-4.7228,-4.7265,-4.7409,-4.7717,-4.7717,-4.7717,-4.7717,-4.7717,-4.7717,-1.6935,-1.9319,0.0,0.0,0.0,0.0,0.0,0.0,0.0,0.0,0.0,0.0,0.0,0.0,0.0,0.0,0.0,0.0,0.0,0.0,0.0,0.0,0.0,0.0,0.0,0.0,0.0,0.0,0.0,0.0,0.0,-4.5997,-4.5997,-4.5997,-4.5997,-4.5997,-4.5997,-4.6056,-4.6084,-4.6093,-4.6093,-4.6146,-4.6196,-4.6201,-4.6206,-4.6211,-4.6273,-4.6296,-4.6273,-4.6234,-4.6248,-4.6267,-4.6214,-4.6206,-4.6206,-4.619,-4.6196,-4.6196,-4.6196,-4.6196,-4.6196,-4.6196,-4.6196,-4.6196,-4.6196,-4.6196,-4.6196,-4.6196,-4.6162,-4.6138,-4.6138,-4.6075,-4.5944,-4.5689,-4.5571,-4.5455,-4.5339,-4.5297,-4.5297,-4.5297,-4.5297,-4.5297,-4.5297,-4.5297,-4.5297,-4.5275,-4.5213,-4.517,-4.508,-4.5033,-4.5081,-4.5274,-4.5445,-4.5647,-4.5998,-4.6022,-4.6335,-4.6947,-4.6632,-4.6647,-4.7213,-4.6989,-4.7156,-4.7699,-4.7717,-4.7717,-4.7717,-4.7717,-4.7717,-4.7717,-4.7717,-4.7717,-1.8737,0.0,0.0,0.0,0.0,0.0,0.0,0.0,0.0,0.0,0.0,0.0,0.0,0.0,0.0,0.0,0.0,0.0,0.0,0.0,0.0,0.0,0.0,0.0,0.0,0.0,0.0,0.0,0.0,0.0,0.0,-4.5997,-4.5997,-4.5997,-4.5997,-4.5997,-4.5997,-4.5997,-4.6027,-4.6093,-4.6093,-4.6142,-4.6206,-4.6206,-4.6206,-4.6211,-4.6273,-4.6249,-4.6211,-4.628,-4.6265,-4.6201,-4.6196,-4.6196,-4.6196,-4.6196,-4.6196,-4.6196,-4.6196,-4.6196,-4.6196,-4.6196,-4.6196,-4.6196,-4.6196,-4.6196,-4.6196,-4.6196,-4.6102,-4.5997,-4.5997,-4.5997,-4.5922,-4.5574,-4.549,-4.5455,-4.5339,-4.5297,-4.5297,-4.5297,-4.5297,-4.5297,-4.5297,-4.5297,-4.5275,-4.5213,-4.5192,-4.5148,-4.5033,-4.501,-4.5328,-4.6108,-4.6619,-4.6888,-4.6888,-4.6974,-4.6983,-4.7001,-4.7434,-4.7717,-4.7717,-4.7717,-4.7717,-4.7717,-4.7717,-4.7717,-4.7717,-4.7717,-4.7717,-4.7717,-4.7717,-4.7717,-1.8737,0.0,0.0,0.0,0.0,0.0,0.0,0.0,0.0,0.0,0.0,0.0,0.0,0.0,0.0,0.0,0.0,0.0,0.0,0.0,0.0,0.0,0.0,0.0,0.0,0.0,0.0,0.0,0.0,0.0,0.0,-4.5997,-4.5997,-4.5997,-4.5997,-4.5997,-4.5997,-4.6056,-4.6084,-4.6093,-4.6146,-4.6176,-4.6196,-4.6201,-4.6206,-4.6192,-4.6273,-4.6282,-4.6261,-4.6245,-4.621,-4.6203,-4.6203,-4.6196,-4.6196,-4.6196,-4.6196,-4.6196,-4.6196,-4.6196,-4.6196,-4.6196,-4.6196,-4.6196,-4.6196,-4.6196,-4.6189,-4.6084,-4.6027,-4.5944,-4.5713,-4.5654,-4.5623,-4.5524,-4.5419,-4.5341,-4.5317,-4.5297,-4.5297,-4.5297,-4.5297,-4.5297,-4.5297,-4.5297,-4.5275,-4.5213,-4.517,-4.52,-4.5402,-4.5665,-4.5961,-4.6233,-4.666,-4.6912,-4.696,-4.6985,-4.7124,-4.7448,-4.7614,-4.7717,-4.7717,-4.7717,-4.7717,-4.7717,-4.7717,-4.7717,-4.7717,-4.7717,-4.7717,-4.7717,-4.7717,-4.7717,0.0,0.0,0.0,0.0,0.0,0.0,0.0,0.0,0.0,0.0,0.0,0.0,0.0,0.0,0.0,0.0,0.0,0.0,0.0,0.0,0.0,0.0,0.0,0.0,0.0,0.0,0.0,0.0,0.0,0.0,0.0,-4.5997,-4.5997,-4.5997,-4.5997,-4.5997,-4.5997,-4.6037,-4.6075,-4.6093,-4.6181,-4.6203,-4.6203,-4.6201,-4.6201,-4.6245,-4.6248,-4.6268,-4.6265,-4.6222,-4.6201,-4.6196,-4.6196,-4.6196,-4.6196,-4.6196,-4.6196,-4.6196,-4.6196,-4.6196,-4.6196,-4.6196,-4.6429,-4.6722,-4.6722,-4.6894,-4.7105,-4.7028,-4.6887,-4.667,-4.6138,-4.5955,-4.5822,-4.5496,-4.5361,-4.5297,-4.5297,-4.5297,-4.5297,-4.5297,-4.5297,-4.5297,-4.5297,-4.5297,-4.5275,-4.5213,-4.528,-4.5526,-4.6064,-4.6477,-4.6813,-4.7018,-4.7295,-4.7469,-4.7517,-4.7362,-4.7401,-4.7681,-4.7717,-4.7717,-4.7717,-4.7717,-4.7717,-4.7717,-4.7717,-4.7717,-4.7717,-4.7717,-4.7717,-4.7717,-4.7717,-4.7717,0.0,0.0,0.0,0.0,0.0,0.0,0.0,0.0,0.0,0.0,0.0,0.0,0.0,0.0,0.0,0.0,0.0,0.0,0.0,0.0,0.0,0.0,0.0,0.0,0.0,0.0,0.0,0.0,0.0,0.0,0.0,-4.5997,-4.5997,-4.5997,-4.5997,-4.5997,-4.5997,-4.5997,-4.6047,-4.6102,-4.6162,-4.6203,-4.6216,-4.6216,-4.6245,-4.6289,-4.6226,-4.6189,-4.6201,-4.6201,-4.6201,-4.6196,-4.6196,-4.6196,-4.6196,-4.6196,-4.6196,-4.6196,-4.6196,-4.6254,-4.6313,-4.6313,-4.6917,-4.7618,-4.7618,-4.802,-4.851,-4.8499,-4.8261,-4.7818,-4.6992,-4.6646,-4.6309,-4.5488,-4.5297,-4.5297,-4.5297,-4.5297,-4.5297,-4.5297,-4.5297,-4.5316,-4.5392,-4.5411,-4.5409,-4.5379,-4.5634,-4.6083,-4.681,-4.7341,-4.776,-4.8041,-4.8214,-4.8267,-4.8229,-4.7888,-4.7717,-4.7717,-4.7717,-4.7717,-4.7717,-4.7717,-4.7717,-4.7717,-4.7717,-4.7717,-4.7717,-4.7717,-4.7717,-4.7717,-4.7717,-4.7753,0.0,0.0,0.0,0.0,0.0,0.0,0.0,0.0,0.0,0.0,0.0,0.0,0.0,0.0,0.0,0.0,0.0,0.0,0.0,0.0,0.0,0.0,0.0,0.0,0.0,0.0,0.0,0.0,0.0,0.0,-4.5997,-4.5997,-4.5997,-4.5997,-4.5997,-4.5997,-4.5997,-4.5997,-4.6066,-4.6189,-4.6196,-4.6231,-4.6282,-4.6282,-4.6269,-4.6225,-4.6199,-4.6197,-4.6196,-4.6196,-4.6209,-4.6196,-4.6196,-4.6196,-4.6196,-4.6196,-4.6196,-4.6196,-4.6196,-4.6644,-4.7209,-4.7209,-4.7813,-4.8514,-4.8514,-4.8506,-4.8468,-4.8366,-4.8166,-4.778,-4.6797,-4.6543,-4.6309,-4.5488,-4.5297,-4.5297,-4.5297,-4.5297,-4.5297,-4.5297,-4.5297,-4.5488,-4.6137,-4.6233,-4.6332,-4.6663,-4.6666,-4.6738,-4.6962,-4.7578,-4.7932,-4.7785,-4.808,-4.8151,-4.7866,-4.7741,-4.7717,-4.7717,-4.7717,-4.7717,-4.7717,-4.7717,-4.7717,-4.7717,-4.7717,-4.7717,-4.7717,-4.7717,-4.7717,-4.7717,-4.7717,-4.8043,0.0,0.0,0.0,0.0,0.0,0.0,0.0,0.0,0.0,0.0,0.0,0.0,0.0,0.0,0.0,0.0,0.0,0.0,0.0,0.0,0.0,0.0,0.0,0.0,0.0,0.0,0.0,0.0,0.0,-4.5997,-4.5997,-4.5997,-4.5997,-4.5997,-4.5997,-4.5997,-4.5997,-4.6027,-4.6072,-4.6156,-4.6192,-4.6215,-4.6245,-4.6245,-4.6234,-4.6206,-4.6206,-4.6203,-4.6196,-4.6196,-4.6196,-4.6196,-4.6196,-4.6196,-4.6196,-4.6196,-4.6196,-4.6196,-4.6196,-4.6761,-4.7501,-4.7501,-4.8358,-4.9364,-4.9303,-4.9435,-4.9581,-4.9434,-4.926,-4.8886,-4.7974,-4.7742,-4.7532,-4.6691,-4.587,-4.5297,-4.5297,-4.5297,-4.5297,-4.5297,-4.5602,-4.6003,-4.6424,-4.6652,-4.6878,-4.7161,-4.709,-4.7154,-4.7591,-4.7795,-4.7924,-4.7995,-4.801,-4.7929,-4.7717,-4.7717,-4.7717,-4.7717,-4.7717,-4.7717,-4.7717,-4.7717,-4.7717,-4.7717,-4.7717,-4.7717,-4.7717,-4.7717,-4.7717,-4.7717,-4.7717,-4.8134,0.0,0.0,0.0,0.0,0.0,0.0,0.0,0.0,0.0,0.0,0.0,0.0,0.0,0.0,0.0,0.0,0.0,0.0,0.0,0.0,0.0,0.0,0.0,0.0,0.0,0.0,0.0,0.0,0.0,-4.5997,-4.5997,-4.5997,-4.5997,-4.5997,-4.5997,-4.5997,-4.5997,-4.6065,-4.6098,-4.6108,-4.6178,-4.619,-4.6206,-4.6201,-4.6197,-4.6197,-4.6196,-4.6196,-4.6196,-4.6196,-4.6196,-4.6196,-4.6196,-4.6196,-4.6196,-4.6196,-4.6196,-4.6196,-4.6196,-4.6878,-4.7715,-4.7715,-4.8838,-5.0168,-5.0059,-5.037,-5.0745,-5.0644,-5.0462,-5.0111,-4.9308,-4.9098,-4.8869,-4.8009,-4.6748,-4.5736,-4.5736,-4.5736,-4.5736,-4.5736,-4.6323,-4.6832,-4.6832,-4.7105,-4.7353,-4.7459,-4.739,-4.7536,-4.8098,-4.797,-4.7888,-4.8151,-4.7888,-4.7717,-4.7717,-4.7717,-4.7717,-4.7717,-4.7717,-4.7717,-4.7717,-4.7717,-4.7717,-4.7717,-4.7717,-4.7717,-4.7717,-4.7717,-4.7717,-4.7717,-4.7844,-4.8351,0.0,0.0,0.0,0.0,0.0,0.0,0.0,0.0,0.0,0.0,0.0,0.0,0.0,0.0,0.0,0.0,0.0,0.0,0.0,0.0,0.0,0.0,0.0,0.0,0.0,0.0,0.0,0.0,-4.5997,-4.5997,-4.5997,-4.5997,-4.5997,-4.5997,-4.5997,-4.5997,-4.5997,-4.6068,-4.6098,-4.6089,-4.617,-4.6199,-4.6206,-4.6209,-4.6209,-4.6209,-4.6203,-4.6196,-4.6196,-4.6196,-4.6196,-4.6196,-4.6196,-4.6196,-4.6196,-4.6196,-4.6196,-4.6196,-4.6196,-4.7267,-4.8631,-4.8631,-4.9683,-5.0953,-5.093,-5.0782,-5.0625,-5.0625,-5.0462,-5.0111,-4.9308,-4.9098,-4.8869,-4.8009,-4.7646,-4.7474,-4.7474,-4.7474,-4.7474,-4.7474,-4.7832,-4.8159,-4.8159,-4.8183,-4.8218,-4.8237,-4.818,-4.8062,-4.7806,-4.805,-4.813,-4.7824,-4.7741,-4.7717,-4.7717,-4.7717,-4.7717,-4.7717,-4.7717,-4.7717,-4.7717,-4.7717,-4.7717,-4.7717,-4.7717,-4.7717,-4.7717,-4.7717,-4.7717,-4.7735,-4.8442,-4.9166,0.0,0.0,0.0,0.0,0.0,0.0,0.0,0.0,0.0,0.0,0.0,0.0,0.0,0.0,0.0,0.0,0.0,0.0,0.0,0.0,0.0,0.0,0.0,0.0,0.0,0.0,0.0,0.0,-4.5997,-4.5997,-4.5997,-4.5997,-4.5997,-4.5997,-4.6036,-4.6063,-4.6063,-4.6114,-4.6163,-4.6151,-4.6191,-4.6195,-4.6189,-4.6209,-4.6196,-4.6196,-4.6196,-4.6196,-4.6196,-4.6196,-4.6196,-4.6196,-4.6196,-4.6196,-4.6196,-4.6196,-4.6196,-4.6274,-4.6761,-4.7754,-4.8857,-4.9235,-5.0148,-5.1062,-5.0879,-5.0735,-5.0586,-5.0464,-5.0374,-5.0225,-4.9862,-4.9767,-4.9671,-4.9289,-4.9213,-4.9213,-4.9213,-4.8468,-4.7952,-4.843,-4.8658,-4.8802,-4.8851,-4.8805,-4.8621,-4.8172,-4.805,-4.7888,-4.7699,-4.7847,-4.7888,-4.7717,-4.7717,-4.7717,-4.7717,-4.7717,-4.7717,-4.7717,-4.7717,-4.7717,-4.7717,-4.7717,-4.7717,-4.7717,-4.7717,-4.7717,-4.7717,-4.7717,-4.7935,-4.8387,-4.8749,-4.9582,0.0,0.0,0.0,0.0,0.0,0.0,0.0,0.0,0.0,0.0,0.0,0.0,0.0,0.0,0.0,0.0,0.0,0.0,0.0,0.0,0.0,0.0,0.0,0.0,0.0,0.0,0.0,0.0,-4.5997,-4.5997,-4.5997,-4.5997,-4.6017,-4.6018,-4.6068,-4.6112,-4.6125,-4.618,-4.6205,-4.6192,-4.6196,-4.6196,-4.6196,-4.6196,-4.6196,-4.6196,-4.6196,-4.6196,-4.6196,-4.6196,-4.6196,-4.6196,-4.6196,-4.6196,-4.6196,-4.6196,-4.6332,-4.6624,-4.7225,-4.8132,-4.9127,-4.9579,-5.0293,-5.0942,-5.0681,-5.0547,-5.0485,-5.0329,-5.0302,-5.0302,-5.0302,-5.0302,-5.0302,-5.0302,-5.0302,-5.0302,-5.0302,-4.9328,-4.864,-4.927,-4.9248,-4.9129,-4.9196,-4.8915,-4.8549,-4.7966,-4.7777,-4.7717,-4.7717,-4.7717,-4.7717,-4.7717,-4.7717,-4.7717,-4.7717,-4.7717,-4.7717,-4.7717,-4.7717,-4.7717,-4.7717,-4.7717,-4.7717,-4.7717,-4.7717,-4.7717,-4.7717,-4.7916,-4.8333,-4.8931,-4.9329,-5.0144,0.0,0.0,0.0,0.0,0.0,0.0,0.0,0.0,0.0,0.0,0.0,0.0,0.0,0.0,0.0,0.0,0.0,0.0,0.0,0.0,0.0,0.0,0.0,0.0,0.0,0.0,0.0,0.0,-4.5997,-4.5997,-4.5997,-4.5997,-4.6027,-4.6091,-4.6098,-4.6131,-4.6199,-4.6191,-4.6206,-4.6203,-4.6196,-4.6196,-4.6196,-4.6196,-4.6196,-4.6196,-4.6196,-4.6196,-4.6196,-4.6196,-4.6196,-4.6196,-4.6196,-4.6196,-4.6196,-4.6196,-4.6722,-4.7416,-4.7271,-4.8327,-4.9722,-4.9558,-5.0019,-5.0625,-5.0625,-5.0464,-5.0325,-5.0302,-5.0302,-5.0302,-5.0302,-5.0302,-5.0302,-5.0302,-5.0302,-5.0302,-5.0302,-5.0225,-5.0187,-5.0225,-4.9664,-4.919,-4.9196,-4.8532,-4.7925,-4.792,-4.7777,-4.7717,-4.7717,-4.7717,-4.7717,-4.7717,-4.7717,-4.7717,-4.7717,-4.7717,-4.7717,-4.7717,-4.7717,-4.7717,-4.7717,-4.7717,-4.7717,-4.7717,-4.7717,-4.7717,-4.7717,-4.8478,-4.8876,-4.8949,-5.047,-5.1212,0.0,0.0,0.0,0.0,0.0,0.0,0.0,0.0,0.0,0.0,0.0,0.0,0.0,0.0,0.0,0.0,0.0,0.0,0.0,0.0,0.0,0.0,0.0,0.0,0.0,0.0,0.0,0.0,0.0,-4.5453,-4.5958,-4.6046,-4.6068,-4.6098,-4.6132,-4.6189,-4.6202,-4.6199,-4.6206,-4.6196,-4.6196,-4.6196,-4.6196,-4.6196,-4.6196,-4.6196,-4.6196,-4.6196,-4.6196,-4.6196,-4.6196,-4.6196,-4.6196,-4.6196,-4.6196,-4.6196,-4.6341,-4.6669,-4.7697,-4.8386,-4.8991,-4.9922,-5.0374,-5.0586,-5.0462,-5.0352,-5.0302,-5.0302,-5.0302,-5.0302,-5.0302,-5.0302,-5.0302,-5.0302,-5.0302,-5.0302,-5.0302,-5.0302,-5.0236,-5.0025,-4.9776,-4.9394,-4.8847,-4.8477,-4.8172,-4.7824,-4.7717,-4.7717,-4.7717,-4.7717,-4.7717,-4.7717,-4.7717,-4.7717,-4.7717,-4.7717,-4.7717,-4.7717,-4.7717,-4.7717,-4.7717,-4.7717,-4.7717,-4.7717,-4.7717,-4.7717,-4.7717,-4.8532,-4.9184,-4.9691,-5.0778,-5.1574,0.0,0.0,0.0,0.0,0.0,0.0,0.0,0.0,0.0,0.0,0.0,0.0,0.0,0.0,0.0,0.0,0.0,0.0,0.0,0.0,0.0,0.0,0.0,0.0,0.0,0.0,0.0,0.0,0.0,0.0,-4.5541,-4.564,-4.5813,-4.6123,-4.619,-4.6234,-4.6236,-4.6215,-4.6196,-4.6209,-4.6203,-4.6196,-4.6196,-4.6196,-4.6196,-4.6196,-4.6196,-4.6196,-4.6196,-4.6196,-4.6196,-4.6196,-4.6196,-4.6196,-4.6196,-4.6196,-4.6286,-4.6599,-4.7959,-4.8532,-4.8842,-5.0086,-5.0506,-5.0464,-5.0329,-5.0302,-5.0302,-5.0302,-5.0302,-5.0302,-5.0302,-5.0302,-5.0302,-5.0302,-5.0212,-5.0144,-5.0144,-5.0144,-5.0076,-4.9857,-4.9618,-4.924,-4.8657,-4.8421,-4.8192,-4.7824,-4.7717,-4.7717,-4.7717,-4.7717,-4.7717,-4.7717,-4.7717,-4.7717,-4.7717,-4.7717,-4.7717,-4.7717,-4.7717,-4.7717,-4.7717,-4.7717,-4.7717,-4.7717,-4.7717,-4.7717,-4.7717,-4.8786,-4.9582,-5.0108,-5.1194,-5.1991,0.0,0.0,0.0,0.0,0.0,0.0,0.0,0.0,0.0,0.0,0.0,0.0,0.0,0.0,0.0,0.0,0.0,0.0,0.0,0.0,0.0,0.0,0.0,0.0,0.0,0.0,0.0,0.0,-4.3471,-4.3849,-4.4715,-4.48,-4.5226,-4.6172,-4.6251,-4.6303,-4.6303,-4.624,-4.6203,-4.6203,-4.6209,-4.6196,-4.6196,-4.6196,-4.6196,-4.6196,-4.6196,-4.6196,-4.6196,-4.6196,-4.6196,-4.6196,-4.6196,-4.6196,-4.6196,-4.6196,-4.6608,-4.7256,-4.7995,-4.8692,-4.9375,-5.0026,-5.0283,-5.0302,-5.0302,-5.0302,-5.0302,-5.0302,-5.0302,-5.0302,-5.0302,-5.0302,-5.0302,-5.0302,-5.0051,-4.9803,-4.9803,-4.9784,-4.9776,-4.9776,-4.9196,-4.8694,-4.8677,-4.8229,-4.7902,-4.7902,-4.7759,-4.7717,-4.7717,-4.7717,-4.7717,-4.7717,-4.7717,-4.7717,-4.7717,-4.7717,-4.7717,-4.7717,-4.7717,-4.7717,-4.7717,-4.7717,-4.7717,-4.7717,-4.7717,-4.7717,-4.7717,-4.9293,-5.0053,-5.009,-5.1719,-5.248,-1.2655,0.0,0.0,0.0,0.0,0.0,0.0,0.0,0.0,0.0,0.0,0.0,0.0,0.0,0.0,0.0,0.0,0.0,0.0,0.0,0.0,0.0,0.0,0.0,0.0,0.0,0.0,0.0,-4.2558,-4.2935,-4.3812,-4.4501,-4.5292,-4.6237,-4.623,-4.6231,-4.6231,-4.6203,-4.6203,-4.6203,-4.6203,-4.6196,-4.6196,-4.6196,-4.6196,-4.6196,-4.6196,-4.6196,-4.6196,-4.6196,-4.6196,-4.6196,-4.6196,-4.6146,-4.6066,-4.6066,-4.6014,-4.6101,-4.6923,-4.7645,-4.8345,-4.9159,-4.9824,-5.0302,-5.0302,-5.0302,-5.0302,-5.0302,-5.0302,-5.0302,-5.0302,-5.0302,-5.0302,-5.0302,-5.0051,-4.9803,-4.9803,-4.9363,-4.9001,-4.9001,-4.885,-4.8569,-4.8169,-4.8006,-4.7861,-4.7759,-4.7717,-4.7717,-4.7717,-4.7717,-4.7717,-4.7717,-4.7717,-4.7717,-4.7717,-4.7717,-4.7717,-4.7717,-4.7717,-4.7717,-4.7717,-4.7717,-4.7717,-4.7717,-4.7717,-4.7717,-4.7717,-4.8731,-4.9238,-4.9275,-5.0886,-5.1937,0.0,0.0,0.0,0.0,0.0,0.0,0.0,0.0,0.0,0.0,0.0,0.0,0.0,0.0,0.0,0.0,0.0,0.0,0.0,0.0,0.0,0.0,0.0,0.0,0.0,-4.0907,-4.1102,-4.1626,-4.1682,-4.2084,-4.2986,-4.4257,-4.5184,-4.5734,-4.6045,-4.6211,-4.6236,-4.6222,-4.6203,-4.6209,-4.6203,-4.6196,-4.6196,-4.6196,-4.6196,-4.6196,-4.6196,-4.6196,-4.6196,-4.6196,-4.6196,-4.6196,-4.6138,-4.6075,-4.5997,-4.5902,-4.5728,-4.5624,-4.6509,-4.7222,-4.7952,-4.8812,-4.9633,-5.0302,-5.0302,-5.0302,-5.0302,-5.0302,-5.0302,-5.0302,-5.0302,-5.0212,-5.0076,-5.0076,-4.973,-4.9363,-4.9333,-4.8885,-4.855,-4.8658,-4.8495,-4.8286,-4.7943,-4.7861,-4.7801,-4.7717,-4.7717,-4.7717,-4.7717,-4.7717,-4.7717,-4.7717,-4.7717,-4.7717,-4.7717,-4.7717,-4.7717,-4.7717,-4.7717,-4.7717,-4.7717,-4.7717,-4.7717,-4.7717,-4.7717,-4.7717,-4.7717,-4.8532,-4.9075,-4.9438,-5.0705,-5.1538,0.0,0.0,0.0,0.0,0.0,0.0,-2.3371,-2.3195,0.0,0.0,0.0,0.0,0.0,0.0,0.0,0.0,0.0,0.0,0.0,0.0,0.0,0.0,0.0,0.0,-4.0752,-4.0771,-4.0791,-4.0888,-4.096,-4.1417,-4.2343,-4.3954,-4.4894,-4.4992,-4.5772,-4.6231,-4.6284,-4.6222,-4.6203,-4.6203,-4.6203,-4.6196,-4.6196,-4.6196,-4.6196,-4.6196,-4.6196,-4.6196,-4.6196,-4.6189,-4.6189,-4.6181,-4.6056,-4.5986,-4.5933,-4.5731,-4.5603,-4.5589,-4.6357,-4.7164,-4.7933,-4.8697,-4.9576,-5.0302,-5.0302,-5.0302,-5.0302,-5.0302,-5.0302,-5.0302,-5.0236,-5.0006,-4.9784,-4.9757,-4.9271,-4.8781,-4.8694,-4.8402,-4.8247,-4.8532,-4.8247,-4.792,-4.7861,-4.7759,-4.7717,-4.7717,-4.7717,-4.7717,-4.7717,-4.7717,-4.7717,-4.7717,-4.7717,-4.7717,-4.7717,-4.7717,-4.7717,-4.7717,-4.7717,-4.7717,-4.7717,-4.7717,-4.7717,-4.7717,-4.7717,-4.7717,-4.7717,-4.8442,-4.9184,-4.9963,-5.0687,-5.1122,0.0,0.0,0.0,0.0,0.0,0.0,0.0,-2.1507,0.0,0.0,0.0,0.0,0.0,0.0,0.0,0.0,0.0,0.0,0.0,0.0,0.0,0.0,0.0,0.0,-3.9878,-3.9936,-4.0208,-4.0849,-4.0967,-4.1397,-4.2271,-4.3356,-4.4289,-4.4972,-4.5772,-4.6206,-4.6211,-4.6216,-4.6203,-4.6203,-4.6203,-4.6196,-4.6196,-4.6196,-4.6196,-4.6196,-4.6196,-4.6196,-4.6196,-4.6084,-4.6027,-4.6047,-4.6007,-4.5841,-4.5591,-4.5539,-4.5455,-4.5359,-4.5531,-4.6562,-4.7837,-4.8009,-4.9079,-5.0302,-5.0302,-5.0302,-5.0302,-5.0302,-5.0302,-5.0236,-4.9955,-4.9857,-4.973,-4.9453,-4.908,-4.8781,-4.8694,-4.8345,-4.805,-4.8068,-4.7984,-4.7861,-4.7759,-4.7717,-4.7717,-4.7717,-4.7717,-4.7717,-4.7717,-4.7717,-4.7717,-4.7717,-4.7717,-4.7717,-4.7717,-4.7717,-4.7717,-4.7717,-4.7717,-4.7717,-4.7717,-4.7717,-4.7717,-4.7717,-4.7717,-4.7717,-4.7717,-4.788,-4.8351,-4.9148,-4.9311,-5.0071,0.0,0.0,0.0,-2.2887,0.0,0.0,0.0,0.0,0.0,0.0,0.0,0.0,0.0,0.0,0.0,0.0,0.0,0.0,0.0,0.0,0.0,0.0,0.0,0.0,-3.8363,-3.881,-3.9391,-4.0237,-4.074,-4.1214,-4.1673,-4.2552,-4.345,-4.4328,-4.5128,-4.5757,-4.6206,-4.6196,-4.6196,-4.6196,-4.6196,-4.6196,-4.6196,-4.6196,-4.6196,-4.6196,-4.6196,-4.6154,-4.6093,-4.6027,-4.5891,-4.5742,-4.5742,-4.5654,-4.549,-4.5419,-4.5361,-4.5297,-4.5297,-4.6405,-4.7799,-4.7799,-4.8926,-5.0302,-5.0302,-5.0302,-5.0302,-5.0302,-5.0169,-5.0006,-4.9857,-4.9541,-4.924,-4.9067,-4.8746,-4.8476,-4.8344,-4.813,-4.7907,-4.7801,-4.7819,-4.7759,-4.7717,-4.7717,-4.7717,-4.7717,-4.7717,-4.7717,-4.7717,-4.7717,-4.7717,-4.7717,-4.7717,-4.7717,-4.7717,-4.7717,-4.7717,-4.7717,-4.7717,-4.7717,-4.7717,-4.7717,-4.7717,-4.7717,-4.7717,-4.7717,-4.7717,-4.7717,-4.7916,-4.8315,-4.8731,-4.9546,0.0,0.0,0.0,0.0,0.0,-2.4933,0.0,0.0,0.0,0.0,0.0,0.0,0.0,0.0,0.0,0.0,0.0,0.0,0.0,0.0,0.0,0.0,0.0,0.0,0.0,-3.7236,-3.8152,-3.9357,-3.9802,-4.0264,-4.082,-4.1845,-4.2728,-4.343,-4.4406,-4.525,-4.5933,-4.6118,-4.6203,-4.6196,-4.6196,-4.6196,-4.6196,-4.6196,-4.6196,-4.6196,-4.6162,-4.6093,-4.5997,-4.5933,-4.5742,-4.549,-4.549,-4.5472,-4.5456,-4.5339,-4.5297,-4.5297,-4.5297,-4.6405,-4.7799,-4.7799,-4.8926,-5.0302,-5.0302,-5.0302,-5.0278,-5.0212,-5.0025,-4.9757,-4.9646,-4.9209,-4.8781,-4.8641,-4.8382,-4.8148,-4.7943,-4.7902,-4.7861,-4.7717,-4.7717,-4.7717,-4.7717,-4.7717,-4.7717,-4.7717,-4.7717,-4.7717,-4.7717,-4.7717,-4.7717,-4.7717,-4.7717,-4.7717,-4.7717,-4.7717,-4.7717,-4.7717,-4.7717,-4.7717,-4.7717,-4.7717,-4.7717,-4.7717,-4.7717,-4.7717,-4.7717,-4.7717,-4.7717,-4.7735,-4.8387,-4.9112,0.0,0.0,0.0,0.0,-2.7849,0.0,0.0,0.0,0.0,0.0,0.0,0.0,0.0,0.0,0.0,0.0,0.0,0.0,0.0,0.0,0.0,0.0,0.0,0.0,0.0,-3.4886,-3.5954,-3.8371,-3.7269,-3.7494,-3.9824,-4.1511,-4.2454,-4.2533,-4.4142,-4.5007,-4.5055,-4.5819,-4.6196,-4.6196,-4.6196,-4.6196,-4.6196,-4.6196,-4.6196,-4.6196,-4.6075,-4.6007,-4.5986,-4.5684,-4.5524,-4.549,-4.549,-4.5419,-4.5319,-4.5317,-4.5297,-4.5297,-4.5297,-4.6405,-4.7799,-4.7799,-4.8926,-5.0302,-5.0302,-5.0302,-5.0236,-4.9955,-4.983,-4.9674,-4.9067,-4.885,-4.873,-4.8344,-4.8226,-4.8148,-4.7943,-4.7902,-4.7861,-4.7717,-4.7717,-4.7717,-4.7717,-4.7717,-4.7717,-4.7717,-4.7717,-4.7717,-4.7717,-4.7717,-4.7717,-4.7717,-4.7717,-4.7717,-4.7717,-4.7717,-4.7717,-4.7717,-4.7717,-4.7717,-4.7717,-4.7717,-4.7717,-4.7717,-4.7717,-4.7717,-4.7717,-4.7717,-4.7717,-4.7717,-4.7808,-4.8279,0.0,0.0,0.0,0.0,0.0,0.0,-2.5515,0.0,-2.5083,0.0,0.0,0.0,0.0,0.0,0.0,0.0,0.0,0.0,0.0,0.0,0.0,0.0,0.0,0.0,0.0,0.0,0.0,0.0,-3.5259,-3.6069,-3.8183,-3.9932,-4.1342,-4.2376,-4.3595,-4.446,-4.4899,-4.576,-4.6196,-4.6196,-4.6196,-4.6196,-4.6196,-4.6196,-4.6154,-4.6084,-4.6017,-4.5879,-4.5699,-4.5558,-4.5455,-4.5381,-4.5381,-4.5341,-4.5297,-4.5297,-4.5297,-4.5297,-4.5297,-4.6405,-4.7971,-4.8926,-4.9729,-5.0302,-5.0302,-5.0169,-4.9981,-4.983,-4.9512,-4.9145,-4.8866,-4.8658,-4.8421,-4.8151,-4.809,-4.801,-4.7842,-4.7759,-4.7759,-4.7717,-4.7717,-4.7717,-4.7717,-4.7717,-4.7717,-4.7717,-4.7717,-4.7717,-4.7717,-4.7717,-4.7717,-4.7717,-4.7717,-4.7717,-4.7717,-4.7717,-4.7717,-4.7717,-4.7717,-4.7717,-4.7717,-4.7717,-4.7717,-4.7717,-4.7717,-4.7717,-4.7717,-4.7717,-4.7717,-4.7717,-4.7717,-4.8134,-2.8404,0.0,0.0,0.0,0.0,0.0,0.0,0.0,0.0,0.0,0.0,0.0,0.0,0.0,0.0,0.0,0.0,0.0,0.0,0.0,0.0,0.0,0.0,0.0,0.0,0.0,0.0,0.0,0.0,-3.3668,-3.6366,-3.817,-3.9917,-4.1635,-4.299,-4.3977,-4.4568,-4.5643,-4.6196,-4.6196,-4.6196,-4.6196,-4.6196,-4.6196,-4.613,-4.5997,-4.5944,-4.5756,-4.5509,-4.5455,-4.5381,-4.5297,-4.5297,-4.5297,-4.5297,-4.5297,-4.5297,-4.5297,-4.5297,-4.6405,-4.8048,-4.95,-5.013,-5.0278,-5.0169,-4.9981,-4.9757,-4.9589,-4.9177,-4.8781,-4.8694,-4.8458,-4.8247,-4.8032,-4.801,-4.7929,-4.7741,-4.7717,-4.7717,-4.7717,-4.7717,-4.7717,-4.7717,-4.7717,-4.7717,-4.7717,-4.7717,-4.7717,-4.7717,-4.7717,-4.7717,-4.7717,-4.7717,-4.7717,-4.7717,-4.7717,-4.7717,-4.7717,-4.7717,-4.7717,-4.7717,-4.7717,-4.7717,-4.7717,-4.7717,-4.7717,-4.7717,-4.7717,-4.7717,-4.7717,-4.7717,-4.8025,0.0,0.0,0.0,-2.7811,0.0,0.0,0.0,0.0,-2.6679,0.0,0.0,0.0,0.0,0.0,0.0,0.0,0.0,0.0,0.0,0.0,0.0,0.0,0.0,0.0,0.0,0.0,0.0,0.0,0.0,0.0,-3.4513,-3.6423,-3.8141,-3.9839,-4.2366,-4.3704,-4.3748,-4.537,-4.6196,-4.6196,-4.6196,-4.6196,-4.6196,-4.6196,-4.613,-4.5997,-4.579,-4.5615,-4.5491,-4.5361,-4.5317,-4.5297,-4.5297,-4.5297,-4.5297,-4.5297,-4.5297,-4.5297,-4.5297,-4.6405,-4.7952,-4.885,-4.9671,-5.0236,-4.991,-4.9803,-4.9674,-4.9015,-4.8816,-4.8711,-4.8402,-4.8247,-4.8187,-4.8032,-4.7947,-4.7861,-4.7717,-4.7717,-4.7717,-4.7717,-4.7717,-4.7717,-4.7717,-4.7717,-4.7717,-4.7717,-4.7717,-4.7717,-4.7717,-4.7717,-4.7717,-4.7717,-4.7717,-4.7717,-4.7717,-4.7717,-4.7717,-4.7717,-4.7717,-4.7717,-4.7717,-4.7717,-4.7717,-4.7717,-4.7717,-4.7717,-4.7717,-4.7717,-4.7717,-4.7717,-4.7717,-4.7717,0.0,0.0,-3.2483,-2.9618,0.0,0.0,0.0,0.0,0.0,0.0,0.0,0.0,0.0,0.0,0.0,0.0,0.0,0.0,0.0,0.0,0.0,0.0,0.0,0.0,0.0,0.0,0.0,0.0,-2.7608,0.0,0.0,-3.5408,-3.7828,-3.8961,-4.2061,-4.3693,-4.3709,-4.5362,-4.6209,-4.6196,-4.6196,-4.6196,-4.6196,-4.6102,-4.5977,-4.579,-4.5634,-4.549,-4.5361,-4.5319,-4.5297,-4.5297,-4.5297,-4.5297,-4.5297,-4.5297,-4.5297,-4.5373,-4.5908,-4.6481,-4.7188,-4.8621,-4.9134,-4.9296,-4.9923,-4.9674,-4.9145,-4.9145,-4.8797,-4.8421,-4.8286,-4.8226,-4.8166,-4.7966,-4.7902,-4.7861,-4.7717,-4.7717,-4.7717,-4.7717,-4.7717,-4.7717,-4.7717,-4.7717,-4.7717,-4.7717,-4.7717,-4.7717,-4.7717,-4.7717,-4.7717,-4.7717,-4.7717,-4.7717,-4.7717,-4.7717,-4.7717,-4.7717,-4.7717,-4.7717,-4.7717,-4.7717,-4.7717,-4.7717,-4.7717,-4.7717,-4.7717,-4.7717,-4.7717,-4.7717,-4.7717,-4.7717,-3.3013,-3.3385,0.0,-3.1004,-3.0434,0.0,-2.7161,0.0,0.0,0.0,0.0,0.0,0.0,0.0,0.0,0.0,0.0,0.0,0.0,0.0,0.0,0.0,0.0,0.0,0.0,0.0,-2.4297,-2.5515,0.0,0.0,0.0,0.0,-3.6911,-3.8102,-4.1456,-4.3396,-4.3709,-4.5069,-4.5891,-4.6196,-4.6196,-4.6181,-4.613,-4.6027,-4.5847,-4.5615,-4.5541,-4.5419,-4.5297,-4.5297,-4.5297,-4.5297,-4.5297,-4.5297,-4.5297,-4.5297,-4.5297,-4.5373,-4.5889,-4.6462,-4.715,-4.8277,-4.8886,-4.929,-4.9803,-4.9483,-4.8949,-4.8949,-4.864,-4.8267,-4.8226,-4.8148,-4.8108,-4.7943,-4.7861,-4.7819,-4.7717,-4.7717,-4.7717,-4.7717,-4.7717,-4.7717,-4.7717,-4.7717,-4.7717,-4.7717,-4.7717,-4.7717,-4.7717,-4.7717,-4.7717,-4.7717,-4.7717,-4.7717,-4.7717,-4.7717,-4.7717,-4.7717,-4.7717,-4.7717,-4.7717,-4.7717,-4.7717,-4.7717,-4.7717,-4.7717,-4.7717,-4.7717,-4.7717,-4.7717,-4.7717,-4.7717]}]]